[[{"header":{"parameterUnit":"m.s-1","parameterCategory":1,"la1":30.6,"la2":29.2853,"lo1":-89.7004,"lo2":-87.6739,"dy":0.0162,"dx":0.0183,"nx":112,"ny":82,"refTime":"2023-10-10T00:00:00:Z","depth":0,"parameterNumber":2,"parameterNumberName":"U-component_of_WINDS"},"data":[0.0,0.0,0.0,0.0,0.0,0.0,0.0,0.0,0.0,0.0,0.0,0.0,0.0,0.0,0.0,0.0,0.0,0.0,0.0,0.0,0.0,0.0,0.0,0.0,0.0,0.0,0.0,0.0,0.0,0.0,0.0,0.0,0.0,0.0,0.0,0.0,0.0,0.0,0.0,0.0,0.0,0.0,0.0,0.0,0.0,0.0,0.0,0.0,0.0,0.0,0.0,0.0,0.0,0.0,0.0,0.0,0.0,0.0,0.0,0.0,0.0,0.0,0.0,0.0,0.0,0.0,0.0,0.0,0.0,0.0,0.0,0.0,0.0,0.0,0.0,0.0,0.0,0.0,0.0,0.0,0.0,0.0,0.0,0.0,0.0,0.0,0.0,0.0,0.0,0.0,3.5826,3.5584,3.6207,3.6534,3.6472,3.6384,3.6384,3.6384,0.0,0.0,0.0,0.0,0.0,0.0,0.0,0.0,0.0,0.0,0.0,0.0,0.0,0.0,0.0,0.0,0.0,0.0,0.0,0.0,0.0,0.0,0.0,0.0,0.0,0.0,0.0,0.0,0.0,0.0,0.0,0.0,0.0,0.0,0.0,0.0,0.0,0.0,0.0,0.0,0.0,0.0,0.0,0.0,0.0,0.0,0.0,0.0,0.0,0.0,0.0,0.0,0.0,0.0,0.0,0.0,0.0,0.0,0.0,0.0,0.0,0.0,0.0,0.0,0.0,0.0,0.0,0.0,0.0,0.0,0.0,0.0,0.0,0.0,0.0,0.0,0.0,0.0,0.0,0.0,0.0,0.0,0.0,0.0,0.0,0.0,0.0,0.0,0.0,0.0,0.0,0.0,0.0,0.0,0.0,0.0,0.0,0.0,0.0,0.0,0.0,0.0,0.0,0.0,3.7703,3.8066,3.8488,3.8666,3.8246,3.7885,3.7639,3.7639,0.0,0.0,0.0,0.0,0.0,0.0,0.0,0.0,0.0,0.0,0.0,0.0,0.0,0.0,0.0,0.0,0.0,0.0,0.0,0.0,0.0,0.0,0.0,0.0,0.0,0.0,0.0,0.0,0.0,0.0,0.0,0.0,0.0,0.0,0.0,0.0,0.0,0.0,0.0,0.0,0.0,0.0,0.0,0.0,0.0,0.0,0.0,0.0,0.0,0.0,0.0,0.0,0.0,0.0,0.0,0.0,0.0,0.0,0.0,0.0,0.0,0.0,0.0,0.0,0.0,0.0,0.0,0.0,0.0,0.0,0.0,0.0,0.0,0.0,0.0,0.0,0.0,0.0,0.0,0.0,0.0,0.0,0.0,0.0,0.0,0.0,0.0,0.0,0.0,0.0,0.0,0.0,0.0,0.0,0.0,0.0,0.0,0.0,0.0,0.0,0.0,0.0,0.0,3.8092,3.8277,3.8962,3.8962,3.8872,3.8602,3.8175,3.79,3.79,3.7377,0.0,0.0,0.0,0.0,0.0,0.0,0.0,0.0,0.0,0.0,0.0,0.0,0.0,0.0,0.0,0.0,0.0,0.0,0.0,0.0,0.0,0.0,0.0,0.0,0.0,0.0,0.0,0.0,0.0,0.0,0.0,0.0,0.0,0.0,0.0,0.0,0.0,0.0,0.0,0.0,0.0,0.0,0.0,0.0,0.0,0.0,0.0,0.0,0.0,0.0,0.0,0.0,0.0,0.0,0.0,0.0,0.0,0.0,0.0,0.0,0.0,0.0,0.0,0.0,0.0,0.0,0.0,0.0,0.0,0.0,0.0,0.0,0.0,0.0,0.0,0.0,0.0,0.0,0.0,0.0,0.0,0.0,0.0,0.0,0.0,0.0,0.0,0.0,0.0,0.0,0.0,0.0,0.0,0.0,0.0,0.0,0.0,0.0,0.0,0.0,0.0,0.0,3.8315,3.8432,3.9024,3.8782,3.8602,3.8602,3.8175,3.7992,3.8083,3.7992,0.0,0.0,0.0,0.0,0.0,0.0,0.0,0.0,0.0,0.0,0.0,0.0,0.0,0.0,0.0,0.0,0.0,0.0,0.0,0.0,0.0,0.0,0.0,0.0,0.0,0.0,0.0,0.0,0.0,0.0,0.0,0.0,0.0,0.0,0.0,0.0,0.0,0.0,0.0,0.0,0.0,0.0,0.0,0.0,0.0,0.0,0.0,0.0,0.0,0.0,0.0,0.0,0.0,0.0,0.0,0.0,0.0,0.0,0.0,0.0,0.0,0.0,0.0,0.0,0.0,0.0,0.0,0.0,0.0,0.0,0.0,0.0,0.0,0.0,0.0,0.0,0.0,0.0,0.0,0.0,0.0,0.0,0.0,0.0,0.0,0.0,0.0,0.0,0.0,0.0,0.0,0.0,0.0,0.0,0.0,0.0,0.0,0.0,0.0,0.0,0.0,0.0,3.8845,3.8602,3.8602,3.8602,3.8602,3.8602,3.8175,3.8083,3.8512,3.8175,0.0,0.0,0.0,0.0,0.0,0.0,0.0,0.0,0.0,0.0,0.0,0.0,0.0,0.0,0.0,0.0,0.0,0.0,0.0,0.0,0.0,0.0,0.0,0.0,0.0,0.0,0.0,0.0,0.0,0.0,0.0,0.0,0.0,0.0,0.0,0.0,0.0,0.0,0.0,0.0,0.0,0.0,0.0,0.0,0.0,0.0,0.0,0.0,0.0,0.0,0.0,0.0,0.0,0.0,0.0,0.0,0.0,0.0,0.0,0.0,0.0,0.0,0.0,0.0,0.0,0.0,0.0,0.0,0.0,0.0,0.0,0.0,0.0,0.0,0.0,0.0,0.0,0.0,0.0,0.0,0.0,0.0,0.0,0.0,0.0,0.0,0.0,0.0,0.0,0.0,0.0,0.0,0.0,0.0,0.0,0.0,0.0,0.0,0.0,0.0,0.0,0.0,3.9733,3.9469,0.0,3.9203,3.8962,3.8602,3.8175,3.7992,3.8175,0.0,0.0,0.0,0.0,0.0,0.0,0.0,0.0,0.0,0.0,0.0,0.0,0.0,0.0,0.0,0.0,0.0,0.0,0.0,0.0,0.0,0.0,0.0,0.0,0.0,0.0,0.0,0.0,0.0,0.0,0.0,0.0,0.0,0.0,0.0,0.0,0.0,0.0,0.0,0.0,0.0,0.0,0.0,0.0,0.0,0.0,0.0,0.0,0.0,0.0,0.0,0.0,0.0,0.0,0.0,0.0,0.0,0.0,0.0,0.0,0.0,0.0,0.0,0.0,0.0,0.0,0.0,0.0,0.0,0.0,0.0,0.0,0.0,0.0,0.0,0.0,0.0,0.0,0.0,0.0,0.0,0.0,0.0,0.0,0.0,0.0,0.0,0.0,0.0,0.0,0.0,0.0,0.0,0.0,0.0,0.0,0.0,0.0,0.0,0.0,0.0,0.0,4.043,3.9908,3.9557,0.0,3.9114,3.8782,3.8602,3.8175,3.7992,3.833,0.0,0.0,0.0,0.0,0.0,0.0,0.0,0.0,0.0,0.0,0.0,0.0,0.0,0.0,0.0,0.0,0.0,0.0,0.0,0.0,0.0,0.0,0.0,0.0,0.0,0.0,0.0,0.0,0.0,0.0,0.0,0.0,0.0,0.0,0.0,0.0,0.0,0.0,0.0,0.0,0.0,0.0,0.0,0.0,0.0,0.0,0.0,0.0,0.0,0.0,0.0,0.0,0.0,0.0,0.0,0.0,0.0,0.0,0.0,0.0,0.0,0.0,0.0,0.0,0.0,0.0,0.0,0.0,0.0,0.0,0.0,0.0,0.0,0.0,0.0,0.0,0.0,0.0,0.0,0.0,0.0,0.0,0.0,0.0,0.0,0.0,0.0,0.0,0.0,0.0,0.0,0.0,0.0,0.0,0.0,0.0,0.0,0.0,0.0,0.0,0.0,0.0,3.9996,3.9203,3.8602,3.8602,3.8175,3.8083,3.8512,3.8175,3.833,0.0,0.0,0.0,0.0,0.0,0.0,0.0,0.0,0.0,0.0,0.0,0.0,0.0,0.0,0.0,0.0,0.0,0.0,0.0,0.0,0.0,0.0,0.0,0.0,0.0,0.0,0.0,0.0,0.0,0.0,0.0,0.0,0.0,0.0,0.0,0.0,0.0,0.0,0.0,0.0,0.0,0.0,0.0,0.0,0.0,0.0,0.0,0.0,0.0,0.0,0.0,0.0,0.0,0.0,0.0,0.0,0.0,0.0,0.0,0.0,0.0,0.0,0.0,0.0,0.0,0.0,0.0,0.0,0.0,0.0,0.0,0.0,0.0,0.0,0.0,0.0,0.0,0.0,0.0,0.0,0.0,0.0,0.0,0.0,0.0,0.0,0.0,0.0,0.0,0.0,0.0,0.0,0.0,0.0,0.0,0.0,0.0,0.0,0.0,0.0,0.0,0.0,0.0,3.9908,3.9203,3.8602,3.8602,3.8512,3.833,3.8083,3.7992,3.7992,3.833,0.0,0.0,0.0,0.0,0.0,0.0,0.0,0.0,0.0,0.0,0.0,0.0,0.0,0.0,0.0,0.0,0.0,0.0,0.0,0.0,0.0,0.0,0.0,0.0,0.0,0.0,0.0,0.0,0.0,0.0,0.0,0.0,0.0,0.0,0.0,0.0,0.0,0.0,0.0,0.0,0.0,0.0,0.0,0.0,0.0,0.0,0.0,0.0,0.0,0.0,0.0,0.0,0.0,0.0,0.0,0.0,0.0,0.0,0.0,0.0,0.0,0.0,0.0,0.0,0.0,0.0,0.0,0.0,0.0,0.0,0.0,0.0,0.0,0.0,0.0,0.0,0.0,0.0,0.0,0.0,0.0,0.0,0.0,0.0,0.0,0.0,0.0,0.0,0.0,0.0,0.0,0.0,0.0,0.0,0.0,0.0,0.0,0.0,0.0,0.0,0.0,0.0,3.9645,3.9051,3.8512,3.833,3.833,3.8266,3.79,3.79,3.7992,3.8175,0.0,0.0,0.0,0.0,0.0,0.0,0.0,0.0,0.0,0.0,0.0,0.0,0.0,0.0,0.0,0.0,0.0,0.0,0.0,0.0,0.0,0.0,0.0,0.0,0.0,0.0,0.0,0.0,0.0,0.0,0.0,0.0,0.0,0.0,0.0,0.0,0.0,0.0,0.0,0.0,0.0,0.0,0.0,0.0,0.0,0.0,0.0,0.0,0.0,0.0,0.0,0.0,0.0,0.0,0.0,0.0,0.0,0.0,0.0,0.0,0.0,0.0,0.0,0.0,0.0,0.0,0.0,0.0,0.0,0.0,0.0,0.0,0.0,0.0,0.0,0.0,0.0,0.0,0.0,0.0,0.0,0.0,0.0,0.0,0.0,0.0,0.0,0.0,0.0,0.0,0.0,0.0,0.0,0.0,0.0,0.0,0.0,0.0,0.0,0.0,0.0,0.0,3.9292,3.8872,3.833,3.7992,3.79,3.79,3.79,3.79,3.8083,3.8512,0.0,0.0,0.0,0.0,0.0,0.0,0.0,0.0,0.0,0.0,0.0,0.0,0.0,0.0,0.0,0.0,0.0,0.0,0.0,0.0,0.0,0.0,0.0,0.0,0.0,0.0,0.0,0.0,0.0,0.0,0.0,0.0,0.0,0.0,0.0,0.0,0.0,0.0,0.0,0.0,0.0,0.0,0.0,0.0,0.0,0.0,0.0,0.0,0.0,0.0,0.0,0.0,0.0,0.0,0.0,0.0,0.0,0.0,0.0,0.0,3.9788,0.0,0.0,0.0,0.0,0.0,0.0,0.0,0.0,0.0,0.0,0.0,0.0,0.0,0.0,0.0,0.0,0.0,0.0,0.0,0.0,0.0,0.0,0.0,0.0,0.0,0.0,0.0,0.0,0.0,0.0,0.0,0.0,0.0,0.0,0.0,0.0,0.0,0.0,0.0,0.0,0.0,3.8782,3.833,3.7992,3.79,3.79,3.79,3.79,3.79,3.79,3.8083,3.833,0.0,0.0,0.0,0.0,0.0,0.0,0.0,0.0,0.0,0.0,0.0,0.0,0.0,0.0,0.0,0.0,0.0,0.0,0.0,0.0,0.0,0.0,0.0,0.0,0.0,0.0,0.0,0.0,0.0,0.0,0.0,0.0,0.0,0.0,0.0,0.0,0.0,0.0,0.0,0.0,0.0,0.0,0.0,0.0,0.0,0.0,0.0,0.0,0.0,0.0,0.0,0.0,0.0,0.0,0.0,0.0,0.0,0.0,0.0,0.0,4.021,0.0,0.0,0.0,0.0,0.0,0.0,0.0,0.0,0.0,0.0,0.0,0.0,0.0,0.0,0.0,0.0,0.0,0.0,0.0,0.0,0.0,0.0,0.0,0.0,0.0,0.0,0.0,0.0,0.0,0.0,0.0,0.0,0.0,0.0,0.0,0.0,0.0,0.0,0.0,0.0,3.912,3.8543,3.8187,3.7926,3.79,3.79,3.79,3.79,3.79,3.79,3.8175,0.0,0.0,0.0,0.0,0.0,0.0,0.0,0.0,0.0,0.0,0.0,0.0,0.0,0.0,0.0,0.0,0.0,0.0,0.0,0.0,0.0,0.0,0.0,0.0,0.0,0.0,0.0,0.0,0.0,0.0,0.0,0.0,0.0,0.0,0.0,0.0,0.0,0.0,0.0,0.0,0.0,0.0,0.0,0.0,0.0,0.0,0.0,0.0,0.0,0.0,0.0,0.0,0.0,4.1367,4.1311,4.1311,4.1029,4.0859,4.0688,4.0688,4.0688,4.0688,0.0,0.0,0.0,0.0,0.0,0.0,0.0,0.0,0.0,0.0,0.0,0.0,0.0,0.0,0.0,0.0,0.0,0.0,0.0,0.0,0.0,0.0,0.0,0.0,0.0,4.2823,4.2907,0.0,0.0,0.0,0.0,0.0,0.0,0.0,0.0,0.0,0.0,0.0,0.0,3.9548,3.9149,3.8684,3.824,3.8214,3.8214,3.8214,3.8109,3.8057,3.8057,3.7952,3.79,0.0,0.0,0.0,0.0,0.0,0.0,0.0,0.0,0.0,0.0,0.0,0.0,0.0,0.0,0.0,0.0,0.0,0.0,0.0,0.0,0.0,0.0,0.0,0.0,0.0,0.0,0.0,0.0,0.0,0.0,0.0,0.0,4.1396,4.148,0.0,0.0,0.0,0.0,0.0,0.0,0.0,0.0,0.0,0.0,0.0,0.0,0.0,4.1645,4.1558,4.1423,4.1283,4.1085,4.0859,4.0773,4.0773,4.0773,4.0688,4.0688,4.0688,0.0,4.0688,4.0688,0.0,0.0,0.0,0.0,0.0,0.0,0.0,0.0,0.0,0.0,0.0,0.0,0.0,0.0,0.0,0.0,0.0,0.0,0.0,0.0,0.0,0.0,4.3385,4.3385,4.3778,4.4172,0.0,4.3329,4.257,4.257,4.257,0.0,0.0,0.0,0.0,0.0,0.0,0.0,3.9685,3.9494,3.9468,3.939,3.939,3.939,3.939,3.8919,3.8606,3.8606,3.8161,3.79,3.79,3.79,0.0,0.0,0.0,0.0,0.0,0.0,0.0,0.0,0.0,0.0,0.0,0.0,0.0,0.0,0.0,0.0,0.0,0.0,0.0,0.0,0.0,0.0,0.0,0.0,0.0,0.0,0.0,0.0,0.0,4.1564,4.1731,4.1619,4.1814,4.1897,0.0,0.0,0.0,0.0,0.0,0.0,0.0,0.0,0.0,4.2596,4.2424,4.2338,4.2338,4.2193,4.2106,4.2077,4.1815,4.1843,4.1903,4.1843,4.1755,4.1755,4.1755,4.1755,4.1727,4.1362,4.1221,4.125,0.0,0.0,0.0,0.0,4.1755,4.1755,4.1755,4.1924,0.0,0.0,0.0,0.0,0.0,0.0,0.0,0.0,0.0,0.0,0.0,0.0,0.0,4.4003,4.4228,4.4425,4.4425,4.3789,4.3213,0.0,4.361,4.3398,4.2906,0.0,0.0,0.0,0.0,4.1282,4.0193,4.0069,3.9939,3.9651,3.9599,3.9599,3.9599,3.9364,3.9207,3.9207,3.8684,3.837,3.837,3.8057,3.79,0.0,0.0,0.0,0.0,0.0,0.0,0.0,0.0,0.0,0.0,0.0,0.0,0.0,0.0,0.0,0.0,0.0,0.0,0.0,0.0,0.0,0.0,0.0,0.0,0.0,0.0,0.0,0.0,4.1966,4.2221,4.2192,4.2305,4.2305,0.0,0.0,0.0,0.0,0.0,0.0,4.3136,4.3341,4.3341,4.3165,4.2988,4.2899,4.2899,4.2749,4.2749,4.281,4.266,4.266,4.281,4.266,4.257,4.257,4.257,4.257,4.2542,4.2064,4.1868,4.1896,4.2402,4.257,4.257,4.257,4.257,4.257,4.257,4.2683,4.2823,4.2823,0.0,4.3048,4.3048,0.0,0.0,0.0,0.0,4.3835,4.4284,4.4425,4.4425,4.4425,4.4425,4.4425,4.4425,4.4115,4.3899,0.0,4.4115,4.3832,4.3328,0.0,0.0,0.0,0.0,4.1709,4.0795,4.0644,4.0488,4.0095,4.0043,4.0043,4.0043,3.9913,3.9808,3.9808,3.9259,3.8945,3.8945,3.8553,3.8266,3.8109,0.0,0.0,0.0,0.0,0.0,0.0,0.0,0.0,0.0,0.0,0.0,0.0,0.0,0.0,0.0,0.0,0.0,0.0,0.0,0.0,0.0,0.0,0.0,0.0,0.0,0.0,0.0,0.0,0.0,4.3401,4.3138,0.0,0.0,0.0,0.0,4.3195,4.34,4.34,4.2899,4.2899,4.2899,4.2899,4.2899,4.2899,4.2899,4.2899,4.281,4.257,4.257,4.257,4.257,4.257,4.257,4.257,4.257,4.257,4.257,4.2542,4.2542,4.2542,4.257,4.257,4.257,4.257,4.257,4.257,4.257,4.2964,4.3441,4.3441,4.3835,4.4312,4.4312,4.4312,0.0,0.0,4.4369,4.4369,4.4397,4.4425,4.4425,4.4425,4.4425,4.4425,4.4425,4.4425,4.4209,0.0,4.3259,4.2776,4.2262,0.0,4.2582,4.1524,4.1796,4.1868,4.1372,4.1272,4.1272,4.1246,4.1219,4.1219,4.1219,4.0697,4.0383,4.0383,3.986,3.9573,3.9573,3.9547,3.9259,3.8684,3.8658,0.0,0.0,0.0,0.0,0.0,0.0,0.0,0.0,0.0,0.0,0.0,0.0,0.0,0.0,0.0,0.0,0.0,0.0,0.0,0.0,0.0,0.0,0.0,0.0,0.0,0.0,0.0,0.0,4.3341,4.3341,0.0,4.3341,4.3341,4.3424,4.3556,4.3674,4.3754,4.3814,4.4026,4.4117,4.4117,4.3934,4.3934,4.4117,4.4329,4.4434,4.434,4.4762,4.4959,4.4959,4.4959,4.4959,4.4959,4.4959,4.4959,4.4959,4.4959,4.4256,4.3216,4.361,4.375,4.375,4.375,4.375,4.375,4.375,4.3891,4.4088,4.4088,4.4228,4.4425,4.4425,4.4425,4.4425,4.4425,4.4425,4.4425,4.4425,4.4115,4.3899,4.3899,4.3642,4.3451,4.3451,4.3163,4.2846,4.2652,4.3039,4.3039,4.2262,4.2289,4.219,4.1398,4.1498,4.1498,4.1324,4.1324,4.1324,4.1324,4.1324,4.1324,4.1324,4.1115,4.0984,4.0984,4.0461,4.0122,4.0122,3.9782,3.952,3.9285,3.9285,3.8998,0.0,0.0,0.0,0.0,0.0,0.0,0.0,0.0,0.0,0.0,0.0,0.0,0.0,0.0,0.0,0.0,0.0,0.0,0.0,0.0,0.0,0.0,0.0,0.0,0.0,0.0,4.382,4.397,4.391,4.391,4.3881,4.382,4.3901,4.4026,4.4054,4.4252,4.449,4.4809,4.5016,4.5109,4.5025,4.5138,4.5327,4.556,4.5661,4.5661,4.6083,4.6307,4.6307,4.6307,4.6307,4.6307,4.6307,4.6307,4.6307,4.6307,4.5549,4.4481,4.4874,4.5043,4.5043,4.5043,4.4902,4.4678,4.4481,4.4425,4.4425,4.4425,4.4425,4.4425,4.4425,4.4425,4.4425,4.4425,4.4425,4.4425,4.4425,4.4115,4.3899,4.3899,4.3519,4.3163,4.3163,4.2776,4.2289,4.219,4.2457,4.2652,4.1993,4.1796,4.1696,4.1324,4.1324,4.1324,4.1324,4.1324,4.1324,4.1324,4.1324,4.1324,4.1324,4.1324,4.1324,4.1324,4.0932,4.0723,4.0723,4.0383,4.0095,3.9886,3.9703,3.9416,3.9024,0.0,0.0,0.0,0.0,0.0,0.0,0.0,0.0,0.0,0.0,0.0,0.0,0.0,0.0,0.0,0.0,0.0,0.0,0.0,0.0,0.0,0.0,0.0,4.5046,4.4954,4.4954,4.5413,4.4862,4.4583,4.5046,4.4862,4.4705,4.4453,4.464,4.4826,4.4854,4.5138,4.5447,4.5732,4.6067,4.6307,4.6307,4.6307,4.6335,4.6335,4.6335,4.6364,4.6364,4.6364,4.6364,4.6364,4.6364,4.6364,4.6364,4.6364,4.6364,4.6335,4.6307,4.6307,4.6307,4.6307,4.5886,4.5268,4.4678,4.4481,4.4481,4.4453,4.4453,4.4425,4.4425,4.4425,4.4425,4.4425,4.4425,4.4425,4.4425,4.4397,4.4331,4.4303,4.3899,4.3491,4.3491,4.3163,4.2706,4.219,4.1749,4.135,4.1324,4.1324,4.1324,4.135,4.135,0.0,4.1376,4.1376,4.1376,4.1376,4.1376,4.135,4.135,4.135,4.1324,4.1324,4.1324,4.1324,4.1324,4.1324,4.1036,4.0461,3.9913,3.9625,3.9625,0.0,0.0,0.0,0.0,0.0,0.0,0.0,0.0,0.0,0.0,0.0,0.0,0.0,0.0,0.0,0.0,0.0,0.0,0.0,0.0,0.0,0.0,4.5138,4.511,4.4769,4.4676,4.511,4.4862,4.4705,4.4862,4.4797,4.4874,4.5043,4.5071,4.5363,4.5842,4.5942,4.6026,4.6123,4.6195,4.6307,4.6307,4.6729,4.6954,4.6954,4.7403,4.7628,4.7628,4.7628,4.7853,4.8246,4.7825,4.7881,4.8246,4.7797,4.7628,4.7544,4.6645,4.6307,4.6307,4.6307,4.6195,4.5998,4.583,4.5774,4.5689,4.5212,4.5071,4.4987,4.4537,4.4425,4.4425,4.4425,4.4425,4.4303,4.3899,4.3546,4.3163,4.2846,4.2262,4.1895,4.1895,4.2113,4.233,4.2229,4.2367,4.2291,4.1455,4.1324,4.1455,4.1873,4.1925,0.0,4.25,4.2552,4.2552,4.2552,4.2552,4.2396,4.1977,4.1925,4.1768,4.135,4.1324,4.1324,4.1324,4.1324,4.1246,4.1063,4.0488,4.02,0.0,0.0,0.0,0.0,0.0,0.0,0.0,0.0,0.0,0.0,0.0,0.0,0.0,0.0,0.0,0.0,0.0,0.0,0.0,0.0,0.0,0.0,4.5138,4.5138,4.4954,4.4769,4.4854,4.5324,4.5166,4.5185,4.5534,4.5496,4.5543,4.5717,4.5745,4.5886,4.6349,4.663,4.6673,4.6869,4.7024,4.7066,4.7066,4.7656,4.7965,4.7993,4.8612,4.8893,4.8893,4.8893,4.9089,0.0,4.9033,4.9089,4.937,4.8752,4.8499,0.0,0.0,0.0,0.0,0.0,4.6673,4.6645,4.6392,4.6307,4.6223,4.5858,4.5745,4.5661,4.5296,4.5212,4.5212,4.5212,4.5212,4.5088,4.4801,4.4512,4.4221,4.3928,4.321,4.2711,4.2711,4.2571,4.2526,4.2526,4.2788,0.0,4.2134,4.203,4.2134,4.2474,4.2526,4.2657,4.2971,4.3023,4.3023,4.3023,4.3023,4.2892,4.2552,4.2291,0.0,0.0,0.0,4.1324,4.1324,4.1324,0.0,0.0,0.0,4.0801,4.0801,0.0,0.0,0.0,3.8184,3.7585,0.0,0.0,0.0,0.0,0.0,0.0,0.0,0.0,0.0,0.0,0.0,0.0,0.0,0.0,0.0,0.0,4.5153,4.4996,4.4996,4.5182,4.5445,4.5742,4.5599,4.5757,4.6486,4.6377,4.6335,4.6392,4.6392,4.6517,4.6769,0.0,0.0,0.0,0.0,4.8331,4.8331,4.8864,4.9145,4.9145,4.9707,4.996,4.996,4.996,4.9988,5.0073,4.9988,4.9988,5.0016,4.9398,4.9089,4.8977,4.8359,4.8134,4.8078,4.7516,4.7319,4.7235,4.6701,0.0,0.0,4.642,4.6392,4.6392,4.6307,4.6307,4.6307,4.6307,4.6307,4.6307,4.6182,4.6182,4.6182,4.6084,4.5238,4.4509,4.4509,4.3774,4.3127,4.3127,4.318,4.3206,4.3206,4.3101,4.3049,4.3101,4.3127,4.3127,4.3206,4.3206,4.3206,4.3206,0.0,0.0,4.3127,4.2657,4.2343,4.2265,4.1716,4.1376,4.1324,4.1324,4.1324,4.1324,4.1324,4.1324,4.1324,4.1324,4.1324,4.1298,3.9165,3.804,0.0,0.0,0.0,0.0,0.0,0.0,0.0,0.0,0.0,0.0,0.0,0.0,0.0,0.0,0.0,4.6718,4.6624,4.6462,4.6011,4.6203,4.6225,4.6044,4.609,4.6236,4.6543,4.6377,4.6504,4.701,4.7038,4.7263,4.774,4.8359,4.8696,4.8696,4.9286,4.9595,4.9595,4.9735,4.9792,4.9792,0.0,0.0,4.996,4.996,5.0241,5.0663,5.0185,5.0241,5.0663,5.0045,4.9483,4.8977,4.8359,4.8134,4.8106,4.7993,4.7965,4.7937,4.7797,4.7769,4.7684,4.7178,4.7038,4.6954,4.6448,4.6307,0.0,4.6307,4.6307,4.6182,4.5761,4.5663,4.5564,4.5066,4.4563,4.4055,4.4055,4.3912,4.3702,4.3702,4.4095,4.4408,4.4408,4.3624,4.318,4.3624,4.3702,4.3885,4.433,4.4408,4.4408,4.4408,4.4408,4.4199,4.3755,4.3598,4.3337,4.2892,4.2317,4.1794,4.1324,4.1324,4.1324,4.1324,4.1324,4.1324,4.1324,4.1324,4.1324,4.1198,3.8614,3.7657,0.0,0.0,0.0,0.0,0.0,0.0,0.0,0.0,0.0,0.0,0.0,4.7782,4.7782,0.0,4.747,4.7091,4.6995,4.6803,4.6377,4.6728,4.7076,4.686,4.6756,4.6968,4.7546,4.7278,4.7347,4.7656,4.7656,4.7937,4.8555,4.8864,4.9174,4.9483,4.9792,4.996,4.996,5.0269,5.041,5.041,5.0719,5.0859,5.0859,5.0859,5.1056,5.1309,5.1,5.1056,5.1253,5.0326,4.9595,4.8977,4.8359,4.8134,4.8134,4.8134,4.8134,4.8134,4.8134,4.8134,4.8078,4.7769,4.7656,4.76,4.7291,4.7207,4.7207,4.7207,4.7207,4.7107,4.6879,4.6578,4.6376,4.6072,4.5353,4.4729,4.4729,4.452,4.4304,4.4304,4.4539,4.4722,4.4722,4.4251,4.3964,4.4251,4.4304,4.4408,4.4696,4.4722,4.4722,4.4722,4.4722,4.4617,4.433,4.4042,4.3624,4.3049,4.2474,4.203,4.1742,4.1455,4.1324,4.1324,4.1324,4.1324,4.1324,4.1324,4.1324,4.1198,3.8344,3.8014,0.0,0.0,0.0,0.0,0.0,0.0,0.0,4.8159,4.8159,4.8159,4.8159,4.8159,4.8159,4.8159,4.7941,4.7463,4.7366,4.7173,4.6841,4.7236,4.7744,4.7843,4.7674,4.7672,4.8352,4.8207,4.8134,4.8134,4.8246,4.8527,4.9005,4.9258,4.9623,5.0129,5.0241,5.0326,5.0326,5.0803,5.1056,5.1056,5.1562,5.1787,5.1787,5.1787,5.1787,5.1787,5.1787,5.1731,5.1534,5.041,4.9595,4.8977,4.8359,4.8134,4.8134,4.8134,4.8134,4.8134,4.8134,4.8134,4.8134,4.8134,4.8134,4.8134,4.8134,4.8134,4.8134,4.8134,4.8134,4.8134,4.8134,4.7829,4.7391,4.7288,4.656,4.5715,4.5609,4.5154,4.4722,4.4722,4.4722,4.4722,4.4722,4.4722,4.4722,4.4722,4.4722,4.4722,4.4722,4.4722,4.4722,4.4722,4.4722,4.4722,4.4722,4.4304,4.3781,4.3232,4.2762,4.2396,4.2186,4.1716,4.1428,4.1324,4.1324,4.1324,4.1324,4.1324,4.1324,4.1198,3.8509,3.8509,5.0176,4.963,4.9659,4.9563,4.9465,4.9465,0.0,4.9465,4.9465,4.9465,4.9465,4.9465,4.9465,4.9465,4.9271,4.878,4.8681,4.8581,4.8283,4.8167,4.8223,4.8696,4.8496,4.8324,4.8106,4.8134,4.8134,4.8134,4.864,4.8977,4.9033,5.0073,5.0691,5.0775,5.1309,5.159,5.159,5.1646,5.1674,5.1674,5.1759,5.1787,5.1787,5.1787,5.1787,5.1787,5.1787,5.1478,5.0916,5.0241,4.9595,4.8977,4.8359,4.8134,4.8134,4.8134,4.8134,4.8134,4.8134,4.8134,4.8134,4.8134,4.8134,4.8134,4.8134,4.8134,4.8134,4.8134,4.8134,4.8134,4.8134,4.8032,4.7931,4.7391,4.6769,4.6218,4.5715,4.5154,4.4722,4.4722,4.4722,4.4722,4.4722,4.4722,4.4722,4.4722,4.4722,4.4722,4.4722,4.4722,4.4722,4.4722,4.4722,4.4722,4.4722,4.467,4.4382,4.3807,4.3729,4.3232,4.2213,4.2108,4.1847,4.1324,4.1324,4.1324,4.1324,4.1324,4.1198,4.0896,3.939,3.8742,5.0857,5.0124,4.9669,4.9669,4.9669,4.9669,4.9669,4.9669,4.9669,4.9669,4.9669,4.9669,4.9669,4.9571,4.9404,0.0,4.9009,4.881,4.8581,4.8509,4.8509,4.8409,4.8509,4.8509,4.8308,4.8207,4.8274,4.864,4.8893,4.9342,5.0073,5.0607,5.1028,5.1393,5.1646,5.1787,5.1787,5.1787,5.1787,5.1787,5.1787,5.1787,5.1787,5.1787,5.1787,5.1759,5.1421,5.1112,5.0803,4.982,4.9258,4.8977,4.8359,4.8134,4.8134,4.8134,4.8134,4.8134,4.8134,4.8134,4.8134,4.8134,4.8134,4.8134,4.8134,4.8134,4.8134,4.8134,4.8134,4.8134,4.8134,4.7596,4.7053,4.6846,4.6112,4.5368,4.5154,4.483,4.4722,4.4722,4.4722,4.4722,4.4722,4.4722,4.4722,4.4722,4.4722,4.4722,4.4722,4.4722,4.4722,4.4722,4.4722,4.4722,4.4722,4.4722,4.4617,4.4382,4.4068,4.352,4.2709,4.2343,4.1899,4.1324,4.1324,4.1324,4.1324,4.1097,4.0668,3.993,3.8218,3.7477,5.0952,5.022,4.9669,4.9669,4.9669,4.9669,4.9669,4.9669,4.9669,4.9669,4.9669,4.9669,4.9669,4.96,4.9404,4.9305,4.9108,4.881,4.8581,4.861,4.861,4.8207,4.8308,4.8409,4.8409,4.8376,4.8555,4.9005,4.937,4.9932,5.0831,5.1028,5.1337,5.1787,5.1787,5.1787,5.1787,5.1787,5.1787,5.1787,5.1787,5.1787,5.1787,5.1618,5.1534,5.1506,5.0888,5.0522,5.0297,4.9398,4.8949,4.8752,4.8302,4.8134,4.8134,4.8134,4.8134,4.8134,4.8134,4.8134,4.8134,4.8134,4.8134,4.8134,4.8134,4.8134,4.8134,4.8134,4.8032,4.7931,4.7931,4.7184,4.6323,4.6218,4.5582,4.4938,4.4722,4.4722,4.4722,4.4722,4.4722,4.4722,4.4722,4.4722,4.4722,4.4722,4.4722,4.4722,4.4722,4.4722,4.4722,4.4722,4.4722,4.4722,4.4722,4.4722,4.4722,4.4722,4.433,4.3859,4.3284,4.2709,4.2134,4.1559,4.1402,4.1224,4.1198,4.0668,3.993,3.8847,3.7026,3.6077,4.9766,4.9766,4.9669,4.9669,4.9669,4.9669,4.9669,4.9669,4.9669,4.9669,4.9669,4.9669,4.9669,4.9669,4.9571,4.9305,4.9108,4.8909,4.8909,4.8409,4.8207,4.8481,4.8308,4.8134,0.0,4.8668,4.9033,4.9033,5.0129,5.0831,5.0859,5.1421,5.1759,5.1787,5.1787,5.1787,5.1787,5.1787,5.1787,5.1787,5.1787,5.1787,5.1759,5.1169,5.0916,5.0859,5.0241,4.9651,4.9089,4.9061,4.8696,4.8162,4.8134,4.8134,4.8134,4.8134,4.8134,4.8134,4.8134,4.8134,4.8134,4.8134,4.8134,4.8134,4.8134,4.8134,4.8134,4.8134,4.7726,4.7288,4.7288,4.6873,4.6218,4.5688,4.5609,4.5395,4.483,4.4722,4.4722,4.4722,4.4722,4.4722,4.4722,4.4722,4.4722,4.4722,4.4722,4.4722,4.4722,4.4722,4.4722,4.4722,4.4722,4.4722,4.4722,4.4722,4.4722,4.4722,4.4696,4.4434,4.3859,4.331,4.2735,4.216,4.1611,4.1198,4.0896,3.9802,3.8951,3.8218,3.6054,3.4781,4.9669,4.9669,4.9669,4.9669,4.9669,4.9669,4.9669,4.9669,4.9669,4.9669,4.9669,4.9669,4.9669,4.9375,4.9207,4.9305,4.8909,4.8581,4.8581,4.8509,4.8308,4.8207,4.8106,0.0,0.0,0.0,0.0,4.9623,5.041,5.1056,5.145,5.1674,5.1787,5.1787,5.1787,5.1787,5.1787,5.1787,5.1787,5.1787,5.1787,5.1562,5.1169,5.0972,5.0663,5.0241,4.9623,4.923,4.9005,4.8612,4.8302,4.8134,4.8134,4.8134,4.8134,4.8134,4.8134,4.8134,4.8134,4.8134,4.8134,4.8134,4.8134,4.8134,4.8134,4.8134,4.8134,4.8134,4.7931,4.7726,4.7391,4.6873,4.6218,4.5715,4.5261,4.4938,4.4722,4.4722,4.4722,4.4722,4.4722,4.4722,4.4722,4.4722,4.4722,4.4722,4.4722,4.4722,4.4722,4.4722,4.4722,4.4722,4.4722,4.4722,4.4722,4.4722,4.4722,4.4722,4.4722,4.446,4.3885,4.3702,4.3127,4.2186,4.18,4.1386,4.0896,4.016,3.8871,3.7156,3.6185,3.4891,4.9669,4.9669,4.9669,4.9669,4.9669,4.9669,4.9669,4.9669,4.9669,4.9669,4.9669,4.9669,4.9669,4.9375,4.9108,4.9404,4.898,4.8581,4.8581,4.8581,4.838,4.8134,4.8331,4.8612,0.0,0.0,0.0,5.0269,5.0859,5.1365,5.1759,5.1787,5.1787,5.1787,5.1787,5.1787,5.1787,5.1787,5.1787,5.1787,5.1562,5.1253,5.0859,5.041,5.0016,4.9595,4.8977,4.8724,4.8696,4.8274,4.8246,4.8443,4.8443,4.8583,4.878,4.878,4.878,4.8724,4.8274,4.8134,4.8134,4.8134,4.8134,4.8134,4.8134,4.8134,4.8134,4.8134,4.7801,4.7391,4.7081,4.6428,4.5688,4.5368,4.4938,4.4722,4.4722,4.4722,4.4722,4.4722,4.4722,4.4722,4.4722,4.4722,4.4722,4.4722,4.4722,4.4722,4.4722,4.4722,4.4722,4.4722,4.4722,4.4722,4.4722,4.4722,4.4722,4.4722,4.4722,4.4565,4.4199,4.399,4.3441,4.2371,4.1983,4.1158,3.993,3.9208,3.7796,3.5881,3.5223,3.4134,4.9669,4.9669,4.9669,4.9669,4.9669,4.9669,4.9669,4.9669,4.9669,4.9669,4.9669,4.9669,4.9669,4.9502,4.9404,4.9571,4.9178,4.8909,4.8909,4.861,4.8409,0.0,0.0,0.0,0.0,0.0,0.0,5.0916,0.0,5.1787,5.1787,5.1787,5.1787,5.1787,5.1787,5.1787,5.1787,5.1787,5.1759,5.1731,5.114,5.0831,5.0747,4.9567,4.9033,4.8949,4.8415,4.8162,4.8162,4.8218,4.8555,4.9089,4.9089,4.9454,4.996,4.996,4.996,4.9792,4.8612,4.8218,4.8218,4.8218,4.8218,4.8218,4.819,4.8162,4.8162,4.8134,4.7288,4.6428,4.6428,4.5582,4.4722,4.4722,4.4722,4.4722,4.4722,4.4722,4.4722,4.4722,4.4722,4.4722,4.4722,4.4722,4.4722,4.4722,4.4722,4.4722,4.4722,4.4722,4.4722,4.4722,4.4722,4.4722,4.4722,4.4722,4.4722,4.4722,4.4722,4.4722,4.4722,4.4199,4.3544,4.263,4.2009,4.0588,3.8372,3.718,3.5904,3.4469,3.3275,3.2727,4.9669,4.9669,4.9669,4.9669,4.9669,4.9669,4.9669,4.9669,4.9669,4.9669,4.9669,4.9669,4.9669,4.9305,4.9009,4.9079,4.861,4.8308,4.8308,4.8207,4.8207,4.8134,0.0,4.923,4.9679,5.0438,0.0,0.0,5.1702,5.1787,5.1787,5.1787,5.1787,5.1787,5.1787,5.1787,5.1787,5.1787,5.1562,5.1112,5.0944,5.0382,4.9483,4.9174,4.878,4.8387,4.8668,4.8808,4.8836,4.9314,4.9595,4.9735,4.9735,4.982,4.996,4.996,4.996,4.9904,4.9595,4.9483,4.9483,4.9483,4.9483,4.9398,4.8949,4.8808,4.8724,4.8246,4.7596,4.6977,4.6533,4.5901,4.5261,4.483,4.4722,4.4722,4.4722,4.4722,4.4722,4.4722,4.4722,4.4722,4.4722,4.4722,4.4722,4.4722,4.4722,4.4722,4.4722,4.4722,4.4722,4.4722,4.4722,4.4722,4.4722,4.4722,4.4722,4.4722,4.4722,4.4613,4.4422,4.4266,4.3821,4.2905,4.1622,4.0316,3.8956,3.7528,3.6024,3.4469,3.4155,3.3614,4.9669,4.9669,4.9669,4.9669,4.9669,4.9669,4.9669,4.9669,4.9669,4.9669,4.9669,4.9669,4.9669,4.9277,4.8909,4.9108,4.861,4.8308,4.8308,4.8308,4.832,4.8499,4.9061,4.9679,5.0297,5.0916,5.1421,0.0,5.1787,5.1787,5.1787,5.1787,5.1787,5.1787,5.1787,5.1787,5.1787,5.1787,5.1618,5.1281,5.0719,5.0101,4.9426,4.8893,4.8583,4.8555,0.0,4.9202,4.9483,4.982,5.0129,5.0354,5.0354,5.0522,5.0775,5.0775,5.0775,5.0775,5.0775,5.0775,5.0663,5.0129,4.996,4.9904,4.9539,4.9454,4.937,4.9033,4.8506,4.7984,4.7322,4.6786,4.6193,4.5302,4.5114,4.5062,4.4774,4.4722,4.4722,4.4722,4.4722,4.4722,4.4722,4.4722,4.4722,4.4722,4.4722,4.4722,4.4722,4.4722,4.4722,4.4722,4.4722,4.4722,4.4722,4.4722,4.4722,4.4722,4.4613,4.4422,4.4313,4.4203,4.3727,4.2812,4.1422,3.9985,3.8508,3.6947,3.5376,3.4005,3.3813,3.3388,4.9669,4.9669,4.9669,4.9669,4.9669,4.9669,4.9669,4.9669,4.9669,4.9669,4.9669,4.9669,4.9669,4.9277,4.9009,4.9207,4.881,4.8509,4.8509,4.8509,4.8607,4.8864,4.9539,5.0185,5.0691,5.1393,5.1787,5.1787,5.1787,5.1787,5.1787,5.1787,5.1787,5.1787,5.1787,5.1787,5.1787,5.1702,5.1618,5.1534,5.0382,4.9848,4.9792,4.8724,4.8583,4.9174,4.9258,0.0,5.0101,5.0185,5.0522,5.1,5.1,5.1309,5.1787,5.1787,5.1787,5.1787,5.1787,5.1787,5.1618,5.055,5.0213,5.0185,5.0101,5.0073,5.0073,4.9988,4.9537,4.8976,4.8301,4.7754,4.7096,4.5957,4.5741,4.5611,4.5062,4.4905,4.4826,4.4748,4.4722,4.4722,4.4722,4.4722,4.4722,4.4722,4.4722,4.4722,4.4722,4.4722,4.4722,4.4722,4.4722,4.4722,4.4722,4.4722,4.4722,4.4613,4.4422,4.4313,4.4203,4.3764,4.3203,4.2393,4.0964,3.9325,3.7588,3.5905,3.4538,3.3451,3.3016,3.2809,4.9669,4.9669,4.9669,4.9669,4.9669,4.9669,4.9669,4.9669,4.9669,4.9669,4.9669,4.9669,4.9669,4.9277,4.8909,4.9009,4.8509,4.8207,4.8207,4.8207,4.8162,4.8274,4.9286,4.9988,5.0101,5.114,0.0,0.0,0.0,5.1787,5.1787,5.1787,5.1787,5.1787,5.1787,5.1787,5.1787,5.1281,5.0775,5.0269,4.9539,4.9202,4.9202,4.8977,4.9202,4.982,5.0326,0.0,5.0747,5.1253,5.1534,5.1618,5.1618,5.1702,5.1787,5.1787,5.1787,5.1787,5.1787,5.1787,5.1759,5.1534,5.1478,5.1365,5.0859,5.0719,5.0607,5.0101,4.9537,4.8976,4.8301,4.7754,4.7203,4.6455,4.6316,4.629,4.6212,4.582,4.5323,4.4826,4.4722,4.4722,4.4722,4.4722,4.4722,4.4722,4.4722,4.4722,4.4722,4.4722,4.4722,4.4722,4.4722,4.4722,4.4722,4.4722,4.4613,4.4422,4.4313,4.4094,4.3628,4.2463,4.1736,4.1322,3.9055,3.7532,3.6832,3.5487,3.456,3.3927,3.3472,3.3265,4.9669,4.9669,4.9669,4.9669,4.9669,4.9669,4.9669,4.9669,4.9669,4.9669,4.9669,4.9669,4.9669,4.9277,4.8909,4.8909,4.8409,4.8134,4.8134,4.8134,4.8246,4.8555,4.9398,5.0073,5.041,5.1253,5.1787,5.1787,0.0,5.1787,5.1787,5.1787,5.1787,5.1787,5.1478,5.1309,5.1309,5.0691,5.0241,4.996,4.9651,4.9511,4.9511,4.9511,4.9848,5.0438,5.0747,0.0,5.1365,5.1674,5.1787,5.1787,5.1787,5.1787,5.1787,5.1787,5.1787,5.1787,5.1787,5.1787,5.1787,5.1787,5.1787,5.1731,5.145,5.112,5.0847,5.0568,5.0022,4.9474,4.8807,4.8471,4.8053,4.711,4.6682,4.6395,4.6107,4.582,4.5454,4.4853,4.4722,4.4722,4.4722,4.4722,4.4722,4.4722,4.4722,4.4722,4.4722,4.4722,4.4722,4.4722,4.4722,4.4722,4.4722,4.4505,4.4422,4.4313,4.3984,4.3738,4.3381,4.2012,4.1191,4.11,3.8602,3.7199,3.6981,3.5444,3.4652,3.4403,3.3948,3.3741,4.9669,4.9669,4.9669,4.9669,4.9669,4.9669,4.9669,4.9669,4.9669,4.9571,4.9669,4.9669,4.9571,4.9178,4.8909,4.881,4.8409,4.8134,4.8134,4.8134,4.8302,4.878,4.9398,5.0016,5.0607,5.1225,0.0,5.1787,0.0,0.0,5.1787,5.1787,5.1787,5.1787,5.1309,5.1056,5.1056,5.0466,5.0101,4.996,4.996,4.996,4.996,5.0101,5.0494,5.1056,5.1056,0.0,0.0,5.1787,5.1787,5.1787,5.1787,5.1787,5.1787,5.1787,5.1787,5.1787,5.1787,5.1787,5.1787,5.1787,5.1787,5.1787,5.1677,5.1238,5.0906,5.0795,5.0348,4.9897,4.9301,4.9072,4.8851,4.7738,4.7179,4.6682,4.6107,4.5898,4.5637,4.5036,4.4826,4.4722,4.4722,4.4722,4.4722,4.4722,4.4722,4.4722,4.4722,4.4722,4.4722,4.4722,4.4722,4.4722,4.4613,4.4422,4.4203,4.4094,4.3628,4.327,4.2936,4.1444,4.05,4.0268,3.8007,3.6946,3.6946,3.5533,3.49,3.49,3.4424,3.4217,4.9669,4.9669,4.9669,4.9669,4.9669,4.9669,4.9669,4.9669,4.9571,4.9404,4.9502,4.9571,4.9108,4.8909,4.881,4.8581,4.8308,4.8134,4.8134,4.8134,4.8134,4.8218,4.8752,4.937,4.9988,5.0607,5.1197,0.0,0.0,0.0,5.1787,5.1787,5.1787,5.1787,5.1731,5.1702,5.1702,5.1084,5.0494,4.996,4.996,4.996,4.9988,5.055,5.114,5.1702,5.1702,0.0,0.0,5.1787,5.1787,5.1787,5.1787,5.1787,5.1787,5.1787,5.1787,5.1787,5.1787,5.1787,5.1787,5.1787,5.1787,5.1677,5.1128,5.0906,5.0795,5.0235,5.001,4.9897,4.9301,4.9072,4.8957,4.8236,4.8068,4.7885,4.731,4.6761,4.6238,4.5663,4.5114,4.4722,4.4722,4.4722,4.4722,4.4722,4.4722,4.4722,4.4722,4.4722,4.4722,4.4722,4.4722,4.4613,4.4313,4.4313,4.4094,4.3517,4.3406,4.2824,4.1329,4.0036,3.8862,3.7648,3.6237,3.5541,3.5541,3.5376,3.5355,3.5355,3.49,3.4693,4.9669,4.9669,4.9669,4.9669,4.9669,4.9669,4.9669,4.9669,4.9669,4.9571,4.9502,4.9404,4.9207,4.8909,4.8581,4.8481,4.8308,4.8134,4.8134,4.8134,4.8134,4.8134,4.8668,4.9145,0.0,0.0,5.114,0.0,0.0,0.0,5.1787,5.1787,5.1787,5.1787,5.1421,5.1253,5.1253,5.0635,5.0213,4.996,5.0326,5.0494,5.0522,5.114,5.1562,5.1787,5.1787,0.0,0.0,5.1787,5.1787,5.1787,5.1787,5.1787,5.1787,5.1787,5.1787,5.1787,5.1787,5.1787,5.1787,5.1787,5.1568,5.1238,5.1017,5.0683,5.0235,4.9643,4.9213,4.8868,4.8637,4.8521,4.8521,4.8289,4.8172,4.8015,4.7466,4.6891,4.6316,4.5741,4.514,4.4722,4.4722,4.4722,4.4722,4.4722,4.4722,4.4722,4.4722,4.4722,4.4613,4.4531,4.4422,4.4422,4.4313,4.3958,4.3628,4.3406,4.2463,4.1785,4.11,3.9098,3.779,3.7309,3.6013,3.5418,3.5418,3.5418,3.5418,3.5418,3.5252,3.5148,4.9669,4.9669,4.9669,4.9669,4.9669,4.9669,4.9669,4.9669,4.9669,4.9473,4.9404,4.9207,4.9009,4.871,4.8481,4.838,4.8207,4.8134,4.8134,4.8134,4.8134,4.8134,0.0,4.8836,0.0,5.0157,0.0,0.0,0.0,0.0,5.1787,5.1787,5.1787,5.1787,5.1365,5.114,5.114,5.0719,5.041,5.0241,5.0859,5.1056,5.0888,5.1506,5.1787,5.1787,5.1787,0.0,0.0,5.1787,5.1787,5.1787,5.1787,5.1787,5.1787,5.1787,5.1787,5.1787,5.1787,5.1787,5.1787,5.1787,5.1458,5.1128,5.0795,5.0235,4.967,4.8957,4.8521,4.8172,4.8172,4.8172,4.8172,4.8172,4.8172,4.8068,4.7675,4.6996,4.6342,4.595,4.5245,4.4722,4.4722,4.4722,4.4722,4.4722,4.4722,4.4722,4.4722,4.4613,4.4531,4.4313,4.4203,4.4094,4.4094,4.3628,4.3406,4.3295,4.1899,4.0985,4.05,3.8484,3.7067,3.6724,3.589,3.5418,3.5418,3.5418,3.5418,3.5418,3.5418,3.5418,4.9669,4.9669,4.9669,4.9669,4.9669,4.9669,4.9669,4.9669,4.9571,4.9009,4.9108,4.9009,4.8235,4.8308,4.8409,4.8134,4.8134,4.8134,4.8134,4.8134,4.8134,4.8134,4.8134,4.8359,4.8977,5.0157,0.0,0.0,0.0,0.0,5.1787,5.1787,5.1787,5.1787,5.1787,5.1787,5.1787,5.1759,5.145,5.0859,5.1478,5.145,5.0888,5.1506,5.1787,0.0,0.0,0.0,0.0,5.1787,5.1787,5.1787,5.1787,5.1787,5.1787,5.1787,5.1787,5.1787,5.1787,5.1787,5.1787,5.1787,5.1787,5.1568,5.0348,4.9556,4.8957,4.8405,4.8172,4.8172,4.8172,4.8172,4.8172,4.8172,4.8172,4.8172,4.8172,4.7283,4.6473,4.6473,4.5532,4.4722,4.4722,4.4722,4.4722,4.4722,4.4722,4.4722,4.4722,4.4531,4.4313,4.4313,4.3738,4.3381,4.3381,4.3381,4.3295,4.2986,4.181,4.05,3.9216,3.8029,3.6724,3.5418,3.5418,3.5418,3.5418,3.5418,3.5418,3.5418,3.5418,3.5418,4.9669,4.9669,4.9669,4.9669,4.9669,4.9669,4.9669,4.9669,4.9571,4.9207,4.9108,4.8909,4.8509,4.8308,4.8207,4.8134,4.8134,4.8134,4.8134,4.8134,4.8134,4.8134,4.8134,4.8359,0.0,0.0,0.0,0.0,0.0,0.0,5.1787,5.1787,5.1787,5.1787,5.1787,5.1787,5.1787,5.1787,5.1674,5.1506,5.1702,5.1674,5.1506,5.1702,5.1787,0.0,0.0,0.0,0.0,5.1787,5.1787,5.1787,5.1787,5.1787,5.1787,5.1787,5.1787,5.1787,5.1787,5.1787,5.1787,5.1787,5.1238,5.046,5.0123,4.9897,4.9556,4.8521,4.8172,4.8172,4.8172,4.8172,4.8172,4.8172,4.8172,4.8068,4.7675,4.7022,4.6369,4.5976,4.5271,4.4722,4.4722,4.4722,4.4722,4.4722,4.4722,4.4613,4.4422,4.4313,4.4203,4.3738,4.3517,4.3381,4.3381,4.2463,4.1785,4.1696,3.9663,3.8365,3.791,3.6724,3.5767,3.5418,3.5418,3.5418,3.5418,3.5418,3.5418,3.5418,3.5418,3.5418,4.96,4.9571,4.9669,4.9571,4.9571,4.9669,4.9669,4.9571,4.9502,4.9207,4.8909,4.871,4.8409,4.8207,4.8134,4.8134,4.8134,4.8134,4.8134,4.8134,0.0,4.8134,0.0,0.0,0.0,0.0,0.0,0.0,0.0,0.0,5.1787,5.1787,5.1787,5.1787,5.1787,5.1787,5.1787,5.1787,5.1674,5.145,5.1674,5.1674,5.145,5.1674,5.1787,0.0,0.0,0.0,0.0,5.1787,5.1787,5.1787,5.1787,5.1787,5.1787,5.1787,5.1787,5.1787,5.1787,5.1787,5.1787,5.1568,5.0683,4.967,4.967,4.9556,4.9213,4.8405,4.8172,4.8172,4.8172,4.8172,4.8172,4.8172,4.8172,4.8015,4.7466,4.6891,4.6316,4.5741,4.514,4.4722,4.4722,4.4722,4.4722,4.4722,4.4613,4.4531,4.4313,4.4094,4.3848,4.3406,4.3295,4.3048,4.26,4.1672,4.11,4.11,3.8721,3.7309,3.7309,3.6135,3.5418,3.5418,3.5418,3.5418,3.5418,3.5418,3.5418,3.5418,3.5418,3.5418,0.0,4.9502,4.9571,4.9305,4.9502,4.9669,4.9669,4.9502,0.0,4.8909,4.8681,4.8409,4.8134,4.8134,4.8134,4.8134,4.8134,4.8134,4.8134,4.8134,0.0,0.0,4.8134,0.0,0.0,0.0,0.0,0.0,0.0,0.0,5.1787,5.1787,5.1787,5.1787,5.1759,5.1731,5.1731,5.1731,5.1421,5.0803,5.1421,5.1421,5.0888,5.1506,5.1787,0.0,0.0,0.0,0.0,5.1787,5.1787,5.1787,5.1787,5.1787,5.1787,5.1787,5.1787,5.1787,5.1787,5.1787,5.1677,5.1017,5.0123,4.9125,4.9072,4.8637,4.8172,4.8172,4.8172,4.8172,4.8172,4.8172,4.8172,4.8172,4.8146,4.7963,4.7388,4.6813,4.6264,4.5663,4.5114,4.4722,4.4722,4.4722,4.4722,4.4722,4.4531,4.4313,4.4313,4.3738,4.3381,4.3406,4.3073,4.24,4.1215,4.0985,4.0985,4.087,3.8484,3.7188,3.7188,3.6013,3.5418,3.5418,3.5418,3.5418,3.5418,3.5418,3.5418,3.5418,3.5418,3.5418,4.9108,0.0,4.9305,4.9108,4.9009,4.9079,0.0,4.9207,4.9009,4.8909,4.8681,4.8409,4.8134,4.8134,4.8134,4.8134,4.8134,4.8134,4.8134,4.8134,0.0,4.8134,4.8134,0.0,0.0,0.0,0.0,0.0,0.0,5.1281,5.1759,5.1787,5.1787,5.1787,5.1337,5.1084,5.1084,5.1084,5.0775,5.0185,5.0803,5.1028,5.0888,5.1506,5.1787,0.0,0.0,0.0,5.1787,5.1787,5.1787,5.1787,5.1787,5.1787,5.1787,5.1787,5.1787,5.1787,5.1787,5.1787,5.1568,5.0572,5.001,4.967,4.8637,4.8289,4.8172,4.8172,4.8172,4.8172,4.8172,4.8172,4.8172,4.8172,4.7858,4.7388,4.6813,4.6238,4.5663,4.5062,4.4826,4.4722,4.4722,4.4722,4.4722,4.4722,4.4531,4.4203,4.401,4.3653,4.3295,4.3073,4.215,4.1444,4.11,4.0152,3.9216,3.8246,3.6724,3.589,3.589,3.5541,3.5418,3.5418,3.5418,3.5418,3.5418,3.5418,3.5418,3.5418,3.5418,3.5418,4.9009,4.9009,4.9009,4.881,4.8909,4.9108,4.9108,4.9009,4.8909,4.8681,4.8509,4.8308,4.8134,4.8134,4.8134,4.8134,4.8134,4.8134,4.8134,0.0,4.8134,4.8134,4.8134,0.0,0.0,0.0,0.0,0.0,0.0,5.1028,5.1337,5.1365,5.1365,5.1365,5.0775,5.0578,5.0859,5.0607,5.0157,4.9539,5.0438,5.0719,5.0494,5.1393,5.1787,0.0,0.0,0.0,5.1787,5.1787,5.1787,5.1787,5.1787,5.1787,5.1787,5.1787,5.1787,5.1787,5.1787,5.1458,5.0906,5.0235,4.967,4.9098,4.8405,4.8172,4.8172,4.8172,4.8172,4.8172,4.8172,4.8172,4.812,4.7858,4.7571,4.71,4.6264,4.5846,4.5454,4.4853,4.4722,4.4722,4.4722,4.4613,4.4531,4.4531,4.4177,4.3848,4.3653,4.3406,4.2961,4.215,4.1558,4.0616,3.9428,3.8721,3.8029,3.7309,3.6135,3.5418,3.5418,3.5418,3.5418,3.5418,3.5418,3.5418,3.5418,3.5418,3.5418,3.5418,3.5418,3.5418,4.8909,4.881,4.871,4.8581,4.881,4.9108,4.8909,4.881,4.871,4.8581,4.8308,4.8134,4.8134,4.8134,4.8134,4.8134,4.8134,4.8134,4.8134,4.8134,4.8134,4.8134,0.0,0.0,0.0,0.0,0.0,0.0,0.0,5.0635,5.0719,5.0719,5.0719,5.0719,5.0129,5.0073,5.0578,5.0073,4.9511,4.8921,5.0045,5.0382,4.9988,5.114,5.1702,5.1787,0.0,0.0,5.1787,5.1787,5.1787,5.1787,5.1787,5.1787,5.1787,5.1787,5.1787,5.1787,5.1677,5.0906,5.001,4.9897,4.9213,4.8289,4.8172,4.8172,4.8172,4.8172,4.8172,4.8172,4.8172,4.812,4.7937,4.744,4.7205,4.6813,4.5846,4.5558,4.5349,4.4826,4.4722,4.4722,4.4722,4.4531,4.4313,4.4313,4.3738,4.3381,4.3381,4.2961,4.2263,4.1215,4.0731,3.9663,3.7528,3.7067,3.7067,3.7067,3.6013,3.5418,3.5418,3.5418,3.5418,3.5418,3.5418,3.5418,3.5418,3.5418,3.5418,3.5418,3.5418,3.5418,4.8909,4.861,4.8308,4.8481,4.8581,4.8681,4.8909,4.8509,4.8308,4.8481,4.8308,4.8134,4.8134,4.8134,4.8134,0.0,0.0,4.8134,0.0,0.0,4.8134,0.0,0.0,0.0,0.0,0.0,0.0,0.0,0.0,4.9539,5.0073,5.0101,5.0101,5.0101,4.9511,4.923,4.9314,4.923,4.8864,4.8274,4.8977,4.9539,4.9988,5.0691,5.1309,5.1787,0.0,5.1787,5.1787,5.1787,5.1787,5.1787,5.1787,5.1787,5.1787,5.1787,5.1787,5.1677,5.1238,5.0572,4.9897,4.9415,4.9072,4.8842,4.8289,4.8172,4.8172,4.8172,4.8172,4.8172,4.8172,4.7832,4.744,4.7362,4.6604,4.5846,4.5663,4.5218,4.4826,4.4748,4.4722,4.4722,4.4722,4.4531,4.4313,4.4313,4.3738,4.3381,4.3381,4.2238,4.1329,4.11,3.9193,3.7768,3.7309,3.6359,3.5665,3.5665,3.5541,3.5418,3.5418,3.5418,3.5418,3.5418,3.5418,3.5418,3.5418,3.5418,3.5418,3.5418,3.5418,3.5418,4.881,4.871,4.8509,4.8481,4.8481,4.8481,4.8509,4.8409,4.8308,4.8308,4.8207,4.8134,4.8134,0.0,4.8134,4.8134,0.0,4.8134,0.0,0.0,0.0,0.0,0.0,0.0,0.0,0.0,0.0,0.0,0.0,0.0,4.9454,4.9454,4.9454,4.9454,4.8864,4.8555,4.8555,4.8555,4.8387,4.8134,4.8752,4.937,4.9988,5.0578,5.1197,5.1787,0.0,5.1787,5.1787,5.1787,5.1787,5.1787,5.1787,5.1787,5.1787,5.1787,5.1787,5.1677,5.1128,5.046,4.9897,4.9301,4.8842,4.8521,4.8289,4.8172,4.8172,4.8172,4.8172,4.812,4.7806,4.7545,4.7179,4.6552,4.6003,4.5532,4.5218,4.4931,4.4722,4.4722,4.4722,4.4613,4.4531,4.4203,4.3984,4.3848,4.3406,4.3184,4.3184,4.1899,4.087,4.0152,3.8365,3.7067,3.6359,3.5767,3.5418,3.5418,3.5418,3.5418,3.5418,3.5418,3.5418,3.5418,3.5418,3.5418,3.5418,3.5418,3.5418,3.5418,3.5418,3.5418,4.881,4.8909,4.8681,4.8509,4.8481,4.8481,4.8207,4.8308,4.8308,4.8134,4.8134,4.8134,4.8134,4.8134,0.0,4.8134,4.8134,0.0,0.0,0.0,0.0,0.0,0.0,0.0,0.0,0.0,0.0,0.0,0.0,0.0,4.8836,4.8836,4.8836,4.8836,4.8359,4.8134,4.8134,4.8134,4.8134,4.8134,4.8612,4.9145,4.9764,5.0382,5.1,5.159,5.1731,5.1787,5.1787,5.1787,5.1787,5.1787,5.1787,5.1787,5.1787,5.1787,5.1568,5.1348,5.0906,5.0235,4.9556,4.9098,4.8637,4.8172,4.8172,4.8172,4.8146,4.8015,4.7989,4.7885,4.744,4.7127,4.6708,4.5846,4.5506,4.5297,4.4826,4.4722,4.4722,4.4722,4.4722,4.4613,4.4313,4.4119,4.3789,4.3406,4.3184,4.2849,4.2625,4.1444,4.0152,3.8862,3.767,3.6481,3.5541,3.5418,3.5418,3.5418,3.5418,3.5418,3.5418,3.5418,3.5418,3.5418,3.5418,3.5418,3.5418,3.5418,3.548,3.5583,3.5583,3.5645,4.881,4.8681,4.8481,4.8207,4.8509,4.881,4.8481,4.8308,4.8134,4.8134,4.8134,4.8134,4.8134,4.8134,4.8134,4.8134,4.8134,0.0,0.0,0.0,0.0,0.0,0.0,0.0,0.0,0.0,0.0,0.0,0.0,0.0,4.819,4.819,4.819,4.819,4.8134,4.8134,4.8134,4.8134,4.8134,4.8134,4.8162,4.8499,4.9117,4.9735,5.0354,5.0972,5.1534,5.1787,5.1787,5.1787,5.1787,5.1787,5.1787,5.1787,5.1787,5.1787,5.1128,5.0123,5.0123,4.9328,4.8289,4.8289,4.8172,4.8172,4.8172,4.8172,4.8068,4.7545,4.7388,4.7388,4.7336,4.6552,4.5715,4.5637,4.5192,4.4774,4.4748,4.4722,4.4722,4.4722,4.4722,4.4613,4.4313,4.4119,4.3789,4.3406,4.3184,4.2625,4.1329,4.0152,3.8862,3.7528,3.6237,3.5541,3.5418,3.5418,3.5418,3.5418,3.5418,3.5418,3.5418,3.5418,3.5418,3.5418,3.5418,3.5418,3.5418,3.5418,3.5645,3.6059,3.6059,3.6287,4.881,4.8681,4.8481,4.8409,4.8509,4.8581,4.8308,4.8207,4.8134,4.8134,4.8134,4.8134,4.8134,0.0,4.8134,4.8134,4.8134,0.0,0.0,0.0,0.0,0.0,0.0,0.0,0.0,0.0,0.0,0.0,0.0,0.0,4.8134,4.8134,4.8134,4.8134,4.8134,4.8134,4.8134,4.8134,4.8134,4.8134,4.8134,4.8443,4.9061,4.9286,4.9735,5.0326,5.0944,5.1225,5.1253,5.1646,5.1787,5.1787,5.1787,5.1787,5.1787,5.1787,5.1238,5.046,5.0123,4.9442,4.8663,4.8289,4.8172,4.8172,4.8172,4.7937,4.7597,4.7388,4.6813,4.6264,4.6264,4.595,4.5532,4.5166,4.4905,4.4722,4.4722,4.4722,4.4722,4.4722,4.4505,4.4422,4.4119,4.3764,4.3517,4.3184,4.2375,4.1672,4.1215,3.9311,3.7768,3.7287,3.6135,3.5418,3.5418,3.5418,3.5418,3.5418,3.5418,3.5418,3.5418,3.5418,3.5562,3.5852,3.5852,3.5997,3.6287,3.6287,3.637,3.6535,3.6535,3.6639,4.8681,4.8581,4.8481,4.838,4.8409,4.8409,4.8106,4.8134,4.8134,4.8134,4.8134,4.8134,4.8134,0.0,0.0,0.0,0.0,0.0,0.0,0.0,0.0,0.0,0.0,0.0,0.0,0.0,0.0,0.0,0.0,0.0,0.0,4.8134,4.8134,4.8134,4.8134,4.8134,4.8134,4.8134,4.8134,4.8134,4.8134,4.8359,4.8752,4.8949,4.9258,4.9707,5.0326,5.0578,5.0635,5.1253,5.1618,5.1787,5.1787,5.1787,5.1787,5.1568,5.1128,5.0572,4.9897,4.9328,4.8779,4.8289,4.8068,4.7911,4.7911,4.7519,4.7022,4.6839,4.6238,4.5584,4.5401,4.5349,4.5245,4.4826,4.4722,4.4722,4.4722,4.4722,4.4722,4.4722,4.4531,4.4203,4.3899,4.3653,4.3295,4.3098,4.1923,4.0985,4.05,3.8602,3.7188,3.6703,3.589,3.5418,3.5418,3.5418,3.548,3.5625,3.5645,3.5645,3.5645,3.5769,3.5997,3.6328,3.6328,3.6494,3.6804,3.6804,3.6887,3.7032,3.7032,3.7094,4.8481,4.8481,4.8409,4.8207,4.8308,4.8409,4.8106,4.8134,4.8134,4.8134,4.8134,4.8134,4.8134,4.8134,0.0,0.0,0.0,0.0,0.0,0.0,0.0,0.0,0.0,0.0,0.0,0.0,0.0,0.0,0.0,0.0,0.0,4.8134,4.8134,4.8134,4.8134,4.8134,4.8134,4.8134,4.8134,4.8134,4.8134,4.8134,4.8134,4.8752,4.9033,4.9061,4.9679,4.996,4.9988,5.0607,5.1225,5.1759,5.1759,5.1787,5.1649,5.11,5.0544,4.987,4.9301,4.8726,4.8172,4.8172,4.778,4.7336,4.7336,4.6917,4.6342,4.5794,4.5637,4.548,4.4879,4.4722,4.4722,4.4722,4.4722,4.4722,4.4722,4.4722,4.4722,4.4722,4.4531,4.4203,4.3899,4.3653,4.3295,4.2961,4.1923,4.0639,3.9334,3.8029,3.6824,3.5541,3.5418,3.5418,3.5418,3.5418,3.5625,3.608,3.6121,3.6121,3.6121,3.6556,3.6804,3.6804,3.6804,3.6804,3.6825,3.6825,3.7053,3.7508,3.7508,3.7757,4.881,4.8581,4.8481,4.861,4.8409,4.8207,4.8134,4.8134,4.8134,4.8134,4.8134,4.8134,4.8134,4.8134,0.0,0.0,0.0,0.0,0.0,0.0,0.0,0.0,0.0,0.0,0.0,0.0,0.0,0.0,0.0,0.0,0.0,4.8134,4.8134,4.8134,4.8134,4.8134,4.8134,4.8134,4.8134,4.8134,4.8134,4.8134,4.8134,4.8331,4.8387,4.8443,4.9033,4.9314,4.937,4.9988,5.0326,5.0494,5.0494,5.0281,4.9852,4.9744,4.8954,4.8181,4.7958,4.7536,4.697,4.697,4.6865,4.6734,4.6734,4.6342,4.5846,4.5663,4.5323,4.4957,4.4774,4.4722,4.4722,4.4722,4.4722,4.4722,4.4722,4.4722,4.4613,4.4422,4.4203,4.3874,4.3628,4.3295,4.2849,4.181,4.0616,3.898,3.6846,3.6258,3.5767,3.5418,3.5418,3.5418,3.5418,3.5728,3.5976,3.6101,3.6722,3.6929,3.6618,3.6722,3.6949,3.7281,3.7281,3.7446,3.7777,3.7777,3.7839,3.7984,3.7984,3.8046,4.861,4.8509,4.8409,4.8509,4.8308,4.8134,4.8134,4.8134,4.8134,4.8134,4.8134,4.8134,4.8134,4.8134,0.0,0.0,0.0,0.0,0.0,0.0,0.0,0.0,0.0,0.0,0.0,0.0,0.0,0.0,0.0,0.0,0.0,4.8134,4.8134,4.8134,4.8134,4.8134,4.8134,4.8134,4.8134,4.8134,4.8134,4.8134,4.8134,4.8134,4.8134,4.8134,4.8499,4.8808,4.9061,4.9454,4.9735,4.996,4.996,4.9643,4.9111,4.8868,4.8219,4.734,4.7118,4.681,4.6473,4.6473,4.6316,4.6133,4.6133,4.5741,4.5271,4.5271,4.5009,4.4722,4.4722,4.4722,4.4722,4.4722,4.4722,4.4722,4.4722,4.4722,4.4613,4.4313,4.4119,4.3764,4.3517,4.3184,4.2625,4.1329,3.9569,3.767,3.5665,3.5418,3.5418,3.5418,3.5418,3.55,3.5687,3.5956,3.6266,3.6639,3.7177,3.7446,3.7363,3.7343,3.7488,3.7757,3.7777,3.7902,3.8191,3.8191,3.8191,3.8191,3.8191,3.8191,4.8207,4.8134,4.8134,4.8134,4.8134,4.8134,4.8134,4.8134,4.8134,4.8134,0.0,4.8134,4.8134,4.8134,0.0,0.0,0.0,0.0,0.0,0.0,0.0,0.0,0.0,0.0,0.0,0.0,0.0,0.0,0.0,0.0,0.0,4.8134,4.8134,4.8134,4.8134,4.8134,4.8134,4.8134,4.8134,4.8134,4.8134,4.8134,4.8134,4.8134,4.8134,4.8134,4.8134,4.8443,4.8949,4.8949,4.9286,4.9792,4.9792,4.937,4.881,4.8137,4.7593,4.707,4.654,4.6316,4.6316,4.6316,4.5976,4.5558,4.5558,4.5166,4.4722,4.4722,4.4722,4.4722,4.4722,4.4722,4.4722,4.4722,4.4722,4.4722,4.4722,4.4722,4.4613,4.4313,4.3984,4.3764,4.3406,4.3073,4.2375,4.0961,3.8721,3.6724,3.5541,3.5418,3.5418,3.5418,3.5418,3.5604,3.608,3.6142,3.6556,3.7446,3.7529,3.7757,3.8171,3.8191,3.8191,3.8191,3.8191,3.8191,3.8191,3.8191,3.8191,3.8191,3.8191,3.8191,4.871,4.861,4.8409,4.8409,4.8207,4.8134,4.8134,4.8134,4.8134,4.8134,4.8134,4.8134,4.8134,0.0,0.0,0.0,0.0,0.0,0.0,0.0,0.0,0.0,0.0,0.0,0.0,0.0,0.0,0.0,0.0,0.0,4.8134,4.8134,4.8134,4.8134,4.8134,4.8134,4.8134,4.8134,4.8134,0.0,4.8134,4.8134,4.8134,4.8134,4.8134,4.8134,4.8134,4.819,4.8331,4.8331,4.8387,4.8425,4.8013,4.7466,4.6914,4.6383,4.5739,4.5306,4.5088,4.5114,4.5114,4.5114,4.5009,4.4931,4.4931,4.4826,4.4722,4.4722,4.4722,4.4722,4.4722,4.4722,4.4722,4.4722,4.4722,4.4722,4.4722,4.4531,4.4313,4.401,4.3764,4.3406,4.3073,4.2263,4.0731,3.8484,3.6846,3.5644,3.5418,3.5418,3.5418,3.5418,3.5418,3.5604,3.608,3.6453,3.6887,3.7446,3.7839,3.8088,3.8171,3.8191,3.8191,3.8191,3.8191,3.8191,3.8191,3.8191,3.8191,3.8191,3.8191,3.8191,4.8681,4.8509,4.8308,4.8308,4.8207,4.8134,4.8134,4.8134,4.8134,4.8134,4.8134,4.8134,4.8134,0.0,0.0,0.0,0.0,0.0,0.0,0.0,0.0,0.0,0.0,0.0,0.0,0.0,0.0,0.0,0.0,4.8134,4.8134,4.8134,4.8134,4.8134,4.8134,4.8134,4.8134,4.8134,4.8134,4.8134,4.8134,4.8134,4.8134,4.8134,4.8134,4.8134,4.8134,4.8134,4.8134,4.8134,4.7931,4.7726,4.7391,4.6769,4.6007,4.5715,4.5261,4.4722,4.4722,4.4722,4.4722,4.4722,4.4722,4.4722,4.4722,4.4722,4.4722,4.4722,4.4722,4.4722,4.4722,4.4722,4.4722,4.4722,4.4722,4.4722,4.4722,4.4531,4.4203,4.3899,4.3653,4.3295,4.3073,4.1444,3.9569,3.755,3.6237,3.5418,3.5418,3.5418,3.5418,3.5418,3.5418,3.5707,3.639,3.666,3.7094,3.7777,3.8046,3.8191,3.8191,3.8191,3.8191,3.8191,3.8191,3.8191,3.8191,3.8191,3.8191,3.8191,3.8191,3.8191,4.8581,4.8308,4.8134,4.8134,4.8134,4.8134,4.8134,4.8134,4.8134,4.8134,4.8134,4.8134,0.0,0.0,0.0,0.0,0.0,0.0,0.0,0.0,0.0,0.0,0.0,0.0,0.0,0.0,0.0,0.0,0.0,4.8134,4.8134,4.8134,4.8134,4.8134,4.8134,4.8134,4.8134,4.8134,4.8134,4.8134,4.8134,4.8134,4.8134,4.8134,4.8134,4.8134,4.8134,4.8134,4.8134,4.8134,4.7829,4.7288,4.7184,4.656,4.5609,4.5475,4.5154,4.4722,4.4722,4.4722,4.4722,4.4722,4.4722,4.4722,4.4722,4.4722,4.4722,4.4722,4.4722,4.4722,4.4722,4.4722,4.4722,4.4722,4.4722,4.4722,4.4722,4.4422,4.4203,4.3899,4.3653,4.3159,4.2488,4.0639,3.8744,3.7188,3.6135,3.5418,3.5418,3.5418,3.5418,3.5418,3.5418,3.579,3.6722,3.6804,3.7198,3.8129,3.8191,3.8191,3.8191,3.8191,3.8191,3.8191,3.8191,3.8191,3.8191,3.8191,3.8191,3.8191,3.8191,3.8191,4.8909,4.8509,4.8134,4.8134,4.8134,4.8134,4.8134,4.8134,4.8134,0.0,4.8134,0.0,0.0,0.0,0.0,0.0,0.0,0.0,0.0,0.0,0.0,0.0,0.0,0.0,0.0,0.0,0.0,0.0,4.8134,4.8134,4.8134,4.8134,4.8134,4.8134,4.8134,4.8134,4.8134,4.8134,4.8134,4.8134,4.8134,4.8134,4.8134,4.8134,4.8134,4.8134,4.8134,4.8134,4.8134,4.8134,4.7829,4.7288,4.6742,4.6112,4.5502,4.5046,4.4722,4.4722,4.4722,4.4722,4.4722,4.4722,4.4722,4.4722,4.4722,4.4722,4.4722,4.4722,4.4722,4.4722,4.4722,4.4722,4.4722,4.4722,4.4722,4.4722,4.4722,4.4313,4.3899,4.3899,4.3432,4.2375,4.0036,3.9451,3.8387,3.6013,3.5541,3.5418,3.5418,3.5418,3.5418,3.5418,3.5418,3.579,3.6722,3.6804,3.7198,3.8129,3.8191,3.8191,3.8191,3.8191,3.8191,3.8191,3.8191,3.8191,3.8191,3.8191,3.8191,3.8191,3.8191,3.8191,4.881,4.8409,4.8134,4.8134,4.8134,4.8134,4.8134,4.8134,4.8134,4.8134,4.8134,0.0,0.0,0.0,0.0,0.0,0.0,0.0,0.0,0.0,0.0,0.0,0.0,0.0,0.0,0.0,0.0,0.0,4.8134,4.8134,4.8134,4.8134,4.8134,4.8134,4.8134,4.8134,4.8134,4.8134,4.8134,4.8134,4.8134,4.8134,4.8134,4.8134,4.8134,4.8134,4.8134,4.8134,4.8134,4.7829,4.7288,4.6742,4.6112,4.5582,4.5046,4.483,4.4722,4.4722,4.4722,4.4722,4.4722,4.4722,4.4722,4.4722,4.4722,4.4722,4.4722,4.4722,4.4722,4.4722,4.4722,4.4722,4.4722,4.4722,4.4722,4.4613,4.4531,4.4203,4.3789,4.3432,4.2625,4.1329,3.9569,3.8625,3.755,3.5665,3.5418,3.5418,3.5418,3.5418,3.5418,3.5418,3.5418,3.579,3.6722,3.6804,3.7198,3.8129,3.8191,3.8191,3.8191,3.8191,3.8191,3.8191,3.8191,3.8191,3.8191,3.8191,3.8191,3.8191,3.8191,3.8191,4.8581,4.8308,4.8134,4.8134,4.8134,4.8134,4.8134,0.0,4.8134,0.0,0.0,0.0,0.0,0.0,0.0,0.0,0.0,0.0,0.0,0.0,0.0,0.0,0.0,0.0,0.0,0.0,0.0,0.0,4.8134,4.8134,4.8134,4.8134,4.8134,4.8134,4.8134,4.8134,4.8134,4.8134,4.8134,4.8134,4.8134,4.8134,4.8134,4.8134,4.8134,4.8134,4.8134,4.8134,4.8032,4.7494,4.6977,4.6323,4.5795,4.5261,4.4722,4.4722,4.4722,4.4722,4.4722,4.4722,4.4722,4.4722,4.4722,4.4722,4.4722,4.4722,4.4722,4.4722,4.4722,4.4722,4.4722,4.4722,4.4722,4.4722,4.4722,4.4613,4.4313,4.3984,4.3653,4.3098,4.2263,4.11,3.9451,3.8387,3.7188,3.5665,3.5418,3.5418,3.5418,3.5418,3.5418,3.5418,3.5521,3.5914,3.6742,3.6908,3.7322,3.8129,3.8191,3.8191,3.8191,3.8191,3.8191,3.8191,3.8191,3.8191,3.8191,3.8191,3.8191,3.8191,3.8191,3.8191,4.8581,4.8308,4.8134,4.8134,4.8134,4.8134,0.0,0.0,4.8134,0.0,0.0,0.0,0.0,0.0,0.0,0.0,0.0,0.0,0.0,0.0,0.0,0.0,0.0,0.0,0.0,0.0,0.0,0.0,4.8134,4.8134,4.8134,4.8134,4.8134,4.8134,4.8134,4.8134,4.8134,4.8134,4.8134,4.8134,4.8134,4.8134,4.8134,4.8134,4.8134,4.8134,4.8134,4.8134,4.8032,4.7494,4.6977,4.6323,4.5795,4.5261,4.4722,4.4722,4.4722,4.4722,4.4722,4.4722,4.4722,4.4722,4.4722,4.4722,4.4722,4.4722,4.4722,4.4722,4.4722,4.4722,4.4722,4.4722,4.4722,4.4722,4.4722,4.4505,4.401,4.3653,4.3295,4.3098,4.2986,4.215,3.9569,3.9098,3.8268,3.5767,3.5418,3.5418,3.5418,3.5418,3.5418,3.5418,3.5811,3.6266,3.6763,3.7198,3.7653,3.815,3.8191,3.8191,3.8191,3.8191,3.8191,3.8191,3.8191,3.8191,3.8191,3.8191,3.8191,3.8191,3.8191,3.8191,4.8581,4.8308,4.8134,4.8134,4.8134,4.8134,4.8134,4.8134,4.8134,4.8134,0.0,0.0,0.0,0.0,0.0,0.0,0.0,0.0,0.0,0.0,0.0,0.0,0.0,0.0,0.0,0.0,0.0,0.0,0.0,4.8134,4.8134,4.8134,4.8134,4.8134,4.8134,4.8134,4.8134,4.8134,4.8134,4.8134,4.8134,4.8134,4.8134,4.8134,4.8134,4.8134,4.7726,4.7596,4.7494,4.656,4.6139,4.5795,4.5261,4.483,4.4722,4.4722,4.4722,4.4722,4.4722,4.4722,4.4722,4.4722,4.4722,4.4722,4.4722,4.4722,4.4722,4.4722,4.4722,4.4722,4.4722,4.4722,4.4722,4.4722,4.4422,4.4094,4.3899,4.3543,4.3073,4.2986,4.1672,4.0268,3.9334,3.779,3.6481,3.5541,3.5418,3.5418,3.5418,3.5418,3.5418,3.5418,3.5832,3.6308,3.6763,3.7239,3.7695,3.815,3.8191,3.8191,3.8191,3.8191,3.8191,3.8191,3.8191,3.8191,3.8191,3.8191,3.8191,3.8191,3.8191,3.8191,4.8581,4.8409,4.8207,4.8134,4.8134,4.8134,4.8134,4.8134,4.8134,4.8134,0.0,0.0,0.0,0.0,0.0,0.0,0.0,0.0,0.0,0.0,0.0,0.0,0.0,0.0,0.0,0.0,0.0,0.0,0.0,0.0,4.8134,4.8134,4.8134,4.8134,4.8134,4.8134,4.8134,4.8134,4.8134,4.8134,4.8134,4.8134,4.8134,4.8134,4.8032,4.7829,4.7288,4.7081,4.7184,4.6034,4.5609,4.5502,4.4938,4.4722,4.4722,4.4722,4.4722,4.4722,4.4722,4.4722,4.4722,4.4722,4.4722,4.4722,4.4722,4.4722,4.4722,4.4722,4.4722,4.4722,4.4722,4.4722,4.4722,4.4613,4.4203,4.3899,4.3764,4.3321,4.2986,4.2986,4.1329,3.9686,3.9216,3.7429,3.589,3.5418,3.5418,3.5418,3.5418,3.5418,3.5418,3.5418,3.5976,3.6473,3.6784,3.7363,3.786,3.8171,3.8191,3.8191,3.8191,3.8191,3.8191,3.8191,3.8191,3.8191,3.8191,3.8191,3.8191,3.8191,3.8191,3.777,0.0,0.0,0.0,4.8134,4.8134,4.8134,4.8134,0.0,4.8134,4.8134,0.0,0.0,0.0,0.0,0.0,0.0,0.0,0.0,0.0,0.0,0.0,0.0,0.0,0.0,0.0,0.0,0.0,0.0,4.8134,4.8134,4.8134,4.8134,4.8134,4.8134,4.8134,4.8134,4.8134,4.8134,4.8134,4.8134,4.8134,4.8134,4.8134,4.8134,4.7829,4.7288,4.6637,4.6742,4.7184,4.6034,4.5609,4.5502,4.4938,4.4722,4.4722,4.4722,4.4722,4.4722,4.4722,4.4722,4.4722,4.4722,4.4722,4.4722,4.4722,4.4722,4.4722,4.4722,4.4722,4.4722,4.4722,4.4722,4.4613,4.4422,4.4119,4.3764,4.3517,4.3184,4.2986,4.2986,4.1923,4.0639,3.9334,3.8149,3.6824,3.5541,3.5418,3.5418,3.5418,3.5418,3.5418,3.5418,3.6246,3.6784,3.6804,3.7632,3.8171,3.8191,3.8191,3.8191,3.8191,3.8191,3.8191,3.8191,3.8191,3.8191,3.8191,3.8191,3.8191,3.8191,3.8191,3.6924,4.8308,0.0,0.0,0.0,0.0,0.0,0.0,0.0,0.0,4.8134,0.0,0.0,0.0,0.0,0.0,0.0,0.0,0.0,0.0,0.0,0.0,0.0,0.0,0.0,0.0,0.0,0.0,0.0,4.8134,4.8134,4.8134,4.8134,4.8134,4.8134,4.8134,4.8134,4.8134,4.8134,4.8134,4.8134,4.8134,4.8134,4.8134,4.8134,4.7829,4.7288,4.6637,4.6218,4.6034,4.5261,4.4938,4.4938,4.4722,4.4722,4.4722,4.4722,4.4722,4.4722,4.4722,4.4722,4.4722,4.4722,4.4722,4.4722,4.4722,4.4722,4.4722,4.4722,4.4722,4.4722,4.4722,4.4722,4.4722,4.4613,4.4203,4.3899,4.3764,4.3321,4.2737,4.181,4.0639,3.9334,3.8029,3.6724,3.5767,3.5418,3.5418,3.5418,3.5418,3.5418,3.5418,3.5418,3.5956,3.6432,3.6763,3.7343,3.7819,3.8171,3.8191,3.8191,3.8191,3.8191,3.8191,3.8191,3.8191,3.8191,3.8191,3.8191,3.8191,3.8191,3.7348,3.5665,4.871,4.861,4.861,4.8409,0.0,0.0,4.8308,4.8308,0.0,0.0,0.0,0.0,0.0,0.0,0.0,0.0,0.0,0.0,0.0,0.0,0.0,0.0,0.0,0.0,0.0,4.8134,4.8134,4.8134,4.8134,4.8134,4.8134,4.8134,4.8134,4.8134,4.8134,4.8134,4.8134,4.8134,4.8134,4.8134,4.8134,4.8134,4.8134,4.8134,4.7699,4.6873,4.6533,4.5901,4.5154,4.483,4.4722,4.4722,4.4722,4.4722,4.4722,4.4722,4.4722,4.4722,4.4722,4.4722,4.4722,4.4722,4.4722,4.4722,4.4722,4.4722,4.4722,4.4722,4.4722,4.4722,4.4722,4.4722,4.4613,4.4505,4.4203,4.3899,4.3764,4.2961,4.2037,4.1215,4.0036,3.8744,3.755,3.6237,3.5418,3.5418,3.5418,3.5418,3.5418,3.5418,3.5418,3.5418,3.5832,3.6308,3.6763,3.7239,3.7695,3.815,3.8191,3.8191,3.8191,3.8191,3.8191,3.8191,3.8191,3.8191,3.8191,3.8191,3.8191,3.8191,3.6519,3.4846,4.9404,4.9207,4.9207,4.9009,0.0,0.0,4.8581,4.8481,4.838,0.0,0.0,0.0,0.0,0.0,0.0,0.0,0.0,0.0,0.0,0.0,0.0,0.0,0.0,0.0,4.8134,4.8134,4.8134,4.8134,4.8134,4.8134,4.8134,4.8134,4.8134,4.8134,4.8134,4.8134,4.8134,4.8134,4.8134,4.8134,4.8134,4.8134,4.8134,4.8134,4.7494,4.6428,4.6428,4.5795,4.4722,4.4722,4.4722,4.4722,4.4722,4.4722,4.4722,4.4722,4.4722,4.4722,4.4722,4.4722,4.4722,4.4722,4.4722,4.4722,4.4722,4.4722,4.4722,4.4722,4.4722,4.4722,4.4722,4.4722,4.4613,4.4313,4.4119,4.3789,4.3517,4.2238,4.11,4.087,3.9803,3.8625,3.7309,3.6135,3.5418,3.5418,3.5418,3.5418,3.5418,3.5418,3.5418,3.5418,3.579,3.6225,3.668,3.7156,3.7612,3.8088,3.815,3.8191,3.8191,3.8191,3.8191,3.8191,3.8191,3.8191,3.8191,3.8191,3.8171,3.7904,3.584,3.4433,0.0,0.0,0.0,0.0,0.0,0.0,4.881,4.8681,4.8481,0.0,4.8207,0.0,0.0,0.0,0.0,0.0,0.0,0.0,0.0,0.0,0.0,0.0,0.0,0.0,4.8134,4.8134,4.8134,4.8134,4.8134,4.8134,4.8134,4.8134,4.8134,4.8134,4.8134,4.8134,4.8134,4.8134,4.8134,4.8134,4.8134,4.8134,4.8134,4.8134,4.7494,4.6428,4.6428,4.5795,4.4722,4.4722,4.4722,4.4722,4.4722,4.4722,4.4722,4.4722,4.4722,4.4722,4.4722,4.4722,4.4722,4.4722,4.4722,4.4722,4.4722,4.4722,4.4722,4.4722,4.4722,4.4722,4.4722,4.4722,4.4613,4.4313,4.4119,4.3789,4.3517,4.2238,4.0755,3.9803,3.8506,3.7309,3.6013,3.5541,3.5418,3.5418,3.5418,3.5418,3.5418,3.5418,3.5418,3.5418,3.55,3.5749,3.6204,3.668,3.7136,3.7612,3.7984,3.8191,3.8191,3.8191,3.8191,3.8191,3.8191,3.8191,3.8191,3.8191,3.777,3.6789,3.5549,3.402,0.0,0.0,0.0,4.9277,0.0,0.0,0.0,4.8909,4.8681,4.8481,4.8308,4.8134,4.8134,0.0,4.8134,4.8134,4.8134,4.8134,4.8134,4.8134,4.8134,4.8134,0.0,0.0,4.8134,4.8134,4.8134,4.8134,4.8134,4.8134,4.8134,4.8134,4.8134,4.8134,4.8134,4.8134,4.8134,4.8134,4.8134,4.8134,4.8134,4.8134,4.8134,4.7829,4.7184,4.6428,4.6112,4.5475,4.4722,4.4722,4.4722,4.4722,4.4722,4.4722,4.4722,4.4722,4.4722,4.4722,4.4722,4.4722,4.4722,4.4722,4.4722,4.4722,4.4722,4.4722,4.4722,4.4722,4.4722,4.4722,4.4722,4.4722,4.4613,4.4313,4.4119,4.3653,4.2687,4.1191,3.9803,3.8506,3.7188,3.6135,3.5541,3.5418,3.5418,3.5418,3.5418,3.5418,3.5418,3.5418,3.5418,3.5418,3.5418,3.5604,3.608,3.6535,3.6991,3.7467,3.7922,3.8191,3.8191,3.8191,3.8191,3.8191,3.8191,3.8191,3.8191,3.7636,3.7079,3.6519,3.5412,3.3882,0.0,0.0,0.0,0.0,0.0,4.9669,0.0,0.0,0.0,0.0,0.0,0.0,0.0,0.0,0.0,0.0,0.0,0.0,0.0,4.805,0.0,4.8134,4.8134,4.8134,4.8134,4.8134,4.8134,4.8134,4.8134,4.8134,4.8134,4.8134,4.8134,4.8134,4.8134,4.8134,4.8134,4.8134,4.8134,4.8134,4.8134,4.8134,4.8134,4.7494,4.6977,4.6323,4.5795,4.5261,4.4722,4.4722,4.4722,4.4722,4.4722,4.4722,4.4722,4.4722,4.4722,4.4722,4.4722,4.4722,4.4722,4.4722,4.4722,4.4722,4.4722,4.4722,4.4722,4.4722,4.4722,4.4722,4.4722,4.4722,4.4613,4.4313,4.4119,4.3432,4.1761,4.0245,3.8862,3.755,3.6237,3.5418,3.5418,3.5418,3.5418,3.5418,3.5418,3.5418,3.5418,3.5418,3.5418,3.5418,3.5418,3.5562,3.5956,3.6411,3.6867,3.7343,3.7798,3.8088,3.8171,3.8191,3.8191,3.8191,3.8191,3.8058,3.7904,3.6924,3.6384,3.6112,3.5139,3.3623,0.0,0.0,0.0,0.0,4.9669,0.0,0.0,0.0,4.9207,4.8909,0.0,0.0,0.0,0.0,0.0,0.0,0.0,0.0,4.7403,4.7769,4.8134,4.8134,4.8134,4.8134,4.8134,4.8134,4.8134,4.8134,4.8134,4.8134,4.8134,4.8134,4.8134,4.8134,4.8134,4.8134,4.8134,4.8134,4.8134,4.8134,4.8134,4.8134,4.8134,4.7494,4.6977,4.6323,4.5795,4.5261,4.4722,4.4722,4.4722,4.4722,4.4722,4.4722,4.4722,4.4722,4.4722,4.4722,4.4722,4.4722,4.4722,4.4722,4.4722,4.4722,4.4722,4.4722,4.4722,4.4722,4.4722,4.4722,4.4722,4.4722,4.4505,4.4119,4.3899,4.3432,4.1558,4.0152,3.8862,3.755,3.6237,3.5418,3.5418,3.5418,3.5418,3.5418,3.5418,3.5418,3.5418,3.5418,3.5418,3.5418,3.5418,3.5438,3.55,3.5914,3.639,3.6846,3.7322,3.7757,3.8171,3.8191,3.8191,3.8191,3.8191,3.777,3.6654,3.6519,3.5957,3.5002,3.39,3.2368,0.0,0.0,0.0,0.0,0.0,0.0,5.1419,0.0,5.0828,0.0,0.0,0.0,0.0,0.0,0.0,0.0,4.8439,0.0,0.0,0.0,4.861,0.0,0.0,0.0,4.8134,4.8134,4.8134,4.8134,4.8134,4.8134,4.8134,4.8134,4.8134,4.8134,4.8134,4.8134,4.8134,4.8134,4.8134,4.8134,4.8134,4.7931,4.7596,4.7081,4.6428,4.5901,4.5368,4.4938,4.4722,4.4722,4.4722,4.4722,4.4722,4.4722,4.4722,4.4722,4.4722,4.4722,4.4722,4.4722,4.4722,4.4722,4.4722,4.4722,4.4722,4.4722,4.4722,4.4722,4.4722,4.4722,4.4722,4.4722,4.4505,4.401,4.3295,4.2238,4.0384,3.898,3.767,3.6481,3.5767,3.5418,3.5418,3.5418,3.5418,3.5418,3.5418,3.5418,3.5418,3.5418,3.5418,3.5418,3.5418,3.5418,3.5418,3.5852,3.6308,3.6763,3.7488,3.7984,3.8171,3.8191,3.8191,3.8191,3.8191,3.7636,3.6519,3.584,3.5002,3.39,3.3484,3.1947,5.3196,0.0,0.0,0.0,0.0,0.0,0.0,0.0,0.0,0.0,0.0,0.0,0.0,0.0,4.9357,4.9184,0.0,4.9161,0.0,4.8667,0.0,0.0,0.0,0.0,0.0,4.7965,4.7937,4.8106,4.7797,4.7769,4.8106,4.7965,4.7965,4.8106,4.8134,4.8134,4.8134,4.8134,4.8032,4.7931,4.7931,4.7596,4.7081,4.6428,4.6007,4.5609,4.4938,4.4722,4.4722,4.4722,4.4722,4.4722,4.4722,4.4722,4.4722,4.4722,4.4722,4.4722,4.4722,4.4722,4.4722,4.4722,4.4722,4.4722,4.4722,4.4722,4.4722,4.4722,4.4722,4.4722,4.4722,4.4722,4.4505,4.401,4.2936,4.1509,3.9569,3.8268,3.6946,3.5665,3.5418,3.5418,3.5418,3.5418,3.5418,3.5418,3.5418,3.5418,3.5418,3.5418,3.5418,3.5418,3.5418,3.5418,3.5418,3.5728,3.6183,3.6763,3.755,3.8046,3.8171,3.8191,3.8191,3.8191,3.7904,3.7213,3.6112,3.5002,3.39,3.2806,3.2806,3.1683,0.0,0.0,0.0,5.2606,0.0,0.0,0.0,0.0,5.1296,0.0,0.0,0.0,0.0,5.1698,5.1486,5.0939,5.0258,0.0,0.0,0.0,0.0,0.0,0.0,0.0,0.0,4.76,4.7488,4.8078,4.7038,4.6869,4.8078,4.7572,4.7516,4.8106,4.8134,4.8134,4.8134,4.8134,4.7829,4.7288,4.7288,4.6977,4.6428,4.5901,4.5609,4.5609,4.4938,4.4722,4.4722,4.4722,4.4722,4.4722,4.4722,4.4722,4.4722,4.4722,4.4722,4.4722,4.4722,4.4722,4.4722,4.4722,4.4722,4.4722,4.4722,4.4722,4.4722,4.4722,4.4722,4.4722,4.4722,4.4722,4.4505,4.401,4.2936,4.1509,3.9569,3.8268,3.6946,3.5665,3.5418,3.5418,3.5418,3.5418,3.5418,3.5418,3.5418,3.5418,3.5418,3.5418,3.5418,3.5418,3.5418,3.5418,3.5418,3.5438,3.5832,3.6742,3.7239,3.7715,3.8171,3.8191,3.8191,3.8191,3.7079,3.5976,3.5002,3.3762,3.2666,3.17,3.17,3.1135,0.0,0.0,5.4433,5.4433,0.0,0.0,0.0,0.0,0.0,0.0,0.0,0.0,0.0,5.2184,5.2002,5.1788,5.1577,5.1206,0.0,0.0,0.0,0.0,0.0,0.0,0.0,0.0,0.0,4.6897,4.6532,4.6476,4.6897,4.6729,4.6897,4.7516,4.7516,4.7712,4.8134,4.8134,4.8032,4.7829,4.7494,4.6977,4.6428,4.5795,4.5368,4.4938,4.483,4.4722,4.4722,4.4722,4.4722,4.4722,4.4722,4.4722,4.4722,4.4722,4.4722,4.4722,4.4722,4.4722,4.4722,4.4722,4.4722,4.4722,4.4722,4.4722,4.4722,4.4722,4.4722,4.4722,4.4722,4.4505,4.4313,4.401,4.2125,4.0245,3.9334,3.755,3.589,3.5541,3.5418,3.5418,3.5418,3.5418,3.5418,3.5418,3.5418,3.5418,3.5418,3.5418,3.5418,3.5418,3.5418,3.5418,3.5418,3.5707,3.6142,3.6763,3.7239,3.7695,3.8171,3.8191,3.8191,3.8191,3.7079,3.5976,3.4865,3.3762,3.2666,3.1559,3.1559,3.1135,5.5409,5.5409,0.0,5.5409,5.5409,0.0,5.5409,0.0,0.0,0.0,0.0,0.0,0.0,0.0,5.334,5.334,5.302,5.2215,0.0,4.9436,0.0,0.0,0.0,0.0,0.0,4.6307,4.6055,4.6279,4.5886,4.583,4.6279,4.6083,4.6251,4.6869,4.6897,4.7178,4.7797,4.7797,4.7808,4.7829,4.7494,4.6873,4.6112,4.5795,4.5261,4.4722,4.4722,4.4722,4.4722,4.4722,4.4722,4.4722,4.4722,4.4722,4.4722,4.4722,4.4722,4.4722,4.4722,4.4722,4.4722,4.4722,4.4722,4.4722,4.4722,4.4722,4.4774,4.4983,4.4905,4.4774,4.4983,4.4687,4.4203,4.401,4.1785,3.9569,3.9216,3.721,3.5418,3.5418,3.5418,3.5418,3.5418,3.5418,3.5418,3.5418,3.5418,3.5418,3.5418,3.5418,3.5418,3.5418,3.5418,3.5418,3.5418,3.5707,3.6059,3.6535,3.6991,3.7446,3.7922,3.8088,3.8037,3.7636,3.6519,3.5412,3.4314,3.3224,3.2246,3.1559,3.1559,3.1135]},{"header":{"parameterUnit":"m.s-1","parameterCategory":1,"la1":30.6,"la2":29.2853,"lo1":-89.7004,"lo2":-87.6739,"dy":0.0162,"dx":0.0183,"nx":112,"ny":82,"refTime":"2023-10-10T00:00:00:Z","depth":0,"parameterNumber":3,"parameterNumberName":"V-component_of_WINDS"},"data":[0.0,0.0,0.0,0.0,0.0,0.0,0.0,0.0,0.0,0.0,0.0,0.0,0.0,0.0,0.0,0.0,0.0,0.0,0.0,0.0,0.0,0.0,0.0,0.0,0.0,0.0,0.0,0.0,0.0,0.0,0.0,0.0,0.0,0.0,0.0,0.0,0.0,0.0,0.0,0.0,0.0,0.0,0.0,0.0,0.0,0.0,0.0,0.0,0.0,0.0,0.0,0.0,0.0,0.0,0.0,0.0,0.0,0.0,0.0,0.0,0.0,0.0,0.0,0.0,0.0,0.0,0.0,0.0,0.0,0.0,0.0,0.0,0.0,0.0,0.0,0.0,0.0,0.0,0.0,0.0,0.0,0.0,0.0,0.0,0.0,0.0,0.0,0.0,0.0,0.0,-4.0852,-4.1115,-4.0567,-4.022,-4.0329,-4.0408,-4.0408,-4.0408,0.0,0.0,0.0,0.0,0.0,0.0,0.0,0.0,0.0,0.0,0.0,0.0,0.0,0.0,0.0,0.0,0.0,0.0,0.0,0.0,0.0,0.0,0.0,0.0,0.0,0.0,0.0,0.0,0.0,0.0,0.0,0.0,0.0,0.0,0.0,0.0,0.0,0.0,0.0,0.0,0.0,0.0,0.0,0.0,0.0,0.0,0.0,0.0,0.0,0.0,0.0,0.0,0.0,0.0,0.0,0.0,0.0,0.0,0.0,0.0,0.0,0.0,0.0,0.0,0.0,0.0,0.0,0.0,0.0,0.0,0.0,0.0,0.0,0.0,0.0,0.0,0.0,0.0,0.0,0.0,0.0,0.0,0.0,0.0,0.0,0.0,0.0,0.0,0.0,0.0,0.0,0.0,0.0,0.0,0.0,0.0,0.0,0.0,0.0,0.0,0.0,0.0,0.0,0.0,-4.1691,-4.136,-4.0914,-4.0746,-4.1194,-4.1526,-4.1802,-4.1802,0.0,0.0,0.0,0.0,0.0,0.0,0.0,0.0,0.0,0.0,0.0,0.0,0.0,0.0,0.0,0.0,0.0,0.0,0.0,0.0,0.0,0.0,0.0,0.0,0.0,0.0,0.0,0.0,0.0,0.0,0.0,0.0,0.0,0.0,0.0,0.0,0.0,0.0,0.0,0.0,0.0,0.0,0.0,0.0,0.0,0.0,0.0,0.0,0.0,0.0,0.0,0.0,0.0,0.0,0.0,0.0,0.0,0.0,0.0,0.0,0.0,0.0,0.0,0.0,0.0,0.0,0.0,0.0,0.0,0.0,0.0,0.0,0.0,0.0,0.0,0.0,0.0,0.0,0.0,0.0,0.0,0.0,0.0,0.0,0.0,0.0,0.0,0.0,0.0,0.0,0.0,0.0,0.0,0.0,0.0,0.0,0.0,0.0,0.0,0.0,0.0,0.0,0.0,-4.1389,-4.159,-4.1057,-4.1057,-4.1142,-4.1396,-4.1843,-4.2092,-4.2092,-4.1512,0.0,0.0,0.0,0.0,0.0,0.0,0.0,0.0,0.0,0.0,0.0,0.0,0.0,0.0,0.0,0.0,0.0,0.0,0.0,0.0,0.0,0.0,0.0,0.0,0.0,0.0,0.0,0.0,0.0,0.0,0.0,0.0,0.0,0.0,0.0,0.0,0.0,0.0,0.0,0.0,0.0,0.0,0.0,0.0,0.0,0.0,0.0,0.0,0.0,0.0,0.0,0.0,0.0,0.0,0.0,0.0,0.0,0.0,0.0,0.0,0.0,0.0,0.0,0.0,0.0,0.0,0.0,0.0,0.0,0.0,0.0,0.0,0.0,0.0,0.0,0.0,0.0,0.0,0.0,0.0,0.0,0.0,0.0,0.0,0.0,0.0,0.0,0.0,0.0,0.0,0.0,0.0,0.0,0.0,0.0,0.0,0.0,0.0,0.0,0.0,0.0,0.0,-4.1449,-4.1394,-4.0944,-4.1227,-4.1396,-4.1396,-4.1843,-4.2009,-4.1926,-4.2009,0.0,0.0,0.0,0.0,0.0,0.0,0.0,0.0,0.0,0.0,0.0,0.0,0.0,0.0,0.0,0.0,0.0,0.0,0.0,0.0,0.0,0.0,0.0,0.0,0.0,0.0,0.0,0.0,0.0,0.0,0.0,0.0,0.0,0.0,0.0,0.0,0.0,0.0,0.0,0.0,0.0,0.0,0.0,0.0,0.0,0.0,0.0,0.0,0.0,0.0,0.0,0.0,0.0,0.0,0.0,0.0,0.0,0.0,0.0,0.0,0.0,0.0,0.0,0.0,0.0,0.0,0.0,0.0,0.0,0.0,0.0,0.0,0.0,0.0,0.0,0.0,0.0,0.0,0.0,0.0,0.0,0.0,0.0,0.0,0.0,0.0,0.0,0.0,0.0,0.0,0.0,0.0,0.0,0.0,0.0,0.0,0.0,0.0,0.0,0.0,0.0,0.0,-4.1114,-4.1396,-4.1396,-4.1396,-4.1396,-4.1396,-4.1843,-4.1926,-4.148,-4.1843,0.0,0.0,0.0,0.0,0.0,0.0,0.0,0.0,0.0,0.0,0.0,0.0,0.0,0.0,0.0,0.0,0.0,0.0,0.0,0.0,0.0,0.0,0.0,0.0,0.0,0.0,0.0,0.0,0.0,0.0,0.0,0.0,0.0,0.0,0.0,0.0,0.0,0.0,0.0,0.0,0.0,0.0,0.0,0.0,0.0,0.0,0.0,0.0,0.0,0.0,0.0,0.0,0.0,0.0,0.0,0.0,0.0,0.0,0.0,0.0,0.0,0.0,0.0,0.0,0.0,0.0,0.0,0.0,0.0,0.0,0.0,0.0,0.0,0.0,0.0,0.0,0.0,0.0,0.0,0.0,0.0,0.0,0.0,0.0,0.0,0.0,0.0,0.0,0.0,0.0,0.0,0.0,0.0,0.0,0.0,0.0,0.0,0.0,0.0,0.0,0.0,0.0,-4.0257,-4.0516,0.0,-4.0773,-4.1057,-4.1396,-4.1843,-4.2009,-4.1843,0.0,0.0,0.0,0.0,0.0,0.0,0.0,0.0,0.0,0.0,0.0,0.0,0.0,0.0,0.0,0.0,0.0,0.0,0.0,0.0,0.0,0.0,0.0,0.0,0.0,0.0,0.0,0.0,0.0,0.0,0.0,0.0,0.0,0.0,0.0,0.0,0.0,0.0,0.0,0.0,0.0,0.0,0.0,0.0,0.0,0.0,0.0,0.0,0.0,0.0,0.0,0.0,0.0,0.0,0.0,0.0,0.0,0.0,0.0,0.0,0.0,0.0,0.0,0.0,0.0,0.0,0.0,0.0,0.0,0.0,0.0,0.0,0.0,0.0,0.0,0.0,0.0,0.0,0.0,0.0,0.0,0.0,0.0,0.0,0.0,0.0,0.0,0.0,0.0,0.0,0.0,0.0,0.0,0.0,0.0,0.0,0.0,0.0,0.0,0.0,0.0,0.0,-3.9557,-4.0083,-4.043,0.0,-4.0859,-4.1227,-4.1396,-4.1843,-4.2009,-4.1647,0.0,0.0,0.0,0.0,0.0,0.0,0.0,0.0,0.0,0.0,0.0,0.0,0.0,0.0,0.0,0.0,0.0,0.0,0.0,0.0,0.0,0.0,0.0,0.0,0.0,0.0,0.0,0.0,0.0,0.0,0.0,0.0,0.0,0.0,0.0,0.0,0.0,0.0,0.0,0.0,0.0,0.0,0.0,0.0,0.0,0.0,0.0,0.0,0.0,0.0,0.0,0.0,0.0,0.0,0.0,0.0,0.0,0.0,0.0,0.0,0.0,0.0,0.0,0.0,0.0,0.0,0.0,0.0,0.0,0.0,0.0,0.0,0.0,0.0,0.0,0.0,0.0,0.0,0.0,0.0,0.0,0.0,0.0,0.0,0.0,0.0,0.0,0.0,0.0,0.0,0.0,0.0,0.0,0.0,0.0,0.0,0.0,0.0,0.0,0.0,0.0,0.0,-3.9996,-4.0773,-4.1396,-4.1396,-4.1843,-4.1926,-4.148,-4.1843,-4.1647,0.0,0.0,0.0,0.0,0.0,0.0,0.0,0.0,0.0,0.0,0.0,0.0,0.0,0.0,0.0,0.0,0.0,0.0,0.0,0.0,0.0,0.0,0.0,0.0,0.0,0.0,0.0,0.0,0.0,0.0,0.0,0.0,0.0,0.0,0.0,0.0,0.0,0.0,0.0,0.0,0.0,0.0,0.0,0.0,0.0,0.0,0.0,0.0,0.0,0.0,0.0,0.0,0.0,0.0,0.0,0.0,0.0,0.0,0.0,0.0,0.0,0.0,0.0,0.0,0.0,0.0,0.0,0.0,0.0,0.0,0.0,0.0,0.0,0.0,0.0,0.0,0.0,0.0,0.0,0.0,0.0,0.0,0.0,0.0,0.0,0.0,0.0,0.0,0.0,0.0,0.0,0.0,0.0,0.0,0.0,0.0,0.0,0.0,0.0,0.0,0.0,0.0,0.0,-4.0083,-4.0773,-4.1396,-4.1396,-4.148,-4.1647,-4.1926,-4.2009,-4.2009,-4.1647,0.0,0.0,0.0,0.0,0.0,0.0,0.0,0.0,0.0,0.0,0.0,0.0,0.0,0.0,0.0,0.0,0.0,0.0,0.0,0.0,0.0,0.0,0.0,0.0,0.0,0.0,0.0,0.0,0.0,0.0,0.0,0.0,0.0,0.0,0.0,0.0,0.0,0.0,0.0,0.0,0.0,0.0,0.0,0.0,0.0,0.0,0.0,0.0,0.0,0.0,0.0,0.0,0.0,0.0,0.0,0.0,0.0,0.0,0.0,0.0,0.0,0.0,0.0,0.0,0.0,0.0,0.0,0.0,0.0,0.0,0.0,0.0,0.0,0.0,0.0,0.0,0.0,0.0,0.0,0.0,0.0,0.0,0.0,0.0,0.0,0.0,0.0,0.0,0.0,0.0,0.0,0.0,0.0,0.0,0.0,0.0,0.0,0.0,0.0,0.0,0.0,0.0,-4.0343,-4.0972,-4.148,-4.1647,-4.1647,-4.176,-4.2092,-4.2092,-4.2009,-4.1843,0.0,0.0,0.0,0.0,0.0,0.0,0.0,0.0,0.0,0.0,0.0,0.0,0.0,0.0,0.0,0.0,0.0,0.0,0.0,0.0,0.0,0.0,0.0,0.0,0.0,0.0,0.0,0.0,0.0,0.0,0.0,0.0,0.0,0.0,0.0,0.0,0.0,0.0,0.0,0.0,0.0,0.0,0.0,0.0,0.0,0.0,0.0,0.0,0.0,0.0,0.0,0.0,0.0,0.0,0.0,0.0,0.0,0.0,0.0,0.0,0.0,0.0,0.0,0.0,0.0,0.0,0.0,0.0,0.0,0.0,0.0,0.0,0.0,0.0,0.0,0.0,0.0,0.0,0.0,0.0,0.0,0.0,0.0,0.0,0.0,0.0,0.0,0.0,0.0,0.0,0.0,0.0,0.0,0.0,0.0,0.0,0.0,0.0,0.0,0.0,0.0,0.0,-4.0688,-4.1142,-4.1647,-4.2009,-4.2092,-4.2092,-4.2092,-4.2092,-4.1926,-4.148,0.0,0.0,0.0,0.0,0.0,0.0,0.0,0.0,0.0,0.0,0.0,0.0,0.0,0.0,0.0,0.0,0.0,0.0,0.0,0.0,0.0,0.0,0.0,0.0,0.0,0.0,0.0,0.0,0.0,0.0,0.0,0.0,0.0,0.0,0.0,0.0,0.0,0.0,0.0,0.0,0.0,0.0,0.0,0.0,0.0,0.0,0.0,0.0,0.0,0.0,0.0,0.0,0.0,0.0,0.0,0.0,0.0,0.0,0.0,0.0,-3.8423,0.0,0.0,0.0,0.0,0.0,0.0,0.0,0.0,0.0,0.0,0.0,0.0,0.0,0.0,0.0,0.0,0.0,0.0,0.0,0.0,0.0,0.0,0.0,0.0,0.0,0.0,0.0,0.0,0.0,0.0,0.0,0.0,0.0,0.0,0.0,0.0,0.0,0.0,0.0,0.0,0.0,-4.1227,-4.1647,-4.2009,-4.2092,-4.2092,-4.2092,-4.2092,-4.2092,-4.2092,-4.1926,-4.1647,0.0,0.0,0.0,0.0,0.0,0.0,0.0,0.0,0.0,0.0,0.0,0.0,0.0,0.0,0.0,0.0,0.0,0.0,0.0,0.0,0.0,0.0,0.0,0.0,0.0,0.0,0.0,0.0,0.0,0.0,0.0,0.0,0.0,0.0,0.0,0.0,0.0,0.0,0.0,0.0,0.0,0.0,0.0,0.0,0.0,0.0,0.0,0.0,0.0,0.0,0.0,0.0,0.0,0.0,0.0,0.0,0.0,0.0,0.0,0.0,-3.883,0.0,0.0,0.0,0.0,0.0,0.0,0.0,0.0,0.0,0.0,0.0,0.0,0.0,0.0,0.0,0.0,0.0,0.0,0.0,0.0,0.0,0.0,0.0,0.0,0.0,0.0,0.0,0.0,0.0,0.0,0.0,0.0,0.0,0.0,0.0,0.0,0.0,0.0,0.0,0.0,-4.1768,-4.2247,-4.2411,-4.2121,-4.2092,-4.2092,-4.2092,-4.2092,-4.2092,-4.2092,-4.1843,0.0,0.0,0.0,0.0,0.0,0.0,0.0,0.0,0.0,0.0,0.0,0.0,0.0,0.0,0.0,0.0,0.0,0.0,0.0,0.0,0.0,0.0,0.0,0.0,0.0,0.0,0.0,0.0,0.0,0.0,0.0,0.0,0.0,0.0,0.0,0.0,0.0,0.0,0.0,0.0,0.0,0.0,0.0,0.0,0.0,0.0,0.0,0.0,0.0,0.0,0.0,0.0,0.0,-3.8575,-3.8692,-3.8692,-3.8935,-3.9114,-3.9292,-3.9292,-3.9292,-3.9292,0.0,0.0,0.0,0.0,0.0,0.0,0.0,0.0,0.0,0.0,0.0,0.0,0.0,0.0,0.0,0.0,0.0,0.0,0.0,0.0,0.0,0.0,0.0,0.0,0.0,-4.1354,-4.1435,0.0,0.0,0.0,0.0,0.0,0.0,0.0,0.0,0.0,0.0,0.0,0.0,-4.2596,-4.2911,-4.2963,-4.2469,-4.244,-4.244,-4.244,-4.2324,-4.2266,-4.2266,-4.215,-4.2092,0.0,0.0,0.0,0.0,0.0,0.0,0.0,0.0,0.0,0.0,0.0,0.0,0.0,0.0,0.0,0.0,0.0,0.0,0.0,0.0,0.0,0.0,0.0,0.0,0.0,0.0,0.0,0.0,0.0,0.0,0.0,0.0,-3.8602,-3.8512,0.0,0.0,0.0,0.0,0.0,0.0,0.0,0.0,0.0,0.0,0.0,0.0,0.0,-3.816,-3.8081,-3.8459,-3.8666,-3.8819,-3.9114,-3.9203,-3.9203,-3.9203,-3.9292,-3.9292,-3.9292,0.0,-3.9292,-3.9292,0.0,0.0,0.0,0.0,0.0,0.0,0.0,0.0,0.0,0.0,0.0,0.0,0.0,0.0,0.0,0.0,0.0,0.0,0.0,0.0,0.0,0.0,-4.1896,-4.1896,-4.2276,-4.2656,0.0,-4.1842,-4.111,-4.111,-4.111,0.0,0.0,0.0,0.0,0.0,0.0,0.0,-4.369,-4.3863,-4.3834,-4.3747,-4.3747,-4.3747,-4.3747,-4.3224,-4.2876,-4.2876,-4.2382,-4.2092,-4.2092,-4.2092,0.0,0.0,0.0,0.0,0.0,0.0,0.0,0.0,0.0,0.0,0.0,0.0,0.0,0.0,0.0,0.0,0.0,0.0,0.0,0.0,0.0,0.0,0.0,0.0,0.0,0.0,0.0,0.0,0.0,-3.8421,-3.8239,-3.8304,-3.8148,-3.8057,0.0,0.0,0.0,0.0,0.0,0.0,0.0,0.0,0.0,-3.9376,-3.9561,-3.9654,-3.9654,-3.9865,-3.9957,-3.993,-4.0204,-4.0231,-4.0113,-4.0231,-4.0323,-4.0323,-4.0323,-4.0323,-4.0296,-3.9943,-3.9807,-3.9834,0.0,0.0,0.0,0.0,-4.0323,-4.0323,-4.0323,-4.0485,0.0,0.0,0.0,0.0,0.0,0.0,0.0,0.0,0.0,0.0,0.0,0.0,0.0,-4.2493,-4.2711,-4.29,-4.29,-4.2658,-4.2465,0.0,-4.2114,-4.2276,-4.272,0.0,0.0,0.0,0.0,-4.4077,-4.4443,-4.4501,-4.4356,-4.4037,-4.3979,-4.3979,-4.3979,-4.3718,-4.3544,-4.3544,-4.2963,-4.2615,-4.2615,-4.2266,-4.2092,0.0,0.0,0.0,0.0,0.0,0.0,0.0,0.0,0.0,0.0,0.0,0.0,0.0,0.0,0.0,0.0,0.0,0.0,0.0,0.0,0.0,0.0,0.0,0.0,0.0,0.0,0.0,0.0,-3.8964,-3.8688,-3.8662,-3.8596,-3.8596,0.0,0.0,0.0,0.0,0.0,0.0,-4.0401,-4.0239,-4.0239,-4.0428,-4.0616,-4.071,-4.071,-4.0923,-4.0923,-4.0803,-4.1017,-4.1017,-4.0803,-4.1017,-4.111,-4.111,-4.111,-4.111,-4.1082,-4.0621,-4.0431,-4.0458,-4.0947,-4.111,-4.111,-4.111,-4.111,-4.111,-4.111,-4.1218,-4.1354,-4.1354,0.0,-4.1571,-4.1571,0.0,0.0,0.0,0.0,-4.2331,-4.2765,-4.29,-4.29,-4.29,-4.29,-4.29,-4.29,-4.3163,-4.3328,0.0,-4.3163,-4.3451,-4.3899,0.0,0.0,0.0,0.0,-4.5121,-4.5109,-4.514,-4.4966,-4.4531,-4.4472,-4.4472,-4.4472,-4.4327,-4.4211,-4.4211,-4.3602,-4.3253,-4.3253,-4.2818,-4.2498,-4.2324,0.0,0.0,0.0,0.0,0.0,0.0,0.0,0.0,0.0,0.0,0.0,0.0,0.0,0.0,0.0,0.0,0.0,0.0,0.0,0.0,0.0,0.0,0.0,0.0,0.0,0.0,0.0,0.0,0.0,-3.9944,-4.0227,0.0,0.0,0.0,0.0,-4.028,-4.0118,-4.0118,-4.071,-4.071,-4.071,-4.071,-4.071,-4.071,-4.071,-4.071,-4.0803,-4.111,-4.111,-4.111,-4.111,-4.111,-4.111,-4.111,-4.111,-4.111,-4.111,-4.1082,-4.1082,-4.1082,-4.111,-4.111,-4.111,-4.111,-4.111,-4.111,-4.111,-4.1489,-4.1951,-4.1951,-4.2331,-4.2792,-4.2792,-4.2792,0.0,0.0,-4.2846,-4.2846,-4.2873,-4.29,-4.29,-4.29,-4.29,-4.29,-4.29,-4.29,-4.3067,0.0,-4.4021,-4.449,-4.4926,0.0,-4.4676,-4.5714,-4.5413,-4.5293,-4.5747,-4.5837,-4.5837,-4.5808,-4.5779,-4.5779,-4.5779,-4.5198,-4.485,-4.485,-4.4269,-4.395,-4.395,-4.3921,-4.3602,-4.2963,-4.2934,0.0,0.0,0.0,0.0,0.0,0.0,0.0,0.0,0.0,0.0,0.0,0.0,0.0,0.0,0.0,0.0,0.0,0.0,0.0,0.0,0.0,0.0,0.0,0.0,0.0,0.0,0.0,0.0,-4.0239,-4.0239,0.0,-4.0239,-4.0239,-4.0494,-4.1152,-4.1084,-4.134,-4.2127,-4.1962,-4.1866,-4.1866,-4.2058,-4.2058,-4.1866,-4.2436,-4.2722,-4.2819,-4.3226,-4.3416,-4.3416,-4.3416,-4.3416,-4.3416,-4.3416,-4.3416,-4.3416,-4.3416,-4.2738,-4.1734,-4.2114,-4.2249,-4.2249,-4.2249,-4.2249,-4.2249,-4.2249,-4.2385,-4.2575,-4.2575,-4.2711,-4.29,-4.29,-4.29,-4.29,-4.29,-4.29,-4.29,-4.29,-4.3163,-4.3328,-4.3328,-4.3642,-4.3832,-4.3832,-4.4115,-4.4369,-4.4555,-4.4181,-4.4181,-4.4926,-4.4954,-4.5046,-4.5776,-4.5685,-4.5685,-4.5895,-4.5895,-4.5895,-4.5895,-4.5895,-4.5895,-4.5895,-4.5663,-4.5518,-4.5518,-4.4937,-4.456,-4.456,-4.4182,-4.3892,-4.3631,-4.3631,-4.3311,0.0,0.0,0.0,0.0,0.0,0.0,0.0,0.0,0.0,0.0,0.0,0.0,0.0,0.0,0.0,0.0,0.0,0.0,0.0,0.0,0.0,0.0,0.0,0.0,0.0,0.0,-4.1042,-4.0824,-4.0946,-4.0946,-4.092,-4.1042,-4.1298,-4.1962,-4.1989,-4.2178,-4.2776,-4.2895,-4.2905,-4.2807,-4.3291,-4.3399,-4.3202,-4.3805,-4.4094,-4.4094,-4.4501,-4.4719,-4.4719,-4.4719,-4.4719,-4.4719,-4.4719,-4.4719,-4.4719,-4.4719,-4.3986,-4.2955,-4.3335,-4.3497,-4.3497,-4.3497,-4.3362,-4.3145,-4.2955,-4.29,-4.29,-4.29,-4.29,-4.29,-4.29,-4.29,-4.29,-4.29,-4.29,-4.29,-4.29,-4.3163,-4.3328,-4.3328,-4.3709,-4.4115,-4.4115,-4.449,-4.4954,-4.5046,-4.4741,-4.4555,-4.523,-4.5413,-4.5504,-4.5895,-4.5895,-4.5895,-4.5895,-4.5895,-4.5895,-4.5895,-4.5895,-4.5895,-4.5895,-4.5895,-4.5895,-4.5895,-4.5459,-4.5227,-4.5227,-4.485,-4.4531,-4.4298,-4.4095,-4.3776,-4.334,0.0,0.0,0.0,0.0,0.0,0.0,0.0,0.0,0.0,0.0,0.0,0.0,0.0,0.0,0.0,0.0,0.0,0.0,0.0,0.0,0.0,0.0,0.0,-4.219,-4.2289,-4.2289,-4.1796,-4.2387,-4.2679,-4.219,-4.2387,-4.2609,-4.2928,-4.2733,-4.2538,-4.2565,-4.3399,-4.3697,-4.3399,-4.4293,-4.4719,-4.4719,-4.4719,-4.4746,-4.4746,-4.4746,-4.4773,-4.4773,-4.4773,-4.4773,-4.4773,-4.4773,-4.4773,-4.4773,-4.4773,-4.4773,-4.4746,-4.4719,-4.4719,-4.4719,-4.4719,-4.4312,-4.3715,-4.3145,-4.2955,-4.2955,-4.2928,-4.2928,-4.29,-4.29,-4.29,-4.29,-4.29,-4.29,-4.29,-4.29,-4.2873,-4.2997,-4.297,-4.3328,-4.3681,-4.3681,-4.4115,-4.4612,-4.5046,-4.5561,-4.5924,-4.5895,-4.5895,-4.5895,-4.5924,-4.5924,0.0,-4.5953,-4.5953,-4.5953,-4.5953,-4.5953,-4.5924,-4.5924,-4.5924,-4.5895,-4.5895,-4.5895,-4.5895,-4.5895,-4.5895,-4.5576,-4.4937,-4.4327,-4.4008,-4.4008,0.0,0.0,0.0,0.0,0.0,0.0,0.0,0.0,0.0,0.0,0.0,0.0,0.0,0.0,0.0,0.0,0.0,0.0,0.0,0.0,0.0,0.0,-4.2092,-4.2065,-4.2484,-4.2582,-4.2065,-4.2387,-4.2609,-4.2387,-4.2511,-4.2771,-4.3497,-4.3525,-4.3616,-4.4076,-4.4366,-4.4447,-4.4347,-4.461,-4.4719,-4.4719,-4.5126,-4.5343,-4.5343,-4.5777,-4.5994,-4.5994,-4.5994,-4.6211,-4.6591,-4.6184,-4.6238,-4.6591,-4.6157,-4.5994,-4.5912,-4.5044,-4.4719,-4.4719,-4.4719,-4.461,-4.442,-4.4257,-4.4203,-4.4122,-4.366,-4.3525,-4.3443,-4.3009,-4.29,-4.29,-4.29,-4.29,-4.297,-4.3328,-4.3737,-4.4115,-4.4369,-4.4926,-4.5321,-4.5321,-4.5758,-4.6195,-4.6287,-4.6848,-4.6969,-4.604,-4.5895,-4.604,-4.6505,-4.6563,0.0,-4.7201,-4.7259,-4.7259,-4.7259,-4.7259,-4.7085,-4.6621,-4.6563,-4.6388,-4.5924,-4.5895,-4.5895,-4.5895,-4.5895,-4.5808,-4.5605,-4.4966,-4.4647,0.0,0.0,0.0,0.0,0.0,0.0,0.0,0.0,0.0,0.0,0.0,0.0,0.0,0.0,0.0,0.0,0.0,0.0,0.0,0.0,0.0,0.0,-4.2092,-4.2092,-4.2289,-4.2484,-4.2565,-4.2636,-4.2861,-4.3067,-4.321,-4.3363,-4.3598,-4.4149,-4.4176,-4.4312,-4.4563,-4.4834,-4.5071,-4.4867,-4.5213,-4.5451,-4.5451,-4.6021,-4.6319,-4.6347,-4.6944,-4.7215,-4.7215,-4.7215,-4.7405,0.0,-4.7351,-4.7405,-4.7676,-4.7079,-4.6835,0.0,0.0,0.0,0.0,0.0,-4.5071,-4.5044,-4.48,-4.4719,-4.4637,-4.4284,-4.4176,-4.4094,-4.3742,-4.366,-4.366,-4.366,-4.366,-4.3732,-4.4026,-4.4318,-4.4608,-4.4897,-4.5534,-4.6003,-4.6003,-4.6662,-4.723,-4.723,-4.7521,0.0,-4.6795,-4.6679,-4.6795,-4.7172,-4.723,-4.7375,-4.7724,-4.7782,-4.7782,-4.7782,-4.7782,-4.7637,-4.7259,-4.6969,0.0,0.0,0.0,-4.5895,-4.5895,-4.5895,0.0,0.0,0.0,-4.5314,-4.5314,0.0,0.0,0.0,-4.4906,-4.4594,0.0,0.0,0.0,0.0,0.0,0.0,0.0,0.0,0.0,0.0,0.0,0.0,0.0,0.0,0.0,0.0,-4.2476,-4.2699,-4.2699,-4.2503,-4.2564,-4.3218,-4.3652,-4.3995,-4.4307,-4.459,-4.4746,-4.48,-4.48,-4.4726,-4.4576,0.0,0.0,0.0,0.0,-4.6672,-4.6672,-4.7188,-4.7459,-4.7459,-4.8002,-4.8246,-4.8246,-4.8246,-4.8273,-4.8355,-4.8273,-4.8273,-4.83,-4.7703,-4.7405,-4.7296,-4.6699,-4.6482,-4.6428,-4.5885,-4.5695,-4.5614,-4.5098,0.0,0.0,-4.4827,-4.48,-4.48,-4.4719,-4.4719,-4.4719,-4.4719,-4.4719,-4.4719,-4.4792,-4.4792,-4.4792,-4.4893,-4.5635,-4.6292,-4.6292,-4.7148,-4.7898,-4.7898,-4.7956,-4.7985,-4.7985,-4.7869,-4.7811,-4.7869,-4.7898,-4.7898,-4.7985,-4.7985,-4.7985,-4.7985,0.0,0.0,-4.7898,-4.7375,-4.7027,-4.694,-4.633,-4.5953,-4.5895,-4.5895,-4.5895,-4.5895,-4.5895,-4.5895,-4.5895,-4.5895,-4.5895,-4.5866,-4.5454,-4.5334,0.0,0.0,0.0,0.0,0.0,0.0,0.0,0.0,0.0,0.0,0.0,0.0,0.0,0.0,0.0,-4.3375,-4.3477,-4.3707,-4.4238,-4.4037,-4.3674,-4.3125,-4.3929,-4.4455,-4.4361,-4.459,-4.4908,-4.5397,-4.5424,-4.5641,-4.6102,-4.6699,-4.7025,-4.7025,-4.7595,-4.7893,-4.7893,-4.8029,-4.8083,-4.8083,0.0,0.0,-4.8246,-4.8246,-4.8517,-4.8924,-4.8463,-4.8517,-4.8924,-4.8327,-4.7785,-4.7296,-4.6699,-4.6482,-4.6455,-4.6347,-4.6319,-4.6292,-4.6157,-4.613,-4.6048,-4.556,-4.5424,-4.5343,-4.4854,-4.4719,0.0,-4.4719,-4.4719,-4.4792,-4.5166,-4.5266,-4.5365,-4.586,-4.6349,-4.6832,-4.6832,-4.7712,-4.8537,-4.8537,-4.8972,-4.932,-4.932,-4.8449,-4.7956,-4.8449,-4.8537,-4.874,-4.9233,-4.932,-4.932,-4.932,-4.932,-4.9088,-4.8595,-4.842,-4.813,-4.7637,-4.6998,-4.6417,-4.5895,-4.5895,-4.5895,-4.5895,-4.5895,-4.5895,-4.5895,-4.5895,-4.5895,-4.5956,-4.6635,-4.6711,0.0,0.0,0.0,0.0,0.0,0.0,0.0,0.0,0.0,0.0,0.0,-4.3023,-4.3023,0.0,-4.3308,-4.3721,-4.3824,-4.4028,-4.459,-4.4732,-4.4479,-4.4082,-4.4759,-4.5159,-4.5119,-4.5457,-4.5723,-4.6021,-4.6021,-4.6292,-4.6889,-4.7188,-4.7486,-4.7785,-4.8083,-4.8246,-4.8246,-4.8545,-4.868,-4.868,-4.8979,-4.9114,-4.9114,-4.9114,-4.9304,-4.9549,-4.925,-4.9304,-4.9494,-4.8599,-4.7893,-4.7296,-4.6699,-4.6482,-4.6482,-4.6482,-4.6482,-4.6482,-4.6482,-4.6482,-4.6428,-4.613,-4.6021,-4.5967,-4.5668,-4.5587,-4.5587,-4.5587,-4.5587,-4.569,-4.5868,-4.6173,-4.6376,-4.6679,-4.7377,-4.7966,-4.7966,-4.8585,-4.9204,-4.9204,-4.9465,-4.9669,-4.9669,-4.9146,-4.8827,-4.9146,-4.9204,-4.932,-4.964,-4.9669,-4.9669,-4.9669,-4.9669,-4.9553,-4.9233,-4.8914,-4.8449,-4.7811,-4.7172,-4.6679,-4.6359,-4.604,-4.5895,-4.5895,-4.5895,-4.5895,-4.5895,-4.5895,-4.5895,-4.5956,-4.7562,-4.7577,0.0,0.0,0.0,0.0,0.0,0.0,0.0,-4.3363,-4.3363,-4.3363,-4.3363,-4.3363,-4.3363,-4.3363,-4.3546,-4.4067,-4.417,-4.4376,-4.484,-4.5218,-4.5308,-4.5203,-4.5439,-4.5836,-4.6085,-4.635,-4.6482,-4.6482,-4.6591,-4.6862,-4.7323,-4.7568,-4.792,-4.8409,-4.8517,-4.8599,-4.8599,-4.906,-4.9304,-4.9304,-4.9793,-5.001,-5.001,-5.001,-5.001,-5.001,-5.001,-4.9956,-4.9766,-4.868,-4.7893,-4.7296,-4.6699,-4.6482,-4.6482,-4.6482,-4.6482,-4.6482,-4.6482,-4.6482,-4.6482,-4.6482,-4.6482,-4.6482,-4.6482,-4.6482,-4.6482,-4.6482,-4.6482,-4.6482,-4.6482,-4.6796,-4.7184,-4.7288,-4.8004,-4.881,-4.8909,-4.9277,-4.9669,-4.9669,-4.9669,-4.9669,-4.9669,-4.9669,-4.9669,-4.9669,-4.9669,-4.9669,-4.9669,-4.9669,-4.9669,-4.9669,-4.9669,-4.9669,-4.9669,-4.9204,-4.8624,-4.8014,-4.7491,-4.7085,-4.6853,-4.633,-4.6011,-4.5895,-4.5895,-4.5895,-4.5895,-4.5895,-4.5895,-4.5956,-4.7981,-4.7981,-4.3618,-4.4297,-4.4323,-4.4431,-4.4539,-4.4539,0.0,-4.4539,-4.4539,-4.4539,-4.4539,-4.4539,-4.4539,-4.4539,-4.4754,-4.5289,-4.5395,-4.5502,-4.5818,-4.611,-4.6164,-4.5608,-4.582,-4.6058,-4.6455,-4.6482,-4.6482,-4.6482,-4.6971,-4.7296,-4.7351,-4.8355,-4.8952,-4.9033,-4.9549,-4.982,-4.982,-4.9874,-4.9901,-4.9901,-4.9983,-5.001,-5.001,-5.001,-5.001,-5.001,-5.001,-4.9711,-4.9169,-4.8517,-4.7893,-4.7296,-4.6699,-4.6482,-4.6482,-4.6482,-4.6482,-4.6482,-4.6482,-4.6482,-4.6482,-4.6482,-4.6482,-4.6482,-4.6482,-4.6482,-4.6482,-4.6482,-4.6482,-4.6482,-4.6482,-4.6587,-4.6692,-4.7184,-4.7801,-4.828,-4.881,-4.9277,-4.9669,-4.9669,-4.9669,-4.9669,-4.9669,-4.9669,-4.9669,-4.9669,-4.9669,-4.9669,-4.9669,-4.9669,-4.9669,-4.9669,-4.9669,-4.9669,-4.9669,-4.9611,-4.9291,-4.8653,-4.8566,-4.8014,-4.6882,-4.6766,-4.6475,-4.5895,-4.5895,-4.5895,-4.5895,-4.5895,-4.5956,-4.6225,-4.7362,-4.7843,-4.3245,-4.4152,-4.4722,-4.4722,-4.4722,-4.4722,-4.4722,-4.4722,-4.4722,-4.4722,-4.4722,-4.4722,-4.4722,-4.483,-4.5072,0.0,-4.5502,-4.5715,-4.5901,-4.6034,-4.6034,-4.6139,-4.6034,-4.6034,-4.6245,-4.635,-4.6618,-4.6971,-4.7215,-4.7649,-4.8355,-4.887,-4.9277,-4.963,-4.9874,-5.001,-5.001,-5.001,-5.001,-5.001,-5.001,-5.001,-5.001,-5.001,-5.001,-4.9983,-4.9657,-4.9359,-4.906,-4.811,-4.7568,-4.7296,-4.6699,-4.6482,-4.6482,-4.6482,-4.6482,-4.6482,-4.6482,-4.6482,-4.6482,-4.6482,-4.6482,-4.6482,-4.6482,-4.6482,-4.6482,-4.6482,-4.6482,-4.6482,-4.6482,-4.6977,-4.7466,-4.7671,-4.838,-4.9079,-4.9277,-4.9571,-4.9669,-4.9669,-4.9669,-4.9669,-4.9669,-4.9669,-4.9669,-4.9669,-4.9669,-4.9669,-4.9669,-4.9669,-4.9669,-4.9669,-4.9669,-4.9669,-4.9669,-4.9669,-4.9553,-4.9291,-4.8943,-4.8333,-4.7433,-4.7027,-4.6534,-4.5895,-4.5895,-4.5895,-4.5895,-4.6046,-4.6373,-4.6959,-4.8263,-4.8841,-4.3134,-4.4042,-4.4722,-4.4722,-4.4722,-4.4722,-4.4722,-4.4722,-4.4722,-4.4722,-4.4722,-4.4722,-4.4722,-4.4856,-4.5072,-4.518,-4.5395,-4.5715,-4.5901,-4.5928,-4.5928,-4.635,-4.6245,-4.6139,-4.6139,-4.6513,-4.6889,-4.7323,-4.7676,-4.8219,-4.9087,-4.9277,-4.9576,-5.001,-5.001,-5.001,-5.001,-5.001,-5.001,-5.001,-5.001,-5.001,-5.001,-4.9847,-4.9766,-4.9739,-4.9142,-4.8789,-4.8572,-4.7703,-4.7269,-4.7079,-4.6645,-4.6482,-4.6482,-4.6482,-4.6482,-4.6482,-4.6482,-4.6482,-4.6482,-4.6482,-4.6482,-4.6482,-4.6482,-4.6482,-4.6482,-4.6482,-4.6587,-4.6692,-4.6692,-4.7391,-4.8179,-4.828,-4.8881,-4.9473,-4.9669,-4.9669,-4.9669,-4.9669,-4.9669,-4.9669,-4.9669,-4.9669,-4.9669,-4.9669,-4.9669,-4.9669,-4.9669,-4.9669,-4.9669,-4.9669,-4.9669,-4.9669,-4.9669,-4.9669,-4.9669,-4.9669,-4.9233,-4.8711,-4.8072,-4.7433,-4.6795,-4.6156,-4.5982,-4.5985,-4.5956,-4.6373,-4.6959,-4.7758,-4.9135,-4.9884,-4.4613,-4.4613,-4.4722,-4.4722,-4.4722,-4.4722,-4.4722,-4.4722,-4.4722,-4.4722,-4.4722,-4.4722,-4.4722,-4.4722,-4.483,-4.518,-4.5395,-4.5609,-4.5609,-4.6139,-4.635,-4.6007,-4.6245,-4.6482,0.0,-4.6998,-4.7351,-4.7351,-4.8409,-4.9087,-4.9114,-4.9657,-4.9983,-5.001,-5.001,-5.001,-5.001,-5.001,-5.001,-5.001,-5.001,-5.001,-4.9983,-4.9413,-4.9169,-4.9114,-4.8517,-4.7948,-4.7405,-4.7378,-4.7025,-4.6509,-4.6482,-4.6482,-4.6482,-4.6482,-4.6482,-4.6482,-4.6482,-4.6482,-4.6482,-4.6482,-4.6482,-4.6482,-4.6482,-4.6482,-4.6482,-4.6482,-4.6901,-4.7288,-4.7288,-4.7699,-4.828,-4.8781,-4.8909,-4.9108,-4.9571,-4.9669,-4.9669,-4.9669,-4.9669,-4.9669,-4.9669,-4.9669,-4.9669,-4.9669,-4.9669,-4.9669,-4.9669,-4.9669,-4.9669,-4.9669,-4.9669,-4.9669,-4.9669,-4.9669,-4.9669,-4.9669,-4.964,-4.9349,-4.8711,-4.8101,-4.7462,-4.6824,-4.6214,-4.5956,-4.6225,-4.7016,-4.7673,-4.8263,-4.9852,-5.0843,-4.4722,-4.4722,-4.4722,-4.4722,-4.4722,-4.4722,-4.4722,-4.4722,-4.4722,-4.4722,-4.4722,-4.4722,-4.4722,-4.5046,-4.5287,-4.518,-4.5609,-4.5901,-4.5901,-4.6034,-4.6245,-4.635,-4.6455,0.0,0.0,0.0,0.0,-4.792,-4.868,-4.9304,-4.9684,-4.9901,-5.001,-5.001,-5.001,-5.001,-5.001,-5.001,-5.001,-5.001,-5.001,-4.9793,-4.9413,-4.9223,-4.8924,-4.8517,-4.792,-4.7541,-4.7323,-4.6944,-4.6645,-4.6482,-4.6482,-4.6482,-4.6482,-4.6482,-4.6482,-4.6482,-4.6482,-4.6482,-4.6482,-4.6482,-4.6482,-4.6482,-4.6482,-4.6482,-4.6482,-4.6482,-4.6692,-4.6901,-4.7184,-4.7699,-4.828,-4.881,-4.9178,-4.9473,-4.9669,-4.9669,-4.9669,-4.9669,-4.9669,-4.9669,-4.9669,-4.9669,-4.9669,-4.9669,-4.9669,-4.9669,-4.9669,-4.9669,-4.9669,-4.9669,-4.9669,-4.9669,-4.9669,-4.9669,-4.9669,-4.9669,-4.9669,-4.9378,-4.874,-4.8537,-4.7898,-4.6853,-4.6832,-4.6573,-4.6225,-4.6814,-4.7789,-4.9085,-4.9805,-5.0767,-4.4722,-4.4722,-4.4722,-4.4722,-4.4722,-4.4722,-4.4722,-4.4722,-4.4722,-4.4722,-4.4722,-4.4722,-4.4722,-4.5046,-4.5395,-4.5072,-4.5475,-4.5901,-4.5901,-4.5901,-4.6112,-4.6482,-4.6672,-4.6944,0.0,0.0,0.0,-4.8545,-4.9114,-4.9603,-4.9983,-5.001,-5.001,-5.001,-5.001,-5.001,-5.001,-5.001,-5.001,-5.001,-4.9793,-4.9494,-4.9114,-4.868,-4.83,-4.7893,-4.7296,-4.7052,-4.7025,-4.6618,-4.6591,-4.6781,-4.6781,-4.6916,-4.7106,-4.7106,-4.7106,-4.7052,-4.6618,-4.6482,-4.6482,-4.6482,-4.6482,-4.6482,-4.6482,-4.6482,-4.6482,-4.6482,-4.6769,-4.7184,-4.7494,-4.8078,-4.8781,-4.9079,-4.9473,-4.9669,-4.9669,-4.9669,-4.9669,-4.9669,-4.9669,-4.9669,-4.9669,-4.9669,-4.9669,-4.9669,-4.9669,-4.9669,-4.9669,-4.9669,-4.9669,-4.9669,-4.9669,-4.9669,-4.9669,-4.9669,-4.9669,-4.9669,-4.9669,-4.9494,-4.9088,-4.8856,-4.8246,-4.7265,-4.7245,-4.7139,-4.6959,-4.7563,-4.8594,-5.0073,-5.0538,-5.1327,-4.4722,-4.4722,-4.4722,-4.4722,-4.4722,-4.4722,-4.4722,-4.4722,-4.4722,-4.4722,-4.4722,-4.4722,-4.4722,-4.4964,-4.5072,-4.483,-4.5261,-4.5609,-4.5609,-4.5928,-4.6139,0.0,0.0,0.0,0.0,0.0,0.0,-4.9169,0.0,-5.001,-5.001,-5.001,-5.001,-5.001,-5.001,-5.001,-5.001,-5.001,-4.9983,-4.9956,-4.9386,-4.9087,-4.9006,-4.7866,-4.7351,-4.7269,-4.6754,-4.6509,-4.6509,-4.6564,-4.6889,-4.7405,-4.7405,-4.7758,-4.8246,-4.8246,-4.8246,-4.8083,-4.6944,-4.6564,-4.6564,-4.6564,-4.6564,-4.6564,-4.6537,-4.6509,-4.6509,-4.6482,-4.7288,-4.8078,-4.8078,-4.8881,-4.9669,-4.9669,-4.9669,-4.9669,-4.9669,-4.9669,-4.9669,-4.9669,-4.9669,-4.9669,-4.9669,-4.9669,-4.9669,-4.9669,-4.9669,-4.9669,-4.9669,-4.9669,-4.9669,-4.9669,-4.9669,-4.9669,-4.9669,-4.9669,-4.9669,-4.9669,-4.9669,-4.9669,-4.9669,-4.9088,-4.8574,-4.8185,-4.7691,-4.7733,-4.824,-4.9116,-5.0104,-5.1102,-5.198,-5.2373,-4.4722,-4.4722,-4.4722,-4.4722,-4.4722,-4.4722,-4.4722,-4.4722,-4.4722,-4.4722,-4.4722,-4.4722,-4.4722,-4.518,-4.5502,-4.5368,-4.5928,-4.6245,-4.6245,-4.635,-4.635,-4.6482,0.0,-4.7541,-4.7975,-4.8707,0.0,0.0,-4.9928,-5.001,-5.001,-5.001,-5.001,-5.001,-5.001,-5.001,-5.001,-5.001,-4.9793,-4.9359,-4.9196,-4.8653,-4.7785,-4.7486,-4.7106,-4.6727,-4.6998,-4.7134,-4.7161,-4.7622,-4.7893,-4.8029,-4.8029,-4.811,-4.8246,-4.8246,-4.8246,-4.8192,-4.7893,-4.7785,-4.7785,-4.7785,-4.7785,-4.7703,-4.7269,-4.7134,-4.7052,-4.6591,-4.6977,-4.7596,-4.7976,-4.8581,-4.9178,-4.9571,-4.9669,-4.9669,-4.9669,-4.9669,-4.9669,-4.9669,-4.9669,-4.9669,-4.9669,-4.9669,-4.9669,-4.9669,-4.9669,-4.9669,-4.9669,-4.9669,-4.9669,-4.9669,-4.9669,-4.9669,-4.9669,-4.9669,-4.9669,-4.9669,-4.9669,-4.9766,-4.999,-4.9814,-4.953,-4.9139,-4.9824,-4.9786,-4.8974,-5.0028,-5.0738,-5.1102,-5.1359,-5.1762,-4.4722,-4.4722,-4.4722,-4.4722,-4.4722,-4.4722,-4.4722,-4.4722,-4.4722,-4.4722,-4.4722,-4.4722,-4.4722,-4.5154,-4.5609,-4.5395,-4.5928,-4.6245,-4.6245,-4.6245,-4.6458,-4.6835,-4.7378,-4.7975,-4.8572,-4.9169,-4.9657,0.0,-5.001,-5.001,-5.001,-5.001,-5.001,-5.001,-5.001,-5.001,-5.001,-5.001,-4.9847,-4.9521,-4.8979,-4.8382,-4.7731,-4.7215,-4.6916,-4.6889,0.0,-4.7513,-4.7785,-4.811,-4.8409,-4.8626,-4.8626,-4.8789,-4.9033,-4.9033,-4.9033,-4.9033,-4.9033,-4.9033,-4.8924,-4.8409,-4.8246,-4.8192,-4.7839,-4.7758,-4.7676,-4.7351,-4.7667,-4.8193,-4.8789,-4.9303,-4.9753,-5.0092,-5.0104,-5.0046,-4.9727,-4.9669,-4.9669,-4.9669,-4.9669,-4.9669,-4.9669,-4.9669,-4.9669,-4.9669,-4.9669,-4.9669,-4.9669,-4.9669,-4.9669,-4.9669,-4.9669,-4.9669,-4.9669,-4.9669,-4.9669,-4.9669,-4.9766,-4.999,-5.0086,-5.0183,-5.0081,-4.9685,-5.0698,-5.0949,-5.0412,-5.1087,-5.1714,-5.2113,-5.1819,-5.1908,-4.4722,-4.4722,-4.4722,-4.4722,-4.4722,-4.4722,-4.4722,-4.4722,-4.4722,-4.4722,-4.4722,-4.4722,-4.4722,-4.5154,-4.5502,-4.5287,-4.5715,-4.6034,-4.6034,-4.6034,-4.6328,-4.7188,-4.7839,-4.8463,-4.8952,-4.963,-5.001,-5.001,-5.001,-5.001,-5.001,-5.001,-5.001,-5.001,-5.001,-5.001,-5.001,-4.9928,-4.9847,-4.9766,-4.8653,-4.8138,-4.8083,-4.7052,-4.6916,-4.7486,-4.7568,0.0,-4.8382,-4.8463,-4.8789,-4.925,-4.925,-4.9549,-5.001,-5.001,-5.001,-5.001,-5.001,-5.001,-4.9847,-4.8816,-4.849,-4.8463,-4.8382,-4.8355,-4.8355,-4.8273,-4.868,-4.919,-4.9799,-5.0323,-5.0726,-5.0817,-5.0801,-5.0656,-5.0046,-4.9872,-4.9785,-4.9698,-4.9669,-4.9669,-4.9669,-4.9669,-4.9669,-4.9669,-4.9669,-4.9669,-4.9669,-4.9669,-4.9669,-4.9669,-4.9669,-4.9669,-4.9669,-4.9669,-4.9669,-4.9766,-4.999,-5.0086,-5.0183,-5.0567,-5.0585,-5.0299,-5.1269,-5.195,-5.2213,-5.2488,-5.2931,-5.3533,-5.2837,-5.2506,-4.4722,-4.4722,-4.4722,-4.4722,-4.4722,-4.4722,-4.4722,-4.4722,-4.4722,-4.4722,-4.4722,-4.4722,-4.4722,-4.5154,-4.5609,-4.5502,-4.6034,-4.635,-4.635,-4.635,-4.6509,-4.6618,-4.7595,-4.8273,-4.8382,-4.9386,0.0,0.0,0.0,-5.001,-5.001,-5.001,-5.001,-5.001,-5.001,-5.001,-5.001,-4.9521,-4.9033,-4.8545,-4.7839,-4.7513,-4.7513,-4.7296,-4.7513,-4.811,-4.8599,0.0,-4.9006,-4.9494,-4.9766,-4.9847,-4.9847,-4.9928,-5.001,-5.001,-5.001,-5.001,-5.001,-5.001,-4.9983,-4.9766,-4.9711,-4.9603,-4.9114,-4.8979,-4.887,-4.8382,-4.868,-4.919,-4.9799,-5.0323,-5.0841,-5.1367,-5.1439,-5.141,-5.1323,-5.0888,-5.0336,-4.9785,-4.9669,-4.9669,-4.9669,-4.9669,-4.9669,-4.9669,-4.9669,-4.9669,-4.9669,-4.9669,-4.9669,-4.9669,-4.9669,-4.9669,-4.9669,-4.9669,-4.9766,-4.999,-5.0086,-5.0279,-5.0632,-5.1512,-5.2002,-5.2183,-5.3755,-5.4356,-5.3842,-5.4645,-5.4774,-5.4295,-5.3566,-5.3235,-4.4722,-4.4722,-4.4722,-4.4722,-4.4722,-4.4722,-4.4722,-4.4722,-4.4722,-4.4722,-4.4722,-4.4722,-4.4722,-4.5154,-4.5609,-4.5609,-4.6139,-4.6482,-4.6482,-4.6482,-4.6591,-4.6889,-4.7703,-4.8355,-4.868,-4.9494,-5.001,-5.001,0.0,-5.001,-5.001,-5.001,-5.001,-5.001,-4.9711,-4.9549,-4.9549,-4.8952,-4.8517,-4.8246,-4.7948,-4.7812,-4.7812,-4.7812,-4.8138,-4.8707,-4.9006,0.0,-4.9603,-4.9901,-5.001,-5.001,-5.001,-5.001,-5.001,-5.001,-5.001,-5.001,-5.001,-5.001,-5.001,-5.001,-5.001,-4.9956,-4.9684,-4.9799,-4.9967,-4.9693,-5.0022,-5.0565,-5.1208,-5.1526,-5.1757,-5.2092,-5.1846,-5.1527,-5.1207,-5.0888,-5.0481,-4.9814,-4.9669,-4.9669,-4.9669,-4.9669,-4.9669,-4.9669,-4.9669,-4.9669,-4.9669,-4.9669,-4.9669,-4.9669,-4.9669,-4.9669,-4.9669,-4.9863,-4.999,-5.0086,-5.0375,-5.0537,-5.0793,-5.188,-5.2485,-5.2606,-5.4369,-5.515,-5.4826,-5.5369,-5.5454,-5.5057,-5.4328,-5.3997,-4.4722,-4.4722,-4.4722,-4.4722,-4.4722,-4.4722,-4.4722,-4.4722,-4.4722,-4.483,-4.4722,-4.4722,-4.483,-4.5261,-4.5609,-4.5715,-4.6139,-4.6482,-4.6482,-4.6482,-4.6645,-4.7106,-4.7703,-4.83,-4.887,-4.9467,0.0,-5.001,0.0,0.0,-5.001,-5.001,-5.001,-5.001,-4.9549,-4.9304,-4.9304,-4.8735,-4.8382,-4.8246,-4.8246,-4.8246,-4.8246,-4.8382,-4.8762,-4.9304,-4.9304,0.0,0.0,-5.001,-5.001,-5.001,-5.001,-5.001,-5.001,-5.001,-5.001,-5.001,-5.001,-5.001,-5.001,-5.001,-5.001,-5.001,-5.0123,-5.0572,-5.0906,-5.1017,-5.1458,-5.1896,-5.2408,-5.2623,-5.2615,-5.2787,-5.2397,-5.1846,-5.1207,-5.0975,-5.0685,-5.0017,-4.9785,-4.9669,-4.9669,-4.9669,-4.9669,-4.9669,-4.9669,-4.9669,-4.9669,-4.9669,-4.9669,-4.9669,-4.9669,-4.9669,-4.9766,-4.999,-5.0183,-5.0279,-5.0632,-5.0887,-5.1169,-5.2336,-5.302,-5.3196,-5.4787,-5.5555,-5.5555,-5.5776,-5.5852,-5.5852,-5.509,-5.4759,-4.4722,-4.4722,-4.4722,-4.4722,-4.4722,-4.4722,-4.4722,-4.4722,-4.483,-4.5072,-4.4964,-4.483,-4.5395,-4.5609,-4.5715,-4.5901,-4.6245,-4.6482,-4.6482,-4.6482,-4.6482,-4.6564,-4.7079,-4.7676,-4.8273,-4.887,-4.944,0.0,0.0,0.0,-5.001,-5.001,-5.001,-5.001,-4.9956,-4.9928,-4.9928,-4.9331,-4.8762,-4.8246,-4.8246,-4.8246,-4.8273,-4.8816,-4.9386,-4.9928,-4.9928,0.0,0.0,-5.001,-5.001,-5.001,-5.001,-5.001,-5.001,-5.001,-5.001,-5.001,-5.001,-5.001,-5.001,-5.001,-5.001,-5.0123,-5.0683,-5.0906,-5.1017,-5.1568,-5.1787,-5.1896,-5.2408,-5.2623,-5.273,-5.3337,-5.3384,-5.3181,-5.2543,-5.1933,-5.1352,-5.0714,-5.0104,-4.9669,-4.9669,-4.9669,-4.9669,-4.9669,-4.9669,-4.9669,-4.9669,-4.9669,-4.9669,-4.9669,-4.9669,-4.9766,-5.0086,-5.0086,-5.0279,-5.0728,-5.0822,-5.1263,-5.2426,-5.3371,-5.4232,-5.5035,-5.6067,-5.6603,-5.6603,-5.6614,-5.6581,-5.6581,-5.5852,-5.5521,-4.4722,-4.4722,-4.4722,-4.4722,-4.4722,-4.4722,-4.4722,-4.4722,-4.4722,-4.483,-4.4964,-4.5072,-4.5287,-4.5609,-4.5901,-4.6007,-4.6245,-4.6482,-4.6482,-4.6482,-4.6482,-4.6482,-4.6998,-4.7459,0.0,0.0,-4.9386,0.0,0.0,0.0,-5.001,-5.001,-5.001,-5.001,-4.9657,-4.9494,-4.9494,-4.8897,-4.849,-4.8246,-4.8599,-4.8762,-4.8789,-4.9386,-4.9793,-5.001,-5.001,0.0,0.0,-5.001,-5.001,-5.001,-5.001,-5.001,-5.001,-5.001,-5.001,-5.001,-5.001,-5.001,-5.001,-5.001,-5.0235,-5.0572,-5.0795,-5.1128,-5.1568,-5.2085,-5.2544,-5.2865,-5.3078,-5.3184,-5.3184,-5.3395,-5.35,-5.3326,-5.2717,-5.2078,-5.1439,-5.0801,-5.0133,-4.9669,-4.9669,-4.9669,-4.9669,-4.9669,-4.9669,-4.9669,-4.9669,-4.9669,-4.9766,-4.9892,-4.999,-4.999,-5.0086,-5.0346,-5.0632,-5.0822,-5.1512,-5.2063,-5.2606,-5.4062,-5.4985,-5.5312,-5.6257,-5.668,-5.668,-5.668,-5.668,-5.668,-5.6415,-5.6249,-4.4722,-4.4722,-4.4722,-4.4722,-4.4722,-4.4722,-4.4722,-4.4722,-4.4722,-4.4938,-4.5072,-4.5287,-4.5502,-4.5822,-4.6007,-4.6112,-4.635,-4.6482,-4.6482,-4.6482,-4.6482,-4.6482,0.0,-4.7161,0.0,-4.8436,0.0,0.0,0.0,0.0,-5.001,-5.001,-5.001,-5.001,-4.9603,-4.9386,-4.9386,-4.8979,-4.868,-4.8517,-4.9114,-4.9304,-4.9142,-4.9739,-5.001,-5.001,-5.001,0.0,0.0,-5.001,-5.001,-5.001,-5.001,-5.001,-5.001,-5.001,-5.001,-5.001,-5.001,-5.001,-5.001,-5.001,-5.0348,-5.0683,-5.1017,-5.1568,-5.2113,-5.273,-5.3184,-5.35,-5.35,-5.35,-5.35,-5.35,-5.35,-5.3384,-5.2949,-5.2194,-5.1468,-5.1033,-5.0249,-4.9669,-4.9669,-4.9669,-4.9669,-4.9669,-4.9669,-4.9669,-4.9669,-4.9766,-4.9892,-5.0086,-5.0183,-5.0279,-5.0279,-5.0632,-5.0822,-5.0917,-5.1972,-5.2695,-5.302,-5.4453,-5.5474,-5.5749,-5.6336,-5.668,-5.668,-5.668,-5.668,-5.668,-5.668,-5.668,-4.4722,-4.4722,-4.4722,-4.4722,-4.4722,-4.4722,-4.4722,-4.4722,-4.483,-4.5502,-4.5395,-4.5502,-4.6377,-4.6245,-4.6139,-4.6482,-4.6482,-4.6482,-4.6482,-4.6482,-4.6482,-4.6482,-4.6482,-4.6699,-4.7296,-4.8436,0.0,0.0,0.0,0.0,-5.001,-5.001,-5.001,-5.001,-5.001,-5.001,-5.001,-4.9983,-4.9684,-4.9114,-4.9711,-4.9684,-4.9142,-4.9739,-5.001,0.0,0.0,0.0,0.0,-5.001,-5.001,-5.001,-5.001,-5.001,-5.001,-5.001,-5.001,-5.001,-5.001,-5.001,-5.001,-5.001,-5.001,-5.0235,-5.1458,-5.2221,-5.273,-5.329,-5.35,-5.35,-5.35,-5.35,-5.35,-5.35,-5.35,-5.35,-5.35,-5.2514,-5.1614,-5.1614,-5.0569,-4.9669,-4.9669,-4.9669,-4.9669,-4.9669,-4.9669,-4.9669,-4.9669,-4.9892,-5.0086,-5.0086,-5.0537,-5.0793,-5.0793,-5.0793,-5.0917,-5.1229,-5.2094,-5.302,-5.3976,-5.4819,-5.5749,-5.668,-5.668,-5.668,-5.668,-5.668,-5.668,-5.668,-5.668,-5.668,-4.4722,-4.4722,-4.4722,-4.4722,-4.4722,-4.4722,-4.4722,-4.4722,-4.483,-4.5287,-4.5395,-4.5609,-4.6034,-4.6245,-4.635,-4.6482,-4.6482,-4.6482,-4.6482,-4.6482,-4.6482,-4.6482,-4.6482,-4.6699,0.0,0.0,0.0,0.0,0.0,0.0,-5.001,-5.001,-5.001,-5.001,-5.001,-5.001,-5.001,-5.001,-4.9901,-4.9739,-4.9928,-4.9901,-4.9739,-4.9928,-5.001,0.0,0.0,0.0,0.0,-5.001,-5.001,-5.001,-5.001,-5.001,-5.001,-5.001,-5.001,-5.001,-5.001,-5.001,-5.001,-5.001,-5.0572,-5.1348,-5.1677,-5.1896,-5.2221,-5.3184,-5.35,-5.35,-5.35,-5.35,-5.35,-5.35,-5.35,-5.3384,-5.2949,-5.2223,-5.1497,-5.1062,-5.0278,-4.9669,-4.9669,-4.9669,-4.9669,-4.9669,-4.9669,-4.9766,-4.999,-5.0086,-5.0183,-5.0537,-5.0728,-5.0793,-5.0793,-5.1512,-5.2063,-5.2185,-5.3601,-5.4537,-5.4902,-5.5749,-5.6414,-5.668,-5.668,-5.668,-5.668,-5.668,-5.668,-5.668,-5.668,-5.668,-4.4856,-4.483,-4.4722,-4.483,-4.483,-4.4722,-4.4722,-4.483,-4.4964,-4.5287,-4.5609,-4.5822,-4.6139,-4.635,-4.6482,-4.6482,-4.6482,-4.6482,-4.6482,-4.6482,0.0,-4.6482,0.0,0.0,0.0,0.0,0.0,0.0,0.0,0.0,-5.001,-5.001,-5.001,-5.001,-5.001,-5.001,-5.001,-5.001,-4.9901,-4.9684,-4.9901,-4.9901,-4.9684,-4.9901,-5.001,0.0,0.0,0.0,0.0,-5.001,-5.001,-5.001,-5.001,-5.001,-5.001,-5.001,-5.001,-5.001,-5.001,-5.001,-5.001,-5.0235,-5.1128,-5.2113,-5.2113,-5.2221,-5.2544,-5.329,-5.35,-5.35,-5.35,-5.35,-5.35,-5.35,-5.35,-5.3326,-5.2717,-5.2078,-5.1439,-5.0801,-5.0133,-4.9669,-4.9669,-4.9669,-4.9669,-4.9669,-4.9766,-4.9892,-5.0086,-5.0279,-5.0442,-5.0822,-5.0917,-5.1075,-5.1449,-5.2154,-5.2606,-5.2606,-5.4285,-5.5312,-5.5312,-5.6179,-5.668,-5.668,-5.668,-5.668,-5.668,-5.668,-5.668,-5.668,-5.668,-5.668,0.0,-4.4964,-4.483,-4.518,-4.4964,-4.4722,-4.4722,-4.4964,0.0,-4.5609,-4.5795,-4.6139,-4.6482,-4.6482,-4.6482,-4.6482,-4.6482,-4.6482,-4.6482,-4.6482,0.0,0.0,-4.6482,0.0,0.0,0.0,0.0,0.0,0.0,0.0,-5.001,-5.001,-5.001,-5.001,-4.9983,-4.9956,-4.9956,-4.9956,-4.9657,-4.906,-4.9657,-4.9657,-4.9142,-4.9739,-5.001,0.0,0.0,0.0,0.0,-5.001,-5.001,-5.001,-5.001,-5.001,-5.001,-5.001,-5.001,-5.001,-5.001,-5.001,-5.0123,-5.0795,-5.1677,-5.268,-5.2623,-5.3078,-5.35,-5.35,-5.35,-5.35,-5.35,-5.35,-5.35,-5.35,-5.3471,-5.3268,-5.263,-5.1991,-5.1381,-5.0714,-5.0104,-4.9669,-4.9669,-4.9669,-4.9669,-4.9669,-4.9892,-5.0086,-5.0086,-5.0537,-5.0793,-5.0822,-5.1105,-5.1665,-5.2516,-5.2695,-5.2695,-5.2785,-5.4453,-5.5393,-5.5393,-5.6257,-5.668,-5.668,-5.668,-5.668,-5.668,-5.668,-5.668,-5.668,-5.668,-5.668,-4.5395,0.0,-4.518,-4.5395,-4.5502,-4.5368,0.0,-4.5287,-4.5502,-4.5609,-4.5795,-4.6139,-4.6482,-4.6482,-4.6482,-4.6482,-4.6482,-4.6482,-4.6482,-4.6482,0.0,-4.6482,-4.6482,0.0,0.0,0.0,0.0,0.0,0.0,-4.9521,-4.9983,-5.001,-5.001,-5.001,-4.9576,-4.9331,-4.9331,-4.9331,-4.9033,-4.8463,-4.906,-4.9277,-4.9142,-4.9739,-5.001,0.0,0.0,0.0,-5.001,-5.001,-5.001,-5.001,-5.001,-5.001,-5.001,-5.001,-5.001,-5.001,-5.001,-5.001,-5.0235,-5.1238,-5.1787,-5.2113,-5.3078,-5.3395,-5.35,-5.35,-5.35,-5.35,-5.35,-5.35,-5.35,-5.35,-5.3152,-5.263,-5.1991,-5.1352,-5.0714,-5.0046,-4.9785,-4.9669,-4.9669,-4.9669,-4.9669,-4.9669,-4.9892,-5.0183,-5.0405,-5.0662,-5.0917,-5.1105,-5.1819,-5.2336,-5.2606,-5.3284,-5.3976,-5.4621,-5.5749,-5.6336,-5.6336,-5.6603,-5.668,-5.668,-5.668,-5.668,-5.668,-5.668,-5.668,-5.668,-5.668,-5.668,-4.5502,-4.5502,-4.5502,-4.5715,-4.5609,-4.5395,-4.5395,-4.5502,-4.5609,-4.5795,-4.6034,-4.6245,-4.6482,-4.6482,-4.6482,-4.6482,-4.6482,-4.6482,-4.6482,0.0,-4.6482,-4.6482,-4.6482,0.0,0.0,0.0,0.0,0.0,0.0,-4.9277,-4.9576,-4.9603,-4.9603,-4.9603,-4.9033,-4.8843,-4.9114,-4.887,-4.8436,-4.7839,-4.8707,-4.8979,-4.8762,-4.963,-5.001,0.0,0.0,0.0,-5.001,-5.001,-5.001,-5.001,-5.001,-5.001,-5.001,-5.001,-5.001,-5.001,-5.001,-5.0348,-5.0906,-5.1568,-5.2113,-5.2652,-5.329,-5.35,-5.35,-5.35,-5.35,-5.35,-5.35,-5.35,-5.3442,-5.3152,-5.2833,-5.231,-5.1381,-5.0917,-5.0481,-4.9814,-4.9669,-4.9669,-4.9669,-4.9766,-4.9892,-4.9892,-5.0154,-5.0442,-5.0662,-5.0822,-5.1199,-5.1819,-5.2245,-5.2931,-5.3773,-5.4285,-5.4819,-5.5312,-5.6179,-5.668,-5.668,-5.668,-5.668,-5.668,-5.668,-5.668,-5.668,-5.668,-5.668,-5.668,-5.668,-5.668,-4.5609,-4.5715,-4.5822,-4.5901,-4.5715,-4.5395,-4.5609,-4.5715,-4.5822,-4.5901,-4.6245,-4.6482,-4.6482,-4.6482,-4.6482,-4.6482,-4.6482,-4.6482,-4.6482,-4.6482,-4.6482,-4.6482,0.0,0.0,0.0,0.0,0.0,0.0,0.0,-4.8897,-4.8979,-4.8979,-4.8979,-4.8979,-4.8409,-4.8355,-4.8843,-4.8355,-4.7812,-4.7242,-4.8327,-4.8653,-4.8273,-4.9386,-4.9928,-5.001,0.0,0.0,-5.001,-5.001,-5.001,-5.001,-5.001,-5.001,-5.001,-5.001,-5.001,-5.001,-5.0123,-5.0906,-5.1787,-5.1896,-5.2544,-5.3395,-5.35,-5.35,-5.35,-5.35,-5.35,-5.35,-5.35,-5.3442,-5.3239,-5.2688,-5.2426,-5.1991,-5.0917,-5.0598,-5.0365,-4.9785,-4.9669,-4.9669,-4.9669,-4.9892,-5.0086,-5.0086,-5.0537,-5.0793,-5.0793,-5.1199,-5.1727,-5.2516,-5.2843,-5.3601,-5.5117,-5.5474,-5.5474,-5.5474,-5.6257,-5.668,-5.668,-5.668,-5.668,-5.668,-5.668,-5.668,-5.668,-5.668,-5.668,-5.668,-5.668,-5.668,-4.5609,-4.5928,-4.6245,-4.6007,-4.5901,-4.5795,-4.5609,-4.6034,-4.6245,-4.6007,-4.6245,-4.6482,-4.6482,-4.6482,-4.6482,0.0,0.0,-4.6482,0.0,0.0,-4.6482,0.0,0.0,0.0,0.0,0.0,0.0,0.0,0.0,-4.7839,-4.8355,-4.8382,-4.8382,-4.8382,-4.7812,-4.7541,-4.7622,-4.7541,-4.7188,-4.6618,-4.7296,-4.7839,-4.8273,-4.8952,-4.9549,-5.001,0.0,-5.001,-5.001,-5.001,-5.001,-5.001,-5.001,-5.001,-5.001,-5.001,-5.001,-5.0123,-5.0572,-5.1238,-5.1896,-5.2301,-5.2623,-5.2837,-5.3395,-5.35,-5.35,-5.35,-5.35,-5.35,-5.35,-5.3123,-5.2688,-5.2601,-5.1759,-5.0917,-5.0714,-5.022,-4.9785,-4.9698,-4.9669,-4.9669,-4.9669,-4.9892,-5.0086,-5.0086,-5.0537,-5.0793,-5.0793,-5.1697,-5.2426,-5.2606,-5.3945,-5.4952,-5.5312,-5.5988,-5.6525,-5.6525,-5.6603,-5.668,-5.668,-5.668,-5.668,-5.668,-5.668,-5.668,-5.668,-5.668,-5.668,-5.668,-5.668,-5.668,-4.5715,-4.5822,-4.6034,-4.6007,-4.6007,-4.6007,-4.6034,-4.6139,-4.6245,-4.6245,-4.635,-4.6482,-4.6482,0.0,-4.6482,-4.6482,0.0,-4.6482,0.0,0.0,0.0,0.0,0.0,0.0,0.0,0.0,0.0,0.0,0.0,0.0,-4.7758,-4.7758,-4.7758,-4.7758,-4.7188,-4.6889,-4.6889,-4.6889,-4.6727,-4.6482,-4.7079,-4.7676,-4.8273,-4.8843,-4.944,-5.001,0.0,-5.001,-5.001,-5.001,-5.001,-5.001,-5.001,-5.001,-5.001,-5.001,-5.001,-5.0123,-5.0683,-5.1348,-5.1896,-5.2408,-5.2837,-5.3184,-5.3395,-5.35,-5.35,-5.35,-5.35,-5.3442,-5.3094,-5.2804,-5.2397,-5.1701,-5.1091,-5.0569,-5.022,-4.9901,-4.9669,-4.9669,-4.9669,-4.9766,-4.9892,-5.0183,-5.0375,-5.0442,-5.0822,-5.1011,-5.1011,-5.1972,-5.2785,-5.3284,-5.4537,-5.5474,-5.5988,-5.6414,-5.668,-5.668,-5.668,-5.668,-5.668,-5.668,-5.668,-5.668,-5.668,-5.668,-5.668,-5.668,-5.668,-5.668,-5.668,-5.668,-4.5715,-4.5609,-4.5795,-4.6034,-4.6007,-4.6007,-4.635,-4.6245,-4.6245,-4.6482,-4.6482,-4.6482,-4.6482,-4.6482,0.0,-4.6482,-4.6482,0.0,0.0,0.0,0.0,0.0,0.0,0.0,0.0,0.0,0.0,0.0,0.0,0.0,-4.7161,-4.7161,-4.7161,-4.7161,-4.6699,-4.6482,-4.6482,-4.6482,-4.6482,-4.6482,-4.6944,-4.7459,-4.8056,-4.8653,-4.925,-4.982,-4.9956,-5.001,-5.001,-5.001,-5.001,-5.001,-5.001,-5.001,-5.001,-5.001,-5.0235,-5.046,-5.0906,-5.1568,-5.2221,-5.2652,-5.3078,-5.35,-5.35,-5.35,-5.3471,-5.3326,-5.3297,-5.3181,-5.2688,-5.2339,-5.1875,-5.0917,-5.054,-5.0307,-4.9785,-4.9669,-4.9669,-4.9669,-4.9669,-4.9766,-5.0086,-5.0309,-5.0596,-5.0822,-5.1011,-5.1293,-5.1479,-5.2336,-5.3284,-5.4232,-5.5067,-5.5908,-5.6603,-5.668,-5.668,-5.668,-5.668,-5.668,-5.668,-5.668,-5.668,-5.668,-5.668,-5.668,-5.668,-5.668,-5.6779,-5.6945,-5.6945,-5.7044,-4.5715,-4.5795,-4.6007,-4.635,-4.6034,-4.5715,-4.6007,-4.6245,-4.6482,-4.6482,-4.6482,-4.6482,-4.6482,-4.6482,-4.6482,-4.6482,-4.6482,0.0,0.0,0.0,0.0,0.0,0.0,0.0,0.0,0.0,0.0,0.0,0.0,0.0,-4.6537,-4.6537,-4.6537,-4.6537,-4.6482,-4.6482,-4.6482,-4.6482,-4.6482,-4.6482,-4.6509,-4.6835,-4.7432,-4.8029,-4.8626,-4.9223,-4.9766,-5.001,-5.001,-5.001,-5.001,-5.001,-5.001,-5.001,-5.001,-5.001,-5.0683,-5.1677,-5.1677,-5.2437,-5.3395,-5.3395,-5.35,-5.35,-5.35,-5.35,-5.3384,-5.2804,-5.263,-5.263,-5.2572,-5.1701,-5.0772,-5.0685,-5.0191,-4.9727,-4.9698,-4.9669,-4.9669,-4.9669,-4.9669,-4.9766,-5.0086,-5.0309,-5.0596,-5.0822,-5.1011,-5.1479,-5.2426,-5.3284,-5.4232,-5.5117,-5.6067,-5.6603,-5.668,-5.668,-5.668,-5.668,-5.668,-5.668,-5.668,-5.668,-5.668,-5.668,-5.668,-5.668,-5.668,-5.668,-5.7044,-5.7707,-5.7707,-5.8071,-4.5715,-4.5795,-4.6007,-4.6139,-4.6034,-4.5901,-4.6245,-4.635,-4.6482,-4.6482,-4.6482,-4.6482,-4.6482,0.0,-4.6482,-4.6482,-4.6482,0.0,0.0,0.0,0.0,0.0,0.0,0.0,0.0,0.0,0.0,0.0,0.0,0.0,-4.6482,-4.6482,-4.6482,-4.6482,-4.6482,-4.6482,-4.6482,-4.6482,-4.6482,-4.6482,-4.6482,-4.6781,-4.7378,-4.7595,-4.8029,-4.8599,-4.9196,-4.9467,-4.9494,-4.9874,-5.001,-5.001,-5.001,-5.001,-5.001,-5.001,-5.0572,-5.1348,-5.1677,-5.2329,-5.3107,-5.3395,-5.35,-5.35,-5.35,-5.3239,-5.2862,-5.263,-5.1991,-5.1381,-5.1381,-5.1033,-5.0569,-5.0162,-4.9872,-4.9669,-4.9669,-4.9669,-4.9669,-4.9669,-4.9863,-4.999,-5.0309,-5.0567,-5.0728,-5.1011,-5.1635,-5.2154,-5.2516,-5.3859,-5.4952,-5.528,-5.6179,-5.668,-5.668,-5.668,-5.668,-5.668,-5.668,-5.668,-5.668,-5.668,-5.6912,-5.7376,-5.7376,-5.7608,-5.8071,-5.8071,-5.8204,-5.8469,-5.8469,-5.8634,-4.5795,-4.5901,-4.6007,-4.6112,-4.6139,-4.6139,-4.6455,-4.6482,-4.6482,-4.6482,-4.6482,-4.6482,-4.6482,0.0,0.0,0.0,0.0,0.0,0.0,0.0,0.0,0.0,0.0,0.0,0.0,0.0,0.0,0.0,0.0,0.0,0.0,-4.6482,-4.6482,-4.6482,-4.6482,-4.6482,-4.6482,-4.6482,-4.6482,-4.6482,-4.6482,-4.6699,-4.7079,-4.7269,-4.7568,-4.8002,-4.8599,-4.8843,-4.8897,-4.9494,-4.9847,-5.001,-5.001,-5.001,-5.001,-5.0235,-5.0683,-5.1238,-5.1896,-5.2437,-5.3001,-5.3395,-5.3384,-5.321,-5.321,-5.2775,-5.2223,-5.202,-5.1352,-5.0627,-5.0423,-5.0365,-5.0249,-4.9785,-4.9669,-4.9669,-4.9669,-4.9669,-4.9669,-4.9669,-4.9892,-5.0183,-5.0501,-5.0662,-5.0917,-5.1135,-5.2002,-5.2695,-5.302,-5.4369,-5.5393,-5.5716,-5.6336,-5.668,-5.668,-5.668,-5.6779,-5.7011,-5.7044,-5.7044,-5.7044,-5.7243,-5.7608,-5.8138,-5.8138,-5.8403,-5.8899,-5.8899,-5.9032,-5.9264,-5.9264,-5.9363,-4.6007,-4.6007,-4.6139,-4.635,-4.6245,-4.6139,-4.6455,-4.6482,-4.6482,-4.6482,-4.6482,-4.6482,-4.6482,-4.6482,0.0,0.0,0.0,0.0,0.0,0.0,0.0,0.0,0.0,0.0,0.0,0.0,0.0,0.0,0.0,0.0,0.0,-4.6482,-4.6482,-4.6482,-4.6482,-4.6482,-4.6482,-4.6482,-4.6482,-4.6482,-4.6482,-4.6482,-4.6482,-4.7079,-4.7351,-4.7378,-4.7975,-4.8246,-4.8273,-4.887,-4.9467,-4.9983,-4.9983,-5.001,-5.0096,-5.0656,-5.121,-5.1868,-5.2408,-5.2943,-5.35,-5.35,-5.3065,-5.2572,-5.2572,-5.2107,-5.1468,-5.0859,-5.0685,-5.0511,-4.9843,-4.9669,-4.9669,-4.9669,-4.9669,-4.9669,-4.9669,-4.9669,-4.9669,-4.9669,-4.9892,-5.0183,-5.0501,-5.0662,-5.0917,-5.1199,-5.2002,-5.2962,-5.3891,-5.4819,-5.5636,-5.6603,-5.668,-5.668,-5.668,-5.668,-5.7011,-5.774,-5.7806,-5.7806,-5.7806,-5.8502,-5.8899,-5.8899,-5.8899,-5.8899,-5.8933,-5.8933,-5.9297,-6.0026,-6.0026,-6.0423,-4.5715,-4.5901,-4.6007,-4.5928,-4.6139,-4.635,-4.6482,-4.6482,-4.6482,-4.6482,-4.6482,-4.6482,-4.6482,-4.6482,0.0,0.0,0.0,0.0,0.0,0.0,0.0,0.0,0.0,0.0,0.0,0.0,0.0,0.0,0.0,0.0,0.0,-4.6482,-4.6482,-4.6482,-4.6482,-4.6482,-4.6482,-4.6482,-4.6482,-4.6482,-4.6482,-4.6482,-4.6482,-4.6672,-4.6727,-4.6781,-4.7351,-4.7622,-4.7676,-4.8273,-4.8599,-4.8762,-4.8762,-4.8982,-4.9418,-4.9527,-5.0253,-5.0995,-5.1204,-5.165,-5.2165,-5.2165,-5.2049,-5.1904,-5.1904,-5.1468,-5.0917,-5.0714,-5.0336,-4.993,-4.9727,-4.9669,-4.9669,-4.9669,-4.9669,-4.9669,-4.9669,-4.9669,-4.9766,-4.999,-5.0183,-5.0471,-5.0632,-5.0917,-5.1293,-5.2094,-5.2931,-5.4147,-5.5668,-5.61,-5.6414,-5.668,-5.668,-5.668,-5.668,-5.7177,-5.7574,-5.7773,-5.8767,-5.9098,-5.8601,-5.8767,-5.9131,-5.9661,-5.9661,-5.9926,-6.0456,-6.0456,-6.0556,-6.0788,-6.0788,-6.0887,-4.5928,-4.6034,-4.6139,-4.6034,-4.6245,-4.6482,-4.6482,-4.6482,-4.6482,-4.6482,-4.6482,-4.6482,-4.6482,-4.6482,0.0,0.0,0.0,0.0,0.0,0.0,0.0,0.0,0.0,0.0,0.0,0.0,0.0,0.0,0.0,0.0,0.0,-4.6482,-4.6482,-4.6482,-4.6482,-4.6482,-4.6482,-4.6482,-4.6482,-4.6482,-4.6482,-4.6482,-4.6482,-4.6482,-4.6482,-4.6482,-4.6835,-4.7134,-4.7378,-4.7758,-4.8029,-4.8246,-4.8246,-4.8572,-4.9111,-4.9297,-4.9932,-5.0766,-5.0972,-5.1308,-5.1614,-5.1614,-5.1439,-5.1236,-5.1236,-5.0801,-5.0278,-5.0278,-4.9988,-4.9669,-4.9669,-4.9669,-4.9669,-4.9669,-4.9669,-4.9669,-4.9669,-4.9669,-4.9766,-5.0086,-5.0309,-5.0567,-5.0728,-5.1011,-5.1479,-5.2426,-5.3719,-5.5067,-5.6525,-5.668,-5.668,-5.668,-5.668,-5.6812,-5.7111,-5.7541,-5.8038,-5.8634,-5.9496,-5.9926,-5.9794,-5.9761,-5.9993,-6.0423,-6.0456,-6.0655,-6.1119,-6.1119,-6.1119,-6.1119,-6.1119,-6.1119,-4.635,-4.6482,-4.6482,-4.6482,-4.6482,-4.6482,-4.6482,-4.6482,-4.6482,-4.6482,0.0,-4.6482,-4.6482,-4.6482,0.0,0.0,0.0,0.0,0.0,0.0,0.0,0.0,0.0,0.0,0.0,0.0,0.0,0.0,0.0,0.0,0.0,-4.6482,-4.6482,-4.6482,-4.6482,-4.6482,-4.6482,-4.6482,-4.6482,-4.6482,-4.6482,-4.6482,-4.6482,-4.6482,-4.6482,-4.6482,-4.6482,-4.6781,-4.7269,-4.7269,-4.7595,-4.8083,-4.8083,-4.8516,-4.9024,-4.9631,-5.0153,-5.0698,-5.1237,-5.1439,-5.1439,-5.1439,-5.1062,-5.0598,-5.0598,-5.0162,-4.9669,-4.9669,-4.9669,-4.9669,-4.9669,-4.9669,-4.9669,-4.9669,-4.9669,-4.9669,-4.9669,-4.9669,-4.9766,-5.0086,-5.0375,-5.0567,-5.0822,-5.1105,-5.1635,-5.2664,-5.4285,-5.5749,-5.6603,-5.668,-5.668,-5.668,-5.668,-5.6978,-5.774,-5.7839,-5.8502,-5.9926,-6.0059,-6.0423,-6.1086,-6.1119,-6.1119,-6.1119,-6.1119,-6.1119,-6.1119,-6.1119,-6.1119,-6.1119,-6.1119,-6.1119,-4.5822,-4.5928,-4.6139,-4.6139,-4.635,-4.6482,-4.6482,-4.6482,-4.6482,-4.6482,-4.6482,-4.6482,-4.6482,0.0,0.0,0.0,0.0,0.0,0.0,0.0,0.0,0.0,0.0,0.0,0.0,0.0,0.0,0.0,0.0,0.0,-4.6482,-4.6482,-4.6482,-4.6482,-4.6482,-4.6482,-4.6482,-4.6482,-4.6482,0.0,-4.6482,-4.6482,-4.6482,-4.6482,-4.6482,-4.6482,-4.6482,-4.6537,-4.6672,-4.6672,-4.6727,-4.6968,-4.7389,-4.7882,-4.8369,-4.8878,-4.9481,-4.9878,-5.0075,-5.0104,-5.0104,-5.0104,-4.9988,-4.9901,-4.9901,-4.9785,-4.9669,-4.9669,-4.9669,-4.9669,-4.9669,-4.9669,-4.9669,-4.9669,-4.9669,-4.9669,-4.9669,-4.9892,-5.0086,-5.0405,-5.0567,-5.0822,-5.1105,-5.1727,-5.2843,-5.4453,-5.5668,-5.6492,-5.668,-5.668,-5.668,-5.668,-5.668,-5.6978,-5.774,-5.8336,-5.9032,-5.9926,-6.0556,-6.0953,-6.1086,-6.1119,-6.1119,-6.1119,-6.1119,-6.1119,-6.1119,-6.1119,-6.1119,-6.1119,-6.1119,-6.1119,-4.5795,-4.6034,-4.6245,-4.6245,-4.635,-4.6482,-4.6482,-4.6482,-4.6482,-4.6482,-4.6482,-4.6482,-4.6482,0.0,0.0,0.0,0.0,0.0,0.0,0.0,0.0,0.0,0.0,0.0,0.0,0.0,0.0,0.0,0.0,-4.6482,-4.6482,-4.6482,-4.6482,-4.6482,-4.6482,-4.6482,-4.6482,-4.6482,-4.6482,-4.6482,-4.6482,-4.6482,-4.6482,-4.6482,-4.6482,-4.6482,-4.6482,-4.6482,-4.6482,-4.6482,-4.6692,-4.6901,-4.7184,-4.7801,-4.8481,-4.881,-4.9178,-4.9669,-4.9669,-4.9669,-4.9669,-4.9669,-4.9669,-4.9669,-4.9669,-4.9669,-4.9669,-4.9669,-4.9669,-4.9669,-4.9669,-4.9669,-4.9669,-4.9669,-4.9669,-4.9669,-4.9669,-4.9892,-5.0183,-5.0501,-5.0662,-5.0917,-5.1105,-5.2336,-5.3719,-5.5149,-5.6067,-5.668,-5.668,-5.668,-5.668,-5.668,-5.668,-5.7144,-5.8237,-5.8668,-5.9363,-6.0456,-6.0887,-6.1119,-6.1119,-6.1119,-6.1119,-6.1119,-6.1119,-6.1119,-6.1119,-6.1119,-6.1119,-6.1119,-6.1119,-6.1119,-4.5901,-4.6245,-4.6482,-4.6482,-4.6482,-4.6482,-4.6482,-4.6482,-4.6482,-4.6482,-4.6482,-4.6482,0.0,0.0,0.0,0.0,0.0,0.0,0.0,0.0,0.0,0.0,0.0,0.0,0.0,0.0,0.0,0.0,0.0,-4.6482,-4.6482,-4.6482,-4.6482,-4.6482,-4.6482,-4.6482,-4.6482,-4.6482,-4.6482,-4.6482,-4.6482,-4.6482,-4.6482,-4.6482,-4.6482,-4.6482,-4.6482,-4.6482,-4.6482,-4.6482,-4.6796,-4.7288,-4.7391,-4.8004,-4.8909,-4.898,-4.9277,-4.9669,-4.9669,-4.9669,-4.9669,-4.9669,-4.9669,-4.9669,-4.9669,-4.9669,-4.9669,-4.9669,-4.9669,-4.9669,-4.9669,-4.9669,-4.9669,-4.9669,-4.9669,-4.9669,-4.9669,-4.999,-5.0183,-5.0501,-5.0662,-5.0981,-5.1542,-5.2962,-5.4317,-5.5393,-5.6179,-5.668,-5.668,-5.668,-5.668,-5.668,-5.668,-5.7276,-5.8767,-5.8899,-5.9529,-6.102,-6.1119,-6.1119,-6.1119,-6.1119,-6.1119,-6.1119,-6.1119,-6.1119,-6.1119,-6.1119,-6.1119,-6.1119,-6.1119,-6.1119,-4.5609,-4.6034,-4.6482,-4.6482,-4.6482,-4.6482,-4.6482,-4.6482,-4.6482,0.0,-4.6482,0.0,0.0,0.0,0.0,0.0,0.0,0.0,0.0,0.0,0.0,0.0,0.0,0.0,0.0,0.0,0.0,0.0,-4.6482,-4.6482,-4.6482,-4.6482,-4.6482,-4.6482,-4.6482,-4.6482,-4.6482,-4.6482,-4.6482,-4.6482,-4.6482,-4.6482,-4.6482,-4.6482,-4.6482,-4.6482,-4.6482,-4.6482,-4.6482,-4.6482,-4.6796,-4.7288,-4.7773,-4.838,-4.9009,-4.9375,-4.9669,-4.9669,-4.9669,-4.9669,-4.9669,-4.9669,-4.9669,-4.9669,-4.9669,-4.9669,-4.9669,-4.9669,-4.9669,-4.9669,-4.9669,-4.9669,-4.9669,-4.9669,-4.9669,-4.9669,-4.9669,-5.0086,-5.0501,-5.0501,-5.0852,-5.1635,-5.3371,-5.3805,-5.4569,-5.6257,-5.6603,-5.668,-5.668,-5.668,-5.668,-5.668,-5.668,-5.7276,-5.8767,-5.8899,-5.9529,-6.102,-6.1119,-6.1119,-6.1119,-6.1119,-6.1119,-6.1119,-6.1119,-6.1119,-6.1119,-6.1119,-6.1119,-6.1119,-6.1119,-6.1119,-4.5715,-4.6139,-4.6482,-4.6482,-4.6482,-4.6482,-4.6482,-4.6482,-4.6482,-4.6482,-4.6482,0.0,0.0,0.0,0.0,0.0,0.0,0.0,0.0,0.0,0.0,0.0,0.0,0.0,0.0,0.0,0.0,0.0,-4.6482,-4.6482,-4.6482,-4.6482,-4.6482,-4.6482,-4.6482,-4.6482,-4.6482,-4.6482,-4.6482,-4.6482,-4.6482,-4.6482,-4.6482,-4.6482,-4.6482,-4.6482,-4.6482,-4.6482,-4.6482,-4.6796,-4.7288,-4.7773,-4.838,-4.8881,-4.9375,-4.9571,-4.9669,-4.9669,-4.9669,-4.9669,-4.9669,-4.9669,-4.9669,-4.9669,-4.9669,-4.9669,-4.9669,-4.9669,-4.9669,-4.9669,-4.9669,-4.9669,-4.9669,-4.9669,-4.9669,-4.9766,-4.9892,-5.0183,-5.0596,-5.0852,-5.1479,-5.2426,-5.3719,-5.4401,-5.5149,-5.6525,-5.668,-5.668,-5.668,-5.668,-5.668,-5.668,-5.668,-5.7276,-5.8767,-5.8899,-5.9529,-6.102,-6.1119,-6.1119,-6.1119,-6.1119,-6.1119,-6.1119,-6.1119,-6.1119,-6.1119,-6.1119,-6.1119,-6.1119,-6.1119,-6.1119,-4.5901,-4.6245,-4.6482,-4.6482,-4.6482,-4.6482,-4.6482,0.0,-4.6482,0.0,0.0,0.0,0.0,0.0,0.0,0.0,0.0,0.0,0.0,0.0,0.0,0.0,0.0,0.0,0.0,0.0,0.0,0.0,-4.6482,-4.6482,-4.6482,-4.6482,-4.6482,-4.6482,-4.6482,-4.6482,-4.6482,-4.6482,-4.6482,-4.6482,-4.6482,-4.6482,-4.6482,-4.6482,-4.6482,-4.6482,-4.6482,-4.6482,-4.6587,-4.7081,-4.7596,-4.8179,-4.8681,-4.9178,-4.9669,-4.9669,-4.9669,-4.9669,-4.9669,-4.9669,-4.9669,-4.9669,-4.9669,-4.9669,-4.9669,-4.9669,-4.9669,-4.9669,-4.9669,-4.9669,-4.9669,-4.9669,-4.9669,-4.9669,-4.9669,-4.9766,-5.0086,-5.0375,-5.0662,-5.1135,-5.1727,-5.2606,-5.3805,-5.4569,-5.5393,-5.6525,-5.668,-5.668,-5.668,-5.668,-5.668,-5.668,-5.6846,-5.7475,-5.88,-5.9065,-5.9728,-6.102,-6.1119,-6.1119,-6.1119,-6.1119,-6.1119,-6.1119,-6.1119,-6.1119,-6.1119,-6.1119,-6.1119,-6.1119,-6.1119,-6.1119,-4.5901,-4.6245,-4.6482,-4.6482,-4.6482,-4.6482,0.0,0.0,-4.6482,0.0,0.0,0.0,0.0,0.0,0.0,0.0,0.0,0.0,0.0,0.0,0.0,0.0,0.0,0.0,0.0,0.0,0.0,0.0,-4.6482,-4.6482,-4.6482,-4.6482,-4.6482,-4.6482,-4.6482,-4.6482,-4.6482,-4.6482,-4.6482,-4.6482,-4.6482,-4.6482,-4.6482,-4.6482,-4.6482,-4.6482,-4.6482,-4.6482,-4.6587,-4.7081,-4.7596,-4.8179,-4.8681,-4.9178,-4.9669,-4.9669,-4.9669,-4.9669,-4.9669,-4.9669,-4.9669,-4.9669,-4.9669,-4.9669,-4.9669,-4.9669,-4.9669,-4.9669,-4.9669,-4.9669,-4.9669,-4.9669,-4.9669,-4.9669,-4.9669,-4.9863,-5.0405,-5.0662,-5.0917,-5.1135,-5.1229,-5.1819,-5.3719,-5.4062,-5.4653,-5.6414,-5.668,-5.668,-5.668,-5.668,-5.668,-5.668,-5.7309,-5.8038,-5.8833,-5.9529,-6.0258,-6.1053,-6.1119,-6.1119,-6.1119,-6.1119,-6.1119,-6.1119,-6.1119,-6.1119,-6.1119,-6.1119,-6.1119,-6.1119,-6.1119,-6.1119,-4.5901,-4.6245,-4.6482,-4.6482,-4.6482,-4.6482,-4.6482,-4.6482,-4.6482,-4.6482,0.0,0.0,0.0,0.0,0.0,0.0,0.0,0.0,0.0,0.0,0.0,0.0,0.0,0.0,0.0,0.0,0.0,0.0,0.0,-4.6482,-4.6482,-4.6482,-4.6482,-4.6482,-4.6482,-4.6482,-4.6482,-4.6482,-4.6482,-4.6482,-4.6482,-4.6482,-4.6482,-4.6482,-4.6482,-4.6482,-4.6901,-4.6977,-4.7081,-4.8004,-4.8409,-4.8681,-4.9178,-4.9571,-4.9669,-4.9669,-4.9669,-4.9669,-4.9669,-4.9669,-4.9669,-4.9669,-4.9669,-4.9669,-4.9669,-4.9669,-4.9669,-4.9669,-4.9669,-4.9669,-4.9669,-4.9669,-4.9669,-4.9669,-4.999,-5.0279,-5.0501,-5.0757,-5.1105,-5.1229,-5.2154,-5.3196,-5.3891,-5.4985,-5.5908,-5.6603,-5.668,-5.668,-5.668,-5.668,-5.668,-5.668,-5.7342,-5.8104,-5.8833,-5.9595,-6.0324,-6.1053,-6.1119,-6.1119,-6.1119,-6.1119,-6.1119,-6.1119,-6.1119,-6.1119,-6.1119,-6.1119,-6.1119,-6.1119,-6.1119,-6.1119,-4.5901,-4.6139,-4.635,-4.6482,-4.6482,-4.6482,-4.6482,-4.6482,-4.6482,-4.6482,0.0,0.0,0.0,0.0,0.0,0.0,0.0,0.0,0.0,0.0,0.0,0.0,0.0,0.0,0.0,0.0,0.0,0.0,0.0,0.0,-4.6482,-4.6482,-4.6482,-4.6482,-4.6482,-4.6482,-4.6482,-4.6482,-4.6482,-4.6482,-4.6482,-4.6482,-4.6482,-4.6482,-4.6587,-4.6796,-4.7288,-4.7494,-4.7391,-4.8509,-4.8909,-4.9009,-4.9473,-4.9669,-4.9669,-4.9669,-4.9669,-4.9669,-4.9669,-4.9669,-4.9669,-4.9669,-4.9669,-4.9669,-4.9669,-4.9669,-4.9669,-4.9669,-4.9669,-4.9669,-4.9669,-4.9669,-4.9669,-4.9766,-5.0183,-5.0501,-5.0567,-5.0947,-5.1229,-5.1229,-5.2426,-5.3632,-5.3976,-5.5231,-5.6336,-5.668,-5.668,-5.668,-5.668,-5.668,-5.668,-5.668,-5.7574,-5.8369,-5.8866,-5.9794,-6.0589,-6.1086,-6.1119,-6.1119,-6.1119,-6.1119,-6.1119,-6.1119,-6.1119,-6.1119,-6.1119,-6.1119,-6.1119,-6.1119,-6.1119,-6.1334,0.0,0.0,0.0,-4.6482,-4.6482,-4.6482,-4.6482,0.0,-4.6482,-4.6482,0.0,0.0,0.0,0.0,0.0,0.0,0.0,0.0,0.0,0.0,0.0,0.0,0.0,0.0,0.0,0.0,0.0,0.0,-4.6482,-4.6482,-4.6482,-4.6482,-4.6482,-4.6482,-4.6482,-4.6482,-4.6482,-4.6482,-4.6482,-4.6482,-4.6482,-4.6482,-4.6482,-4.6482,-4.6796,-4.7288,-4.7875,-4.7773,-4.7391,-4.8509,-4.8909,-4.9009,-4.9473,-4.9669,-4.9669,-4.9669,-4.9669,-4.9669,-4.9669,-4.9669,-4.9669,-4.9669,-4.9669,-4.9669,-4.9669,-4.9669,-4.9669,-4.9669,-4.9669,-4.9669,-4.9669,-4.9669,-4.9766,-4.999,-5.0309,-5.0567,-5.0728,-5.1011,-5.1229,-5.1229,-5.2002,-5.2962,-5.3891,-5.4736,-5.5636,-5.6603,-5.668,-5.668,-5.668,-5.668,-5.668,-5.668,-5.8005,-5.8866,-5.8899,-6.0225,-6.1086,-6.1119,-6.1119,-6.1119,-6.1119,-6.1119,-6.1119,-6.1119,-6.1119,-6.1119,-6.1119,-6.1119,-6.1119,-6.1119,-6.1119,-6.1756,-4.6245,0.0,0.0,0.0,0.0,0.0,0.0,0.0,0.0,-4.6482,0.0,0.0,0.0,0.0,0.0,0.0,0.0,0.0,0.0,0.0,0.0,0.0,0.0,0.0,0.0,0.0,0.0,0.0,-4.6482,-4.6482,-4.6482,-4.6482,-4.6482,-4.6482,-4.6482,-4.6482,-4.6482,-4.6482,-4.6482,-4.6482,-4.6482,-4.6482,-4.6482,-4.6482,-4.6796,-4.7288,-4.7875,-4.828,-4.8509,-4.9178,-4.9473,-4.9473,-4.9669,-4.9669,-4.9669,-4.9669,-4.9669,-4.9669,-4.9669,-4.9669,-4.9669,-4.9669,-4.9669,-4.9669,-4.9669,-4.9669,-4.9669,-4.9669,-4.9669,-4.9669,-4.9669,-4.9669,-4.9669,-4.9766,-5.0183,-5.0501,-5.0567,-5.0947,-5.1386,-5.2094,-5.2962,-5.3891,-5.4819,-5.5749,-5.6414,-5.668,-5.668,-5.668,-5.668,-5.668,-5.668,-5.668,-5.7541,-5.8303,-5.8833,-5.9761,-6.0523,-6.1086,-6.1119,-6.1119,-6.1119,-6.1119,-6.1119,-6.1119,-6.1119,-6.1119,-6.1119,-6.1119,-6.1119,-6.1119,-6.1547,-6.2402,-4.5822,-4.5928,-4.5928,-4.6139,0.0,0.0,-4.6245,-4.6245,0.0,0.0,0.0,0.0,0.0,0.0,0.0,0.0,0.0,0.0,0.0,0.0,0.0,0.0,0.0,0.0,0.0,-4.6482,-4.6482,-4.6482,-4.6482,-4.6482,-4.6482,-4.6482,-4.6482,-4.6482,-4.6482,-4.6482,-4.6482,-4.6482,-4.6482,-4.6482,-4.6482,-4.6482,-4.6482,-4.6482,-4.6873,-4.7699,-4.7976,-4.8581,-4.9277,-4.9571,-4.9669,-4.9669,-4.9669,-4.9669,-4.9669,-4.9669,-4.9669,-4.9669,-4.9669,-4.9669,-4.9669,-4.9669,-4.9669,-4.9669,-4.9669,-4.9669,-4.9669,-4.9669,-4.9669,-4.9669,-4.9669,-4.9669,-4.9766,-4.9863,-5.0183,-5.0501,-5.0567,-5.1199,-5.1911,-5.2516,-5.3371,-5.4317,-5.5149,-5.6067,-5.668,-5.668,-5.668,-5.668,-5.668,-5.668,-5.668,-5.668,-5.7342,-5.8104,-5.8833,-5.9595,-6.0324,-6.1053,-6.1119,-6.1119,-6.1119,-6.1119,-6.1119,-6.1119,-6.1119,-6.1119,-6.1119,-6.1119,-6.1119,-6.1119,-6.1997,-6.2863,-4.5072,-4.5287,-4.5287,-4.5502,0.0,0.0,-4.5901,-4.6007,-4.6112,0.0,0.0,0.0,0.0,0.0,0.0,0.0,0.0,0.0,0.0,0.0,0.0,0.0,0.0,0.0,-4.6482,-4.6482,-4.6482,-4.6482,-4.6482,-4.6482,-4.6482,-4.6482,-4.6482,-4.6482,-4.6482,-4.6482,-4.6482,-4.6482,-4.6482,-4.6482,-4.6482,-4.6482,-4.6482,-4.6482,-4.7081,-4.8078,-4.8078,-4.8681,-4.9669,-4.9669,-4.9669,-4.9669,-4.9669,-4.9669,-4.9669,-4.9669,-4.9669,-4.9669,-4.9669,-4.9669,-4.9669,-4.9669,-4.9669,-4.9669,-4.9669,-4.9669,-4.9669,-4.9669,-4.9669,-4.9669,-4.9669,-4.9669,-4.9766,-5.0086,-5.0309,-5.0596,-5.0728,-5.1697,-5.2606,-5.2785,-5.3545,-5.4401,-5.5312,-5.6179,-5.668,-5.668,-5.668,-5.668,-5.668,-5.668,-5.668,-5.668,-5.7276,-5.7972,-5.8701,-5.9463,-6.0191,-6.0953,-6.1053,-6.1119,-6.1119,-6.1119,-6.1119,-6.1119,-6.1119,-6.1119,-6.1119,-6.1119,-6.1086,-6.1252,-6.2391,-6.309,0.0,0.0,0.0,0.0,0.0,0.0,-4.5715,-4.5795,-4.6007,0.0,-4.635,0.0,0.0,0.0,0.0,0.0,0.0,0.0,0.0,0.0,0.0,0.0,0.0,0.0,-4.6482,-4.6482,-4.6482,-4.6482,-4.6482,-4.6482,-4.6482,-4.6482,-4.6482,-4.6482,-4.6482,-4.6482,-4.6482,-4.6482,-4.6482,-4.6482,-4.6482,-4.6482,-4.6482,-4.6482,-4.7081,-4.8078,-4.8078,-4.8681,-4.9669,-4.9669,-4.9669,-4.9669,-4.9669,-4.9669,-4.9669,-4.9669,-4.9669,-4.9669,-4.9669,-4.9669,-4.9669,-4.9669,-4.9669,-4.9669,-4.9669,-4.9669,-4.9669,-4.9669,-4.9669,-4.9669,-4.9669,-4.9669,-4.9766,-5.0086,-5.0309,-5.0596,-5.0728,-5.1697,-5.2874,-5.3545,-5.4485,-5.5312,-5.6257,-5.6603,-5.668,-5.668,-5.668,-5.668,-5.668,-5.668,-5.668,-5.668,-5.6812,-5.721,-5.7939,-5.8701,-5.9429,-6.0191,-6.0788,-6.1119,-6.1119,-6.1119,-6.1119,-6.1119,-6.1119,-6.1119,-6.1119,-6.1119,-6.1334,-6.1837,-6.2513,-6.3314,0.0,0.0,0.0,-4.5154,0.0,0.0,0.0,-4.5609,-4.5795,-4.6007,-4.6245,-4.6482,-4.6482,0.0,-4.6482,-4.6482,-4.6482,-4.6482,-4.6482,-4.6482,-4.6482,-4.6482,0.0,0.0,-4.6482,-4.6482,-4.6482,-4.6482,-4.6482,-4.6482,-4.6482,-4.6482,-4.6482,-4.6482,-4.6482,-4.6482,-4.6482,-4.6482,-4.6482,-4.6482,-4.6482,-4.6482,-4.6482,-4.6796,-4.7391,-4.8078,-4.838,-4.898,-4.9669,-4.9669,-4.9669,-4.9669,-4.9669,-4.9669,-4.9669,-4.9669,-4.9669,-4.9669,-4.9669,-4.9669,-4.9669,-4.9669,-4.9669,-4.9669,-4.9669,-4.9669,-4.9669,-4.9669,-4.9669,-4.9669,-4.9669,-4.9669,-4.9766,-5.0086,-5.0309,-5.0662,-5.1326,-5.2485,-5.3545,-5.4485,-5.5393,-5.6179,-5.6603,-5.668,-5.668,-5.668,-5.668,-5.668,-5.668,-5.668,-5.668,-5.668,-5.668,-5.6978,-5.774,-5.8469,-5.9198,-5.996,-6.0688,-6.1119,-6.1119,-6.1119,-6.1119,-6.1119,-6.1119,-6.1119,-6.1119,-6.1417,-6.1709,-6.1997,-6.2591,-6.3388,0.0,0.0,0.0,0.0,0.0,-4.4722,0.0,0.0,0.0,0.0,0.0,0.0,0.0,0.0,0.0,0.0,0.0,0.0,0.0,-4.6401,0.0,-4.6482,-4.6482,-4.6482,-4.6482,-4.6482,-4.6482,-4.6482,-4.6482,-4.6482,-4.6482,-4.6482,-4.6482,-4.6482,-4.6482,-4.6482,-4.6482,-4.6482,-4.6482,-4.6482,-4.6482,-4.6482,-4.6482,-4.7081,-4.7596,-4.8179,-4.8681,-4.9178,-4.9669,-4.9669,-4.9669,-4.9669,-4.9669,-4.9669,-4.9669,-4.9669,-4.9669,-4.9669,-4.9669,-4.9669,-4.9669,-4.9669,-4.9669,-4.9669,-4.9669,-4.9669,-4.9669,-4.9669,-4.9669,-4.9669,-4.9669,-4.9669,-4.9766,-5.0086,-5.0309,-5.0852,-5.2033,-5.3165,-5.4232,-5.5149,-5.6067,-5.668,-5.668,-5.668,-5.668,-5.668,-5.668,-5.668,-5.668,-5.668,-5.668,-5.668,-5.668,-5.6912,-5.7541,-5.827,-5.8999,-5.9761,-6.049,-6.0953,-6.1086,-6.1119,-6.1119,-6.1119,-6.1119,-6.1202,-6.1252,-6.1756,-6.2076,-6.2234,-6.2745,-6.357,0.0,0.0,0.0,0.0,-4.4722,0.0,0.0,0.0,-4.5287,-4.5609,0.0,0.0,0.0,0.0,0.0,0.0,0.0,0.0,-4.5777,-4.613,-4.6482,-4.6482,-4.6482,-4.6482,-4.6482,-4.6482,-4.6482,-4.6482,-4.6482,-4.6482,-4.6482,-4.6482,-4.6482,-4.6482,-4.6482,-4.6482,-4.6482,-4.6482,-4.6482,-4.6482,-4.6482,-4.6482,-4.6482,-4.7081,-4.7596,-4.8179,-4.8681,-4.9178,-4.9669,-4.9669,-4.9669,-4.9669,-4.9669,-4.9669,-4.9669,-4.9669,-4.9669,-4.9669,-4.9669,-4.9669,-4.9669,-4.9669,-4.9669,-4.9669,-4.9669,-4.9669,-4.9669,-4.9669,-4.9669,-4.9669,-4.9669,-4.9669,-4.9863,-5.0309,-5.0501,-5.0852,-5.2245,-5.3284,-5.4232,-5.5149,-5.6067,-5.668,-5.668,-5.668,-5.668,-5.668,-5.668,-5.668,-5.668,-5.668,-5.668,-5.668,-5.668,-5.6713,-5.6812,-5.7475,-5.8237,-5.8966,-5.9728,-6.0423,-6.1086,-6.1119,-6.1119,-6.1119,-6.1119,-6.1334,-6.1917,-6.1997,-6.2279,-6.2821,-6.3422,-6.4218,0.0,0.0,0.0,0.0,0.0,0.0,-4.2575,0.0,-4.3219,0.0,0.0,0.0,0.0,0.0,0.0,0.0,-4.5767,0.0,0.0,0.0,-4.5928,0.0,0.0,0.0,-4.6482,-4.6482,-4.6482,-4.6482,-4.6482,-4.6482,-4.6482,-4.6482,-4.6482,-4.6482,-4.6482,-4.6482,-4.6482,-4.6482,-4.6482,-4.6482,-4.6482,-4.6692,-4.6977,-4.7494,-4.8078,-4.8581,-4.9079,-4.9473,-4.9669,-4.9669,-4.9669,-4.9669,-4.9669,-4.9669,-4.9669,-4.9669,-4.9669,-4.9669,-4.9669,-4.9669,-4.9669,-4.9669,-4.9669,-4.9669,-4.9669,-4.9669,-4.9669,-4.9669,-4.9669,-4.9669,-4.9669,-4.9669,-4.9863,-5.0405,-5.0917,-5.1697,-5.3108,-5.4147,-5.5067,-5.5908,-5.6414,-5.668,-5.668,-5.668,-5.668,-5.668,-5.668,-5.668,-5.668,-5.668,-5.668,-5.668,-5.668,-5.668,-5.668,-5.7376,-5.8104,-5.8833,-5.9993,-6.0788,-6.1086,-6.1119,-6.1119,-6.1119,-6.1119,-6.1417,-6.1997,-6.2391,-6.2821,-6.3422,-6.3643,-6.4428,-4.0268,0.0,0.0,0.0,0.0,0.0,0.0,0.0,0.0,0.0,0.0,0.0,0.0,0.0,-4.4833,-4.4676,0.0,-4.5048,0.0,-4.5582,0.0,0.0,0.0,0.0,0.0,-4.6319,-4.6292,-4.6455,-4.6157,-4.613,-4.6455,-4.6319,-4.6319,-4.6455,-4.6482,-4.6482,-4.6482,-4.6482,-4.6587,-4.6692,-4.6692,-4.6977,-4.7494,-4.8078,-4.8481,-4.8909,-4.9473,-4.9669,-4.9669,-4.9669,-4.9669,-4.9669,-4.9669,-4.9669,-4.9669,-4.9669,-4.9669,-4.9669,-4.9669,-4.9669,-4.9669,-4.9669,-4.9669,-4.9669,-4.9669,-4.9669,-4.9669,-4.9669,-4.9669,-4.9669,-4.9669,-4.9669,-4.9863,-5.0405,-5.1169,-5.2184,-5.3719,-5.4653,-5.5555,-5.6525,-5.668,-5.668,-5.668,-5.668,-5.668,-5.668,-5.668,-5.668,-5.668,-5.668,-5.668,-5.668,-5.668,-5.668,-5.668,-5.7177,-5.7906,-5.8833,-6.0092,-6.0887,-6.1086,-6.1119,-6.1119,-6.1119,-6.1252,-6.1628,-6.2234,-6.2821,-6.3422,-6.4039,-6.4039,-6.4602,0.0,0.0,0.0,-4.11,0.0,0.0,0.0,0.0,-4.2662,0.0,0.0,0.0,0.0,-4.2051,-4.1879,-4.125,-4.2924,0.0,0.0,0.0,0.0,0.0,0.0,0.0,0.0,-4.5967,-4.5858,-4.6428,-4.5424,-4.5261,-4.6428,-4.594,-4.5885,-4.6455,-4.6482,-4.6482,-4.6482,-4.6482,-4.6796,-4.7288,-4.7288,-4.7596,-4.8078,-4.8581,-4.8909,-4.8909,-4.9473,-4.9669,-4.9669,-4.9669,-4.9669,-4.9669,-4.9669,-4.9669,-4.9669,-4.9669,-4.9669,-4.9669,-4.9669,-4.9669,-4.9669,-4.9669,-4.9669,-4.9669,-4.9669,-4.9669,-4.9669,-4.9669,-4.9669,-4.9669,-4.9669,-4.9669,-4.9863,-5.0405,-5.1169,-5.2184,-5.3719,-5.4653,-5.5555,-5.6525,-5.668,-5.668,-5.668,-5.668,-5.668,-5.668,-5.668,-5.668,-5.668,-5.668,-5.668,-5.668,-5.668,-5.668,-5.668,-5.6713,-5.7342,-5.88,-5.9595,-6.0357,-6.1086,-6.1119,-6.1119,-6.1119,-6.1709,-6.2313,-6.2821,-6.3496,-6.4111,-6.4637,-6.4637,-6.4911,0.0,0.0,-3.8648,-3.8648,0.0,0.0,0.0,0.0,0.0,0.0,0.0,0.0,0.0,-4.1509,-4.155,-4.1379,-4.1952,-4.2588,0.0,0.0,0.0,0.0,0.0,0.0,0.0,0.0,0.0,-4.5288,-4.4936,-4.4881,-4.5288,-4.5126,-4.5288,-4.5885,-4.5885,-4.6075,-4.6482,-4.6482,-4.6587,-4.6796,-4.7081,-4.7596,-4.8078,-4.8681,-4.9079,-4.9473,-4.9571,-4.9669,-4.9669,-4.9669,-4.9669,-4.9669,-4.9669,-4.9669,-4.9669,-4.9669,-4.9669,-4.9669,-4.9669,-4.9669,-4.9669,-4.9669,-4.9669,-4.9669,-4.9669,-4.9669,-4.9669,-4.9669,-4.9669,-4.9669,-4.9669,-4.9863,-5.0086,-5.0405,-5.1789,-5.3165,-5.3891,-5.5149,-5.6336,-5.6603,-5.668,-5.668,-5.668,-5.668,-5.668,-5.668,-5.668,-5.668,-5.668,-5.668,-5.668,-5.668,-5.668,-5.668,-5.668,-5.7144,-5.7839,-5.8833,-5.9595,-6.0324,-6.1086,-6.1119,-6.1119,-6.1119,-6.1709,-6.2313,-6.2897,-6.3496,-6.4111,-6.4706,-6.4706,-6.4911,-3.7374,-3.7374,0.0,-3.7374,-3.7374,0.0,-3.7374,0.0,0.0,0.0,0.0,0.0,0.0,0.0,-4.0012,-4.0012,-4.05,-4.1533,0.0,-4.4513,0.0,0.0,0.0,0.0,0.0,-4.4719,-4.4474,-4.4691,-4.4312,-4.4257,-4.4691,-4.4501,-4.4664,-4.5261,-4.5288,-4.556,-4.6157,-4.6157,-4.637,-4.6796,-4.7081,-4.7699,-4.838,-4.8681,-4.9178,-4.9669,-4.9669,-4.9669,-4.9669,-4.9669,-4.9669,-4.9669,-4.9669,-4.9669,-4.9669,-4.9669,-4.9669,-4.9669,-4.9669,-4.9669,-4.9669,-4.9669,-4.9669,-4.9669,-4.9669,-4.9669,-4.9727,-4.9959,-4.9872,-4.9727,-4.9959,-5.0067,-5.0183,-5.0405,-5.2063,-5.3719,-5.3976,-5.5426,-5.668,-5.668,-5.668,-5.668,-5.668,-5.668,-5.668,-5.668,-5.668,-5.668,-5.668,-5.668,-5.668,-5.668,-5.668,-5.668,-5.668,-5.7144,-5.7707,-5.8469,-5.9198,-5.9926,-6.0688,-6.0953,-6.1169,-6.1417,-6.1997,-6.2591,-6.3199,-6.3823,-6.4323,-6.4706,-6.4706,-6.4911]}]]